[[{"header":{"parameterUnit":"m.s-1","parameterCategory":1,"la1":30.6,"la2":29.2853,"lo1":-89.7004,"lo2":-87.6739,"dy":0.0162,"dx":0.0183,"nx":112,"ny":82,"refTime":"2024-09-05T12:00:00:Z","depth":0,"parameterNumber":2,"parameterNumberName":"U-component_of_WINDS"},"data":[0.0,0.0,0.0,0.0,0.0,0.0,0.0,0.0,0.0,0.0,0.0,0.0,0.0,0.0,0.0,0.0,0.0,0.0,0.0,0.0,0.0,0.0,0.0,0.0,0.0,0.0,0.0,0.0,0.0,0.0,0.0,0.0,0.0,0.0,0.0,0.0,0.0,0.0,0.0,0.0,0.0,0.0,0.0,0.0,0.0,0.0,0.0,0.0,0.0,0.0,0.0,0.0,0.0,0.0,0.0,0.0,0.0,0.0,0.0,0.0,0.0,0.0,0.0,0.0,0.0,0.0,0.0,0.0,0.0,0.0,0.0,0.0,0.0,0.0,0.0,0.0,0.0,0.0,0.0,0.0,0.0,0.0,0.0,0.0,0.0,0.0,0.0,0.0,0.0,0.0,1.5251,1.5535,1.6411,1.6956,1.6683,1.7146,1.674,1.5109,0.0,0.0,0.0,0.0,0.0,0.0,0.0,0.0,0.0,0.0,0.0,0.0,0.0,0.0,0.0,0.0,0.0,0.0,0.0,0.0,0.0,0.0,0.0,0.0,0.0,0.0,0.0,0.0,0.0,0.0,0.0,0.0,0.0,0.0,0.0,0.0,0.0,0.0,0.0,0.0,0.0,0.0,0.0,0.0,0.0,0.0,0.0,0.0,0.0,0.0,0.0,0.0,0.0,0.0,0.0,0.0,0.0,0.0,0.0,0.0,0.0,0.0,0.0,0.0,0.0,0.0,0.0,0.0,0.0,0.0,0.0,0.0,0.0,0.0,0.0,0.0,0.0,0.0,0.0,0.0,0.0,0.0,0.0,0.0,0.0,0.0,0.0,0.0,0.0,0.0,0.0,0.0,0.0,0.0,0.0,0.0,0.0,0.0,0.0,0.0,0.0,0.0,0.0,0.0,1.4537,1.5631,1.6363,1.6629,1.6357,1.664,1.6106,1.4293,0.0,0.0,0.0,0.0,0.0,0.0,0.0,0.0,0.0,0.0,0.0,0.0,0.0,0.0,0.0,0.0,0.0,0.0,0.0,0.0,0.0,0.0,0.0,0.0,0.0,0.0,0.0,0.0,0.0,0.0,0.0,0.0,0.0,0.0,0.0,0.0,0.0,0.0,0.0,0.0,0.0,0.0,0.0,0.0,0.0,0.0,0.0,0.0,0.0,0.0,0.0,0.0,0.0,0.0,0.0,0.0,0.0,0.0,0.0,0.0,0.0,0.0,0.0,0.0,0.0,0.0,0.0,0.0,0.0,0.0,0.0,0.0,0.0,0.0,0.0,0.0,0.0,0.0,0.0,0.0,0.0,0.0,0.0,0.0,0.0,0.0,0.0,0.0,0.0,0.0,0.0,0.0,0.0,0.0,0.0,0.0,0.0,0.0,0.0,0.0,0.0,0.0,0.0,1.4252,1.4821,1.5678,1.6247,1.6428,1.6081,1.6429,1.597,1.4396,1.4132,0.0,0.0,0.0,0.0,0.0,0.0,0.0,0.0,0.0,0.0,0.0,0.0,0.0,0.0,0.0,0.0,0.0,0.0,0.0,0.0,0.0,0.0,0.0,0.0,0.0,0.0,0.0,0.0,0.0,0.0,0.0,0.0,0.0,0.0,0.0,0.0,0.0,0.0,0.0,0.0,0.0,0.0,0.0,0.0,0.0,0.0,0.0,0.0,0.0,0.0,0.0,0.0,0.0,0.0,0.0,0.0,0.0,0.0,0.0,0.0,0.0,0.0,0.0,0.0,0.0,0.0,0.0,0.0,0.0,0.0,0.0,0.0,0.0,0.0,0.0,0.0,0.0,0.0,0.0,0.0,0.0,0.0,0.0,0.0,0.0,0.0,0.0,0.0,0.0,0.0,0.0,0.0,0.0,0.0,0.0,0.0,0.0,0.0,0.0,0.0,0.0,0.0,1.4812,1.5255,1.5727,1.616,1.6205,1.5818,1.6128,1.5721,1.432,1.392,0.0,0.0,0.0,0.0,0.0,0.0,0.0,0.0,0.0,0.0,0.0,0.0,0.0,0.0,0.0,0.0,0.0,0.0,0.0,0.0,0.0,0.0,0.0,0.0,0.0,0.0,0.0,0.0,0.0,0.0,0.0,0.0,0.0,0.0,0.0,0.0,0.0,0.0,0.0,0.0,0.0,0.0,0.0,0.0,0.0,0.0,0.0,0.0,0.0,0.0,0.0,0.0,0.0,0.0,0.0,0.0,0.0,0.0,0.0,0.0,0.0,0.0,0.0,0.0,0.0,0.0,0.0,0.0,0.0,0.0,0.0,0.0,0.0,0.0,0.0,0.0,0.0,0.0,0.0,0.0,0.0,0.0,0.0,0.0,0.0,0.0,0.0,0.0,0.0,0.0,0.0,0.0,0.0,0.0,0.0,0.0,0.0,0.0,0.0,0.0,0.0,0.0,1.4756,1.5467,1.5712,1.5941,1.6023,1.5705,1.5592,1.4812,1.3309,1.3016,0.0,0.0,0.0,0.0,0.0,0.0,0.0,0.0,0.0,0.0,0.0,0.0,0.0,0.0,0.0,0.0,0.0,0.0,0.0,0.0,0.0,0.0,0.0,0.0,0.0,0.0,0.0,0.0,0.0,0.0,0.0,0.0,0.0,0.0,0.0,0.0,0.0,0.0,0.0,0.0,0.0,0.0,0.0,0.0,0.0,0.0,0.0,0.0,0.0,0.0,0.0,0.0,0.0,0.0,0.0,0.0,0.0,0.0,0.0,0.0,0.0,0.0,0.0,0.0,0.0,0.0,0.0,0.0,0.0,0.0,0.0,0.0,0.0,0.0,0.0,0.0,0.0,0.0,0.0,0.0,0.0,0.0,0.0,0.0,0.0,0.0,0.0,0.0,0.0,0.0,0.0,0.0,0.0,0.0,0.0,0.0,0.0,0.0,0.0,0.0,0.0,0.0,1.4545,1.5148,0.0,1.5609,1.5657,1.5426,1.5378,1.4735,1.3375,0.0,0.0,0.0,0.0,0.0,0.0,0.0,0.0,0.0,0.0,0.0,0.0,0.0,0.0,0.0,0.0,0.0,0.0,0.0,0.0,0.0,0.0,0.0,0.0,0.0,0.0,0.0,0.0,0.0,0.0,0.0,0.0,0.0,0.0,0.0,0.0,0.0,0.0,0.0,0.0,0.0,0.0,0.0,0.0,0.0,0.0,0.0,0.0,0.0,0.0,0.0,0.0,0.0,0.0,0.0,0.0,0.0,0.0,0.0,0.0,0.0,0.0,0.0,0.0,0.0,0.0,0.0,0.0,0.0,0.0,0.0,0.0,0.0,0.0,0.0,0.0,0.0,0.0,0.0,0.0,0.0,0.0,0.0,0.0,0.0,0.0,0.0,0.0,0.0,0.0,0.0,0.0,0.0,0.0,0.0,0.0,0.0,0.0,0.0,0.0,0.0,0.0,1.38,1.4484,1.4981,0.0,1.5505,1.5537,1.5317,1.5303,1.4686,1.3237,0.0,0.0,0.0,0.0,0.0,0.0,0.0,0.0,0.0,0.0,0.0,0.0,0.0,0.0,0.0,0.0,0.0,0.0,0.0,0.0,0.0,0.0,0.0,0.0,0.0,0.0,0.0,0.0,0.0,0.0,0.0,0.0,0.0,0.0,0.0,0.0,0.0,0.0,0.0,0.0,0.0,0.0,0.0,0.0,0.0,0.0,0.0,0.0,0.0,0.0,0.0,0.0,0.0,0.0,0.0,0.0,0.0,0.0,0.0,0.0,0.0,0.0,0.0,0.0,0.0,0.0,0.0,0.0,0.0,0.0,0.0,0.0,0.0,0.0,0.0,0.0,0.0,0.0,0.0,0.0,0.0,0.0,0.0,0.0,0.0,0.0,0.0,0.0,0.0,0.0,0.0,0.0,0.0,0.0,0.0,0.0,0.0,0.0,0.0,0.0,0.0,0.0,1.3975,1.45,1.4993,1.551,1.5601,1.5601,1.5601,1.5391,1.4508,0.0,0.0,0.0,0.0,0.0,0.0,0.0,0.0,0.0,0.0,0.0,0.0,0.0,0.0,0.0,0.0,0.0,0.0,0.0,0.0,0.0,0.0,0.0,0.0,0.0,0.0,0.0,0.0,0.0,0.0,0.0,0.0,0.0,0.0,0.0,0.0,0.0,0.0,0.0,0.0,0.0,0.0,0.0,0.0,0.0,0.0,0.0,0.0,0.0,0.0,0.0,0.0,0.0,0.0,0.0,0.0,0.0,0.0,0.0,0.0,0.0,0.0,0.0,0.0,0.0,0.0,0.0,0.0,0.0,0.0,0.0,0.0,0.0,0.0,0.0,0.0,0.0,0.0,0.0,0.0,0.0,0.0,0.0,0.0,0.0,0.0,0.0,0.0,0.0,0.0,0.0,0.0,0.0,0.0,0.0,0.0,0.0,0.0,0.0,0.0,0.0,0.0,0.0,1.3432,1.4395,1.5043,1.5224,1.5483,1.5601,1.5601,1.538,1.4763,1.3733,0.0,0.0,0.0,0.0,0.0,0.0,0.0,0.0,0.0,0.0,0.0,0.0,0.0,0.0,0.0,0.0,0.0,0.0,0.0,0.0,0.0,0.0,0.0,0.0,0.0,0.0,0.0,0.0,0.0,0.0,0.0,0.0,0.0,0.0,0.0,0.0,0.0,0.0,0.0,0.0,0.0,0.0,0.0,0.0,0.0,0.0,0.0,0.0,0.0,0.0,0.0,0.0,0.0,0.0,0.0,0.0,0.0,0.0,0.0,0.0,0.0,0.0,0.0,0.0,0.0,0.0,0.0,0.0,0.0,0.0,0.0,0.0,0.0,0.0,0.0,0.0,0.0,0.0,0.0,0.0,0.0,0.0,0.0,0.0,0.0,0.0,0.0,0.0,0.0,0.0,0.0,0.0,0.0,0.0,0.0,0.0,0.0,0.0,0.0,0.0,0.0,0.0,1.3282,1.4159,1.4799,1.5061,1.5262,1.5322,1.5202,1.5256,1.4823,1.3754,0.0,0.0,0.0,0.0,0.0,0.0,0.0,0.0,0.0,0.0,0.0,0.0,0.0,0.0,0.0,0.0,0.0,0.0,0.0,0.0,0.0,0.0,0.0,0.0,0.0,0.0,0.0,0.0,0.0,0.0,0.0,0.0,0.0,0.0,0.0,0.0,0.0,0.0,0.0,0.0,0.0,0.0,0.0,0.0,0.0,0.0,0.0,0.0,0.0,0.0,0.0,0.0,0.0,0.0,0.0,0.0,0.0,0.0,0.0,0.0,0.0,0.0,0.0,0.0,0.0,0.0,0.0,0.0,0.0,0.0,0.0,0.0,0.0,0.0,0.0,0.0,0.0,0.0,0.0,0.0,0.0,0.0,0.0,0.0,0.0,0.0,0.0,0.0,0.0,0.0,0.0,0.0,0.0,0.0,0.0,0.0,0.0,0.0,0.0,0.0,0.0,0.0,1.3412,1.3966,1.4429,1.4932,1.5013,1.4881,1.4575,1.4993,1.471,1.3337,0.0,0.0,0.0,0.0,0.0,0.0,0.0,0.0,0.0,0.0,0.0,0.0,0.0,0.0,0.0,0.0,0.0,0.0,0.0,0.0,0.0,0.0,0.0,0.0,0.0,0.0,0.0,0.0,0.0,0.0,0.0,0.0,0.0,0.0,0.0,0.0,0.0,0.0,0.0,0.0,0.0,0.0,0.0,0.0,0.0,0.0,0.0,0.0,0.0,0.0,0.0,0.0,0.0,0.0,0.0,0.0,0.0,0.0,0.0,0.0,0.9083,0.8495,0.0,0.0,0.0,0.0,0.0,0.0,0.0,0.0,0.0,0.0,0.0,0.0,0.0,0.0,0.0,0.0,0.0,0.0,0.0,0.0,0.0,0.0,0.0,0.0,0.0,0.0,0.0,0.0,0.0,0.0,0.0,0.0,0.0,0.0,0.0,0.0,0.0,0.0,0.0,0.0,1.3563,1.4224,1.47,1.4801,1.505,1.5112,1.4677,1.4706,1.46,1.4291,1.382,0.0,0.0,0.0,0.0,0.0,0.0,0.0,0.0,0.0,0.0,0.0,0.0,0.0,0.0,0.0,0.0,0.0,0.0,0.0,0.0,0.0,0.0,0.0,0.0,0.0,0.0,0.0,0.0,0.0,0.0,0.0,0.0,0.0,0.0,0.0,0.0,0.0,0.0,0.0,0.0,0.0,0.0,0.0,0.0,0.0,0.0,0.0,0.0,0.0,0.0,0.0,0.0,0.0,0.0,0.0,0.0,0.0,0.0,0.0,0.9108,0.8826,0.0,0.0,0.0,0.0,0.0,0.0,0.0,0.0,0.0,0.0,0.0,0.0,0.0,0.0,0.0,0.0,0.0,0.0,0.0,0.0,0.0,0.0,0.0,0.0,0.0,0.0,0.0,0.0,0.0,0.0,0.0,0.0,0.0,0.0,0.0,0.0,0.0,0.0,0.0,0.0,1.262,1.3366,1.3843,1.3943,1.407,1.407,1.3698,1.3726,1.3722,1.3611,1.3398,0.0,0.0,0.0,0.0,0.0,0.0,0.0,0.0,0.0,0.0,0.0,0.0,0.0,0.0,0.0,0.0,0.0,0.0,0.0,0.0,0.0,0.0,0.0,0.0,0.0,0.0,0.0,0.0,0.0,0.0,0.0,0.0,0.0,0.0,0.0,0.0,0.0,0.0,0.0,0.0,0.0,0.0,0.0,0.0,0.0,0.0,0.0,0.0,0.0,0.0,0.0,0.0,0.0,1.0146,1.029,1.0338,0.9777,0.9573,0.9561,0.8782,0.8961,0.964,0.8441,0.0,0.0,0.0,0.0,0.0,0.0,0.0,0.0,0.0,0.0,0.0,0.0,0.0,0.0,0.0,0.0,0.0,0.0,0.0,0.0,0.0,0.0,1.0819,1.0812,1.1327,1.1683,1.1177,0.0,0.0,0.0,0.0,0.0,0.0,0.0,0.0,0.0,0.0,0.0,1.1704,1.2345,1.2753,1.2976,1.2992,1.2863,1.2548,1.2709,1.2753,1.2578,1.2865,1.3472,0.0,0.0,0.0,0.0,0.0,0.0,0.0,0.0,0.0,0.0,0.0,0.0,0.0,0.0,0.0,0.0,0.0,0.0,0.0,0.0,0.0,0.0,0.0,0.0,0.0,0.0,0.0,0.0,0.0,0.0,0.0,0.0,0.6877,0.6249,0.0,0.0,0.0,0.0,0.0,0.0,0.0,0.0,0.0,0.0,0.0,0.0,0.0,0.7679,0.7459,0.8328,0.8647,0.8392,0.8851,0.9129,0.9139,0.9264,0.9421,0.9571,0.8571,0.0,0.8052,0.8248,0.0,0.0,0.0,0.0,0.0,0.0,0.0,0.0,0.0,0.0,0.0,0.0,0.0,0.0,0.0,0.0,0.0,0.0,0.0,0.0,0.0,0.0,1.1288,1.1492,1.1384,1.1349,1.1696,1.1758,1.1651,1.1243,1.1228,0.0,0.0,0.0,0.0,0.0,0.0,0.0,1.2128,1.2523,1.2824,1.2849,1.2849,1.2718,1.2339,1.2198,1.2347,1.2875,1.2826,1.3448,1.5103,1.4902,0.0,0.0,0.0,0.0,0.0,0.0,0.0,0.0,0.0,0.0,0.0,0.0,0.0,0.0,0.0,0.0,0.0,0.0,0.0,0.0,0.0,0.0,0.0,0.0,0.0,0.0,0.0,0.0,0.0,0.6679,0.6798,0.6482,0.6149,0.5772,0.0,0.0,0.0,0.0,0.0,0.0,0.0,0.0,0.0,0.5905,0.7119,0.7616,0.7224,0.803,0.8369,0.8243,0.8459,0.8714,0.9,0.8648,0.8653,0.892,0.8074,0.759,0.7544,0.7996,0.81,0.7939,0.0,0.0,0.0,0.0,0.7603,0.7679,0.6981,0.7518,0.8237,0.7398,0.0,0.0,0.0,0.0,0.0,0.0,0.0,1.174,1.2291,1.219,1.1945,1.1924,1.1548,1.1213,1.1355,1.1528,1.1673,1.1799,1.1917,1.1838,1.1256,0.0,0.0,0.0,0.0,1.0827,1.1212,1.162,1.1901,1.1901,1.1901,1.1835,1.171,1.1578,1.1693,1.2112,1.2226,1.2902,1.411,1.4399,1.4502,0.0,0.0,0.0,0.0,0.0,0.0,0.0,0.0,0.0,0.0,0.0,0.0,0.0,0.0,0.0,0.0,0.0,0.0,0.0,0.0,0.0,0.0,0.0,0.0,0.0,0.0,0.0,0.0,0.6615,0.6555,0.6555,0.6168,0.5555,0.0,0.0,0.0,0.0,0.0,0.0,0.4392,0.535,0.5702,0.5317,0.6675,0.7233,0.6726,0.7326,0.7629,0.7569,0.7604,0.7932,0.8384,0.7765,0.7778,0.8274,0.7648,0.7378,0.7455,0.7815,0.8122,0.8293,0.8543,0.8597,0.8413,0.844,0.8303,0.8054,0.7428,0.7864,0.8563,0.765,0.8001,0.8826,0.9007,0.0,0.0,0.0,0.0,1.3005,1.3625,1.3176,1.2507,1.2459,1.1891,1.136,1.1332,1.1385,1.1585,1.2037,1.2242,1.2145,1.1595,0.0,0.0,0.0,0.0,1.028,1.05,1.0819,1.1049,1.1049,1.1049,1.1049,1.1049,1.1049,1.1197,1.1532,1.1785,1.2371,1.339,1.3961,1.4238,1.4404,0.0,0.0,0.0,0.0,0.0,0.0,0.0,0.0,0.0,0.0,0.0,0.0,0.0,0.0,0.0,0.0,0.0,0.0,0.0,0.0,0.0,0.0,0.0,0.0,0.0,0.0,0.0,0.0,0.0,0.6157,0.6054,0.0,0.0,0.0,0.0,0.3147,0.2993,0.3079,0.3411,0.4017,0.4323,0.4381,0.535,0.5625,0.5095,0.5691,0.5688,0.5173,0.5628,0.6055,0.6532,0.6456,0.6974,0.7778,0.729,0.7367,0.7746,0.777,0.8002,0.8352,0.8715,0.9009,0.9269,0.9253,0.8822,0.8113,0.7378,0.7664,0.8267,0.7514,0.82,0.9485,1.0484,1.0658,0.0,0.0,1.3106,1.342,1.4035,1.3519,1.2932,1.3302,1.2665,1.1926,1.2026,1.1848,1.1619,1.1463,1.1372,1.1228,1.1009,0.0,1.0812,1.0514,1.0609,1.059,1.0514,1.0622,1.0717,1.0717,1.0717,1.0717,1.0717,1.0717,1.1049,1.1769,1.1769,1.2421,1.3783,1.3914,1.441,1.5493,1.5536,0.0,0.0,0.0,0.0,0.0,0.0,0.0,0.0,0.0,0.0,0.0,0.0,0.0,0.0,0.0,0.0,0.0,0.0,0.0,0.0,0.0,0.0,0.0,0.0,0.0,0.0,0.0,0.0,0.5767,0.5737,0.0,0.4118,0.3848,0.3614,0.3333,0.309,0.3023,0.3211,0.3418,0.3705,0.407,0.4585,0.5016,0.5196,0.5364,0.5364,0.5196,0.5381,0.5739,0.6193,0.6193,0.6536,0.706,0.7166,0.7277,0.7378,0.766,0.7941,0.832,0.8712,0.9151,0.9413,0.9416,0.9381,0.9305,0.817,0.8345,0.8957,0.8659,0.8615,0.8879,0.9921,1.0557,1.1093,1.206,1.3117,1.3958,1.3671,1.3182,1.2667,1.2377,1.1805,1.1342,1.1403,1.1432,1.1501,1.1378,1.1081,1.0862,1.1025,1.094,1.0922,1.1015,1.1036,1.0989,1.0934,1.0968,1.1002,1.1002,1.1002,1.1002,1.1002,1.1206,1.1436,1.1612,1.1902,1.2375,1.3069,1.3579,1.3964,1.4292,1.4819,1.4801,0.0,0.0,0.0,0.0,0.0,0.0,0.0,0.0,0.0,0.0,0.0,0.0,0.0,0.0,0.0,0.0,0.0,0.0,0.0,0.0,0.0,0.0,0.0,0.0,0.0,0.5531,0.5433,0.4767,0.5334,0.5063,0.3313,0.3475,0.331,0.2484,0.232,0.2207,0.2064,0.216,0.2505,0.2943,0.3529,0.4127,0.4574,0.4909,0.5075,0.5075,0.5263,0.5625,0.6087,0.5834,0.6002,0.6508,0.6485,0.668,0.7024,0.7353,0.7733,0.8238,0.8625,0.8988,0.9292,0.9263,0.9268,0.9228,0.8301,0.8457,0.9051,0.9056,0.8808,0.8664,0.9464,1.0346,1.1148,1.1673,1.2807,1.3774,1.3253,1.2727,1.2278,1.1888,1.146,1.108,1.1201,1.1234,1.1346,1.1305,1.1016,1.0909,1.1186,1.1094,1.1064,1.1345,1.1307,1.1219,1.1241,1.1234,1.1234,1.1234,1.1234,1.1234,1.1234,1.1324,1.146,1.1496,1.1923,1.2172,1.2342,1.3046,1.3392,1.3336,1.4271,1.4437,1.3722,0.0,0.0,0.0,0.0,0.0,0.0,0.0,0.0,0.0,0.0,0.0,0.0,0.0,0.0,0.0,0.0,0.0,0.0,0.0,0.0,0.0,0.0,0.0,0.4031,0.4776,0.4701,0.3311,0.4832,0.4916,0.1976,0.2507,0.2319,0.0641,0.0567,0.0407,-0.0081,0.0244,0.0655,0.1159,0.2093,0.2779,0.32,0.4216,0.4731,0.463,0.5195,0.5651,0.5989,0.5135,0.5221,0.5992,0.5105,0.5529,0.6836,0.6836,0.7348,0.8174,0.8319,0.8612,0.9002,0.8908,0.8393,0.7752,0.7756,0.7986,0.838,0.8786,0.8795,0.8885,0.9307,1.013,1.0946,1.1382,1.2221,1.2862,1.2869,1.2234,1.1678,1.2086,1.1694,1.1265,1.1547,1.1376,1.1178,1.0982,1.1075,1.1201,1.1384,1.1408,1.1414,1.1426,1.143,0.0,1.1226,1.1206,1.1275,1.1199,1.1268,1.1268,1.1261,1.107,1.1125,1.1525,1.1849,1.1918,1.1829,1.2306,1.2641,1.2798,1.4028,1.4325,1.3587,0.0,0.0,0.0,0.0,0.0,0.0,0.0,0.0,0.0,0.0,0.0,0.0,0.0,0.0,0.0,0.0,0.0,0.0,0.0,0.0,0.0,0.3656,0.3831,0.3973,0.4238,0.4111,0.3567,0.3944,0.3546,0.1532,0.1536,0.1222,0.0083,0.0083,0.0,-0.0084,-0.034,-0.0256,0.0257,0.1203,0.1894,0.2325,0.3639,0.4072,0.379,0.392,0.3939,0.3675,0.3501,0.3501,0.3762,0.4094,0.4684,0.5445,0.6483,0.7001,0.7327,0.7901,0.8405,0.882,0.8792,0.8574,0.8358,0.8427,0.8199,0.8012,0.849,0.8446,0.8211,0.8955,0.9286,0.9612,1.0121,1.1097,1.1838,1.1288,1.1481,1.1673,1.1194,1.0992,1.0843,1.0892,1.0915,1.0843,1.081,1.0831,1.0871,1.1098,1.1053,1.1029,1.1382,1.158,0.0,1.1609,1.191,1.2094,1.1993,1.2074,1.2047,1.1903,1.1877,1.1823,1.1749,1.1911,1.217,1.2345,1.2525,1.2835,1.3381,1.3705,1.3736,0.0,0.0,0.0,0.0,0.0,0.0,0.0,0.0,0.0,0.0,0.0,0.0,0.0,0.0,0.0,0.0,0.0,0.0,0.0,0.0,0.0,0.0,0.3389,0.3276,0.3177,0.3396,0.3351,0.268,0.2723,0.2199,0.0582,0.0585,0.0168,-0.0937,-0.1109,-0.1371,-0.1559,-0.2006,-0.2103,-0.1848,-0.0973,-0.0266,0.0266,0.1602,0.232,0.223,0.2694,0.2792,0.2522,0.2522,0.2516,0.2504,0.2845,0.3449,0.4312,0.5345,0.6121,0.6718,0.0,0.0,0.0,0.0,0.8558,0.8707,0.8435,0.8301,0.8159,0.8259,0.8117,0.7888,0.8409,0.8857,0.9231,0.9603,1.0469,1.1186,1.0597,1.087,1.1037,1.0388,1.0309,1.0467,1.0414,1.057,1.0737,1.0737,1.0737,0.0,1.0885,1.0873,1.0957,1.1239,1.1467,1.1572,1.1572,1.196,1.2159,1.2079,1.2377,1.2433,1.2264,1.2271,0.0,0.0,0.0,1.2524,1.2749,1.2692,0.0,0.0,0.0,0.0,0.0,0.0,0.0,0.0,1.3794,1.4487,0.0,0.0,0.0,0.0,0.0,0.0,0.0,0.0,0.0,0.0,0.0,0.0,0.0,0.0,0.0,0.0,0.2696,0.2393,0.2001,0.239,0.2304,0.1205,0.1403,0.0926,-0.0846,-0.0688,-0.0958,-0.2273,-0.2707,-0.3158,-0.3638,-0.4174,0.0,0.0,0.0,-0.3011,-0.2464,-0.1013,-0.0093,0.037,0.1295,0.1758,0.1666,0.1758,0.1749,0.1643,0.137,0.1998,0.3239,0.3833,0.4881,0.6378,0.7683,0.7992,0.7626,0.79,0.8395,0.8696,0.8119,0.0,0.0,0.8078,0.7909,0.786,0.7942,0.8518,0.9277,0.938,1.0073,1.066,1.0325,1.0239,1.0214,0.9687,0.9833,1.0148,1.0047,1.0362,1.0608,1.0691,1.0686,1.0675,1.0675,1.0902,1.0993,1.1155,1.1191,1.1197,1.1197,1.1588,1.1816,1.1797,1.222,0.0,1.2478,1.2467,1.24,1.2366,1.2755,1.2908,1.2887,1.296,1.3108,1.3353,1.4197,1.4908,1.5341,1.569,1.6024,1.63,1.5308,1.6071,0.0,0.0,0.0,0.0,0.0,0.0,0.0,0.0,0.0,0.0,0.0,0.0,0.0,0.0,0.0,0.3519,0.3249,0.2883,0.2488,0.1663,0.0665,-0.025,0.0,-0.0595,-0.2793,-0.2615,-0.2725,-0.3877,-0.4035,-0.4138,-0.4308,-0.5226,-0.5686,-0.5697,-0.5156,-0.4608,-0.4054,-0.2216,-0.1294,-0.1203,-0.0555,0.0,-0.0833,-0.0833,-0.0833,-0.0739,0.0,0.0645,0.1379,0.2662,0.4216,0.6024,0.7223,0.7645,0.7641,0.7694,0.8035,0.8301,0.7839,0.8011,0.8354,0.8179,0.8134,0.8125,0.8142,0.8243,0.0,0.8543,0.8921,0.9366,0.9284,0.9544,0.9793,0.9688,0.9769,0.9764,0.974,0.9826,0.9997,1.0345,1.0359,1.0461,1.0799,1.0764,1.0733,1.0771,1.1089,1.1335,1.1335,1.1752,1.1949,1.1838,1.244,1.2768,1.2342,1.2822,1.3085,1.2847,1.3015,1.3109,1.2992,1.3958,1.446,1.426,1.5554,1.6168,1.6119,1.6349,1.6462,1.6519,1.6171,1.6664,0.0,0.0,0.0,0.0,0.0,0.0,0.0,0.0,0.0,0.0,0.0,0.3406,0.3428,0.0,0.3048,0.3335,0.2726,0.2145,0.2014,0.0764,-0.0257,-0.077,-0.1203,-0.2,-0.3465,-0.3652,-0.3953,-0.4768,-0.4844,-0.5047,-0.559,-0.6151,-0.6616,-0.7081,-0.6646,-0.6269,-0.5959,-0.4585,-0.3566,-0.3098,-0.2349,-0.1973,-0.188,-0.1598,-0.15,-0.1492,-0.0928,-0.037,0.0463,0.1933,0.3397,0.4855,0.592,0.6764,0.747,0.7604,0.7853,0.8105,0.8019,0.8193,0.8387,0.8297,0.8264,0.8264,0.8264,0.8301,0.8428,0.8652,0.8961,0.9171,0.9171,0.9347,0.9421,0.9197,0.927,0.9431,0.938,0.9539,0.9803,1.0325,1.0366,1.0415,1.0923,1.096,1.0878,1.0753,1.0953,1.1165,1.1165,1.1585,1.1837,1.1837,1.2318,1.2642,1.2663,1.3281,1.3559,1.341,1.3464,1.3478,1.3403,1.4287,1.4795,1.4974,1.5895,1.6457,1.6706,1.6893,1.6982,1.6982,1.6974,1.7259,0.0,0.0,0.0,0.0,0.0,0.0,0.0,0.3439,0.2932,0.3011,0.3229,0.345,0.3553,0.3007,0.2602,0.2985,0.2068,0.1265,0.1103,-0.0086,-0.1051,-0.1316,-0.2295,-0.3296,-0.4058,-0.4458,-0.4956,-0.5469,-0.5474,-0.5874,-0.6795,-0.6789,-0.7165,-0.7931,-0.7788,-0.7683,-0.7531,-0.6737,-0.5908,-0.4861,-0.4004,-0.3243,-0.2574,-0.2098,-0.1899,-0.1789,-0.1683,-0.1118,-0.0093,0.1384,0.2482,0.3403,0.432,0.5592,0.6935,0.7418,0.7646,0.7781,0.8017,0.8185,0.8393,0.8391,0.8362,0.8362,0.8362,0.8411,0.8569,0.8955,0.9108,0.9173,0.9191,0.9195,0.9084,0.8635,0.8787,0.9026,0.8926,0.9252,0.9604,1.013,1.0202,1.0361,1.0875,1.0945,1.095,1.084,1.0889,1.0954,1.0954,1.1294,1.1504,1.1607,1.1977,1.2393,1.3098,1.3515,1.3838,1.3838,1.3838,1.3838,1.3838,1.43,1.4894,1.5451,1.5953,1.6498,1.7161,1.7348,1.7437,1.7437,1.7575,1.7687,0.5375,0.5898,0.6162,0.4723,0.4269,0.3806,0.0,0.2041,0.2068,0.2478,0.2951,0.3419,0.3711,0.3419,0.3061,0.2707,0.1858,0.102,0.0263,-0.0799,-0.1973,-0.326,-0.351,-0.4154,-0.5523,-0.5721,-0.6025,-0.6556,-0.6655,-0.6713,-0.6936,-0.6884,-0.6976,-0.7134,-0.7936,-0.8091,-0.7606,-0.7521,-0.6954,-0.5908,-0.5339,-0.4577,-0.3624,-0.3529,-0.3337,-0.2857,-0.2377,-0.1616,-0.0665,0.0474,0.1518,0.2467,0.3132,0.4222,0.5539,0.6454,0.6922,0.727,0.7411,0.766,0.8037,0.8397,0.8456,0.8456,0.8456,0.8464,0.8505,0.875,0.8804,0.8829,0.8911,0.8932,0.8911,0.8726,0.8705,0.8681,0.8684,0.8668,0.8842,0.9375,0.9304,0.9504,1.0467,1.0565,1.0579,1.0983,1.1074,1.1079,1.1079,1.1085,1.1171,1.1187,1.1703,1.237,1.3259,1.3661,1.3838,1.3838,1.3838,1.3838,1.3838,1.4405,1.501,1.5451,1.6271,1.6886,1.7356,1.7526,1.7616,1.7616,1.7632,1.7599,0.5103,0.5434,0.5451,0.4112,0.3914,0.3625,0.2485,0.222,0.2334,0.2508,0.2566,0.2611,0.2767,0.2187,0.1696,0.1465,0.0692,0.0,-0.0445,-0.1799,-0.3097,-0.3703,-0.4803,-0.5734,-0.6343,-0.6752,-0.7162,-0.7666,-0.7521,-0.7551,-0.7763,-0.7489,-0.7413,-0.7446,-0.7797,-0.8067,-0.8163,-0.7735,-0.7239,-0.6571,-0.6003,-0.5242,-0.4291,-0.4291,-0.3993,-0.3499,-0.2647,-0.1985,-0.1513,-0.0567,0.0284,0.104,0.189,0.2717,0.3608,0.518,0.6207,0.6819,0.7121,0.738,0.7524,0.8025,0.8191,0.8191,0.8461,0.855,0.849,0.834,0.828,0.8304,0.8389,0.8412,0.8496,0.8732,0.8815,0.8803,0.8771,0.8762,0.8928,0.9329,0.937,0.9505,1.015,1.046,1.0605,1.0869,1.1073,1.1199,1.1199,1.1199,1.1199,1.1199,1.2009,1.2702,1.3054,1.3705,1.4109,1.4109,1.4109,1.4109,1.4109,1.4345,1.4731,1.5162,1.5912,1.6398,1.6495,1.712,1.7246,1.6888,1.698,1.7119,0.5017,0.5158,0.4917,0.37,0.3572,0.358,0.2585,0.2387,0.2424,0.2431,0.221,0.1978,0.1726,0.0947,0.0431,0.0263,-0.053,-0.1158,-0.117,-0.2735,-0.3973,-0.4219,-0.5834,-0.7071,-0.7259,-0.7609,-0.8031,-0.8413,-0.8181,-0.8114,-0.848,-0.7821,-0.7559,-0.7599,-0.7562,-0.7735,-0.831,-0.7943,-0.7619,-0.7046,-0.6669,-0.5908,-0.4766,-0.448,-0.4179,-0.3774,-0.2831,-0.2358,-0.217,-0.1321,-0.0566,0.0094,0.0849,0.15,0.2323,0.3623,0.4857,0.6036,0.6777,0.7028,0.7087,0.7556,0.7743,0.7832,0.8106,0.8211,0.825,0.7966,0.7896,0.7915,0.7902,0.811,0.8288,0.8636,0.8817,0.8901,0.8877,0.8873,0.8944,0.9247,0.9325,0.9485,0.986,1.0296,1.0645,1.0704,1.1104,1.14,1.133,1.1324,1.1324,1.1324,1.2196,1.2787,1.2875,1.3679,1.4122,1.4299,1.434,1.434,1.4299,1.438,1.4579,1.5063,1.5614,1.5994,1.6002,1.6735,1.6872,1.6509,1.6629,1.6681,0.502,0.5195,0.4855,0.3358,0.3401,0.3511,0.2256,0.2034,0.2143,0.208,0.2085,0.1831,0.0881,0.035,-0.0088,-0.0626,-0.1524,-0.216,-0.2185,-0.3522,-0.4691,-0.5164,-0.6627,-0.7806,-0.828,-0.845,-0.8499,-0.8499,-0.8503,-0.8574,-0.8731,-0.7619,-0.7122,-0.7252,-0.7128,-0.7253,-0.7735,-0.8134,-0.8094,-0.7619,-0.7524,-0.6764,-0.5244,-0.4291,-0.3815,-0.3815,-0.3242,-0.2765,-0.2287,-0.1716,-0.0858,0.0,0.0,0.0947,0.216,0.169,0.2687,0.4557,0.6075,0.6565,0.6646,0.7168,0.7286,0.7286,0.7376,0.7428,0.7408,0.748,0.75,0.7517,0.7592,0.7992,0.8353,0.8274,0.8629,0.8979,0.8889,0.8873,0.8869,0.8961,0.8961,0.9048,0.9504,0.9963,1.048,1.0836,1.1362,1.1716,1.1482,1.1449,1.1449,1.1449,1.1899,1.2432,1.2875,1.3325,1.3856,1.4299,1.4428,1.4441,1.4306,1.4577,1.484,1.5227,1.5526,1.5966,1.6427,1.6591,1.6673,1.6673,1.6673,1.6681,0.468,0.4989,0.477,0.3377,0.3323,0.3173,0.1864,0.1545,0.1645,0.1651,0.1218,0.0695,0.0346,-0.0603,-0.1469,-0.2018,-0.2667,-0.325,-0.3583,-0.4498,-0.5311,-0.5784,-0.6887,-0.7865,-0.8383,-0.8745,-0.8988,-0.8988,-0.9039,-0.8997,-0.8667,-0.8376,-0.7807,-0.7259,-0.7074,-0.7125,-0.7222,-0.7301,-0.7338,-0.7147,-0.6764,-0.6288,-0.5813,-0.5149,-0.4673,-0.4291,-0.3815,-0.3243,-0.2766,-0.2288,-0.1812,-0.143,-0.0763,-0.019,0.0284,0.113,0.1777,0.2599,0.441,0.5101,0.5251,0.6404,0.6793,0.6831,0.7195,0.734,0.7323,0.7023,0.6945,0.6964,0.7128,0.7242,0.7426,0.7778,0.8243,0.8613,0.8582,0.8766,0.9032,0.8975,0.8962,0.9035,0.9157,0.9788,1.0606,1.1399,1.1565,1.1574,1.1574,1.1504,1.1487,1.1569,1.2023,1.2327,1.2589,1.3409,1.3777,1.359,1.4269,1.4457,1.4139,1.4504,1.4713,1.4847,1.5406,1.5611,1.5433,1.5953,1.6025,1.5744,1.5744,1.5744,0.4475,0.4796,0.449,0.3203,0.2881,0.2616,0.1365,0.1032,0.0865,0.0951,0.0345,-0.0257,-0.0766,-0.1786,-0.2653,-0.3226,-0.3739,-0.4181,-0.436,-0.5002,-0.553,-0.6003,-0.7112,-0.7907,-0.8428,-0.8956,-0.9281,-0.9281,-0.9387,-0.926,-0.8966,-0.8822,-0.8357,-0.7563,-0.7193,-0.7049,-0.7025,-0.6917,-0.6862,-0.6862,-0.6384,-0.6003,-0.5813,-0.5242,-0.4766,-0.4291,-0.3815,-0.3338,-0.3052,-0.2766,-0.2479,-0.2193,-0.1621,-0.124,-0.0953,0.0189,0.0661,0.0942,0.3056,0.385,0.4005,0.5354,0.5738,0.5953,0.6595,0.6844,0.6836,0.6594,0.6512,0.6521,0.6565,0.6767,0.6957,0.7242,0.7714,0.8094,0.8094,0.8474,0.8838,0.8782,0.8958,0.9036,0.9258,1.005,1.0966,1.1846,1.1737,1.1612,1.1694,1.1634,1.1612,1.1694,1.1977,1.2187,1.2438,1.3272,1.3547,1.3181,1.4055,1.4245,1.3736,1.429,1.4593,1.4546,1.5149,1.5317,1.4766,1.514,1.5208,1.4979,1.4925,1.502,0.4412,0.4478,0.3954,0.2749,0.2234,0.1687,0.0853,0.0342,0.0,0.0,-0.0339,-0.1092,-0.235,-0.3108,-0.3654,-0.412,-0.4756,-0.5043,-0.4587,-0.5024,-0.5537,-0.6106,-0.7122,-0.8035,-0.851,-0.8996,-0.9285,-0.9281,-0.944,-0.9534,-0.9633,-0.915,-0.8658,-0.8257,-0.759,-0.7226,-0.7163,-0.6994,-0.6862,-0.6767,-0.6288,-0.5813,-0.5244,-0.4861,-0.4291,-0.3817,-0.3338,-0.3148,-0.3148,-0.3148,-0.2766,-0.2384,-0.2288,-0.2002,-0.1526,-0.1049,-0.0858,-0.0476,0.1981,0.2784,0.3016,0.3965,0.444,0.4627,0.5557,0.5915,0.6098,0.6098,0.6098,0.6098,0.6098,0.6479,0.6862,0.6862,0.7242,0.7524,0.7524,0.7999,0.8375,0.8379,0.8763,0.9237,0.9806,1.0667,1.1382,1.2062,1.1982,1.1835,1.183,1.1824,1.1824,1.183,1.183,1.2008,1.2466,1.2925,1.3199,1.3108,1.3789,1.3894,1.3205,1.4001,1.4364,1.4143,1.4832,1.4899,1.4328,1.4328,1.45,1.4629,1.4487,1.4783,0.2817,0.2752,0.2421,0.211,0.1571,0.0844,0.0341,-0.017,-0.0592,-0.1267,-0.1758,-0.2232,-0.2843,-0.3942,-0.4762,-0.4673,-0.5451,-0.6005,-0.5615,-0.5852,-0.6332,-0.7304,-0.7662,-0.8176,-0.9087,-0.9278,-0.935,-0.9285,-0.9379,-0.993,-1.1104,-1.0857,-1.0708,-1.0923,-1.033,-0.9785,-0.9371,-0.8067,-0.6862,-0.572,-0.6003,-0.5813,-0.5339,-0.5149,-0.4673,-0.3817,-0.372,-0.3434,-0.3148,-0.3148,-0.3052,-0.2862,-0.2479,-0.2193,-0.2002,-0.1526,-0.1144,-0.0667,-0.0095,0.0848,0.1956,0.2965,0.3812,0.4489,0.4304,0.5096,0.6003,0.5622,0.5813,0.6098,0.6098,0.6193,0.6288,0.6288,0.6672,0.7052,0.7052,0.7429,0.7904,0.8284,0.8763,0.9427,1.0375,1.0635,1.1003,1.1505,1.193,1.2047,1.1955,1.1873,1.1851,1.1938,1.1944,1.2075,1.2256,1.2736,1.2829,1.2455,1.3327,1.3615,1.3017,1.3921,1.4222,1.3821,1.4315,1.4335,1.387,1.387,1.3889,1.392,1.426,1.4442,0.2221,0.2216,0.187,0.1708,0.0989,0.0251,-0.0167,-0.075,-0.1407,-0.2046,-0.254,-0.3098,-0.3584,-0.4383,-0.508,-0.5102,-0.5706,-0.6087,-0.6022,-0.6136,-0.6489,-0.7265,-0.7648,-0.819,-0.9021,-0.931,-0.9501,-0.9688,-0.9501,-0.9971,-1.1284,-1.1294,-1.1239,-1.1373,-1.1163,-1.014,-0.8414,-0.7151,-0.6074,-0.4956,-0.5503,-0.56,-0.5339,-0.5054,-0.4577,-0.3817,-0.3624,-0.3338,-0.3148,-0.3148,-0.3148,-0.3052,-0.2766,-0.267,-0.2574,-0.2002,-0.1716,-0.143,-0.1144,-0.0475,0.0661,0.1869,0.2805,0.3569,0.3665,0.4541,0.5337,0.5051,0.5242,0.5527,0.5718,0.5718,0.5813,0.6003,0.6288,0.6577,0.6577,0.6957,0.7429,0.7904,0.8664,0.9328,0.9896,1.037,1.0753,1.1037,1.1321,1.1579,1.1699,1.1921,1.1998,1.2063,1.2069,1.2096,1.2167,1.2644,1.2739,1.2267,1.2928,1.3116,1.2644,1.3299,1.3582,1.3305,1.387,1.387,1.3305,1.3305,1.3335,1.3489,1.3895,1.4272,0.1839,0.1818,0.1379,0.1136,0.0409,-0.0329,-0.065,-0.1458,-0.2174,-0.2598,-0.3113,-0.3707,-0.4416,-0.4768,-0.5096,-0.5682,-0.5907,-0.5993,-0.6146,-0.6283,-0.6484,-0.6982,-0.7575,-0.8242,-0.8743,-0.9111,-0.9628,-1.0128,-0.9632,-0.9827,-1.0811,-1.1006,-1.103,-1.0926,-1.0998,-0.9486,-0.6269,-0.5656,-0.5094,-0.4565,-0.4999,-0.5193,-0.5244,-0.4861,-0.4385,-0.391,-0.3434,-0.3338,-0.3338,-0.3243,-0.3148,-0.3148,-0.3148,-0.3148,-0.3052,-0.2574,-0.2384,-0.2193,-0.1812,-0.1335,-0.0666,0.0661,0.16,0.2353,0.3201,0.3882,0.448,0.448,0.4575,0.4671,0.5149,0.5244,0.5339,0.5908,0.6003,0.6003,0.6098,0.6482,0.7052,0.7429,0.828,0.894,0.9023,0.978,1.0441,1.0432,1.0536,1.0729,1.1013,1.1689,1.2078,1.2172,1.2172,1.2172,1.2172,1.255,1.2644,1.2267,1.255,1.2644,1.2267,1.255,1.2839,1.2856,1.3317,1.3222,1.2762,1.2744,1.2796,1.2898,1.3358,1.3932,0.0307,-0.0157,-0.0642,-0.0321,-0.0964,-0.1605,-0.1585,-0.2055,-0.2598,-0.3335,-0.3944,-0.4551,-0.5353,-0.5898,-0.6314,-0.6495,-0.6942,-0.7184,-0.6646,-0.7014,-0.738,-0.7599,-0.8123,-0.875,-0.9316,-0.929,-0.9371,-0.9629,-0.9322,-0.9785,-1.1281,-1.1202,-1.1265,-1.162,-1.1544,-0.9963,-0.6676,-0.6196,-0.5446,-0.4518,-0.47,-0.491,-0.5339,-0.5244,-0.4958,-0.448,-0.4385,-0.4385,-0.429,-0.3815,-0.372,-0.3624,-0.3243,-0.3148,-0.3052,-0.2957,-0.267,-0.2288,-0.2193,-0.1812,-0.1239,-0.0666,0.0476,0.1712,0.1807,0.2855,0.3907,0.391,0.4291,0.4575,0.4671,0.4766,0.4861,0.5339,0.5435,0.553,0.6003,0.6482,0.6957,0.7052,0.7429,0.8072,0.8852,0.884,0.8812,0.9208,0.9635,0.9777,0.95,1.0696,1.17,1.2172,1.2172,1.2172,1.2172,1.2267,1.2267,1.2172,1.2267,1.2267,1.2172,1.2267,1.2411,1.251,1.2506,1.2221,1.1841,1.2126,1.2088,1.1726,1.2656,1.3128,-0.0378,-0.0617,-0.0865,-0.0633,-0.1104,-0.1644,-0.2009,-0.2236,-0.2765,-0.3715,-0.4188,-0.4655,-0.5534,-0.5925,-0.6253,-0.6573,-0.6989,-0.7047,-0.6614,-0.7084,-0.7561,-0.7711,-0.8246,-0.8772,-0.9306,-0.9371,-0.9383,-0.9465,-0.9354,-0.978,-1.1076,-1.1221,-1.1348,-1.1353,-1.0422,-0.8755,-0.638,-0.588,-0.523,-0.4506,-0.4763,-0.5167,-0.5718,-0.5435,-0.5149,-0.4956,-0.4671,-0.4575,-0.4575,-0.429,-0.4006,-0.3817,-0.3529,-0.3338,-0.3148,-0.3148,-0.2957,-0.2671,-0.2671,-0.2384,-0.1907,-0.1621,-0.0763,0.0381,0.0954,0.1811,0.2764,0.3243,0.3624,0.3909,0.4101,0.4196,0.4291,0.4863,0.5149,0.5339,0.5622,0.6098,0.647,0.6441,0.681,0.735,0.7742,0.7821,0.7899,0.8043,0.8351,0.8656,0.8934,0.967,1.0597,1.1694,1.1794,1.1889,1.2172,1.2172,1.2172,1.2172,1.2172,1.2078,1.1794,1.1794,1.1726,1.1497,1.1441,1.1347,1.1116,1.1536,1.1605,1.1416,1.2456,1.2928,-0.104,-0.1056,-0.1228,-0.1243,-0.139,-0.1754,-0.2486,-0.2635,-0.2931,-0.3932,-0.4337,-0.4743,-0.5556,-0.5849,-0.6084,-0.668,-0.6975,-0.7001,-0.6764,-0.7327,-0.771,-0.7767,-0.8237,-0.8772,-0.9084,-0.9128,-0.918,-0.9236,-0.924,-0.9624,-1.0383,-1.0647,-1.0725,-1.0347,-0.8933,-0.7487,-0.6008,-0.5404,-0.4939,-0.4695,-0.4939,-0.5433,-0.6098,-0.5622,-0.5435,-0.5435,-0.5051,-0.4956,-0.4956,-0.4766,-0.4482,-0.4101,-0.391,-0.3529,-0.3243,-0.3148,-0.3148,-0.3148,-0.3148,-0.2862,-0.2479,-0.2479,-0.1812,-0.0763,0.0191,0.0668,0.124,0.2384,0.2766,0.2862,0.3529,0.3624,0.3815,0.429,0.4768,0.5149,0.5244,0.5625,0.599,0.6041,0.6398,0.6646,0.6669,0.6921,0.7088,0.7164,0.7174,0.7555,0.8289,0.8644,0.9385,1.0705,1.1117,1.1416,1.1983,1.2078,1.2078,1.2172,1.2172,1.1994,1.1452,1.1357,1.1082,1.0725,1.0702,1.0692,1.0692,1.1331,1.151,1.1416,1.2361,1.2739,-0.229,-0.2605,-0.3138,-0.3255,-0.3011,-0.3048,-0.374,-0.369,-0.3635,-0.4026,-0.4473,-0.503,-0.6002,-0.6237,-0.6605,-0.7647,-0.7928,-0.7944,-0.7673,-0.8238,-0.8449,-0.8158,-0.8723,-0.8901,-0.8591,-0.8534,-0.8591,-0.8822,-0.8841,-0.8906,-0.8927,-0.8764,-0.8523,-0.8128,-0.7855,-0.7204,-0.6102,-0.516,-0.4879,-0.5261,-0.4879,-0.5186,-0.6098,-0.6003,-0.6003,-0.6003,-0.6003,-0.6003,-0.5908,-0.5432,-0.5244,-0.5054,-0.4196,-0.3817,-0.372,-0.3243,-0.3148,-0.3148,-0.3148,-0.3052,-0.3052,-0.3052,-0.2288,-0.1335,-0.0858,-0.0667,-0.0286,0.124,0.1621,0.1907,0.2862,0.3148,0.3243,0.372,0.4291,0.4766,0.5244,0.5339,0.5527,0.5998,0.6049,0.6179,0.6577,0.6241,0.6093,0.6482,0.6615,0.6747,0.6838,0.7636,0.8551,0.9199,1.0131,1.0943,1.1416,1.151,1.17,1.2172,1.2172,1.2031,1.1468,1.1089,1.0844,1.0935,1.0849,1.0802,1.0802,1.1657,1.1889,1.1416,1.1983,1.2267,-0.321,-0.3441,-0.3603,-0.3457,-0.3498,-0.3664,-0.4246,-0.4097,-0.3879,-0.4318,-0.4603,-0.4977,-0.5944,-0.6128,-0.6474,-0.7118,-0.7805,-0.7925,-0.7209,-0.8141,-0.8688,-0.8154,-0.8633,-0.8908,-0.8516,-0.8443,-0.8421,-0.8274,-0.7904,-0.7666,-0.7682,-0.7914,-0.7797,-0.7349,-0.7183,-0.6828,-0.6011,-0.5636,-0.5542,-0.573,-0.5542,-0.5664,-0.6098,-0.6098,-0.6098,-0.6098,-0.6098,-0.6288,-0.6577,-0.6003,-0.5622,-0.5244,-0.4577,-0.391,-0.3338,-0.3148,-0.3148,-0.3148,-0.3148,-0.304,-0.3025,-0.2742,-0.2551,-0.2271,-0.1428,-0.124,-0.0954,0.0286,0.0572,0.0858,0.1907,0.2574,0.3148,0.3338,0.4006,0.4671,0.4861,0.5337,0.5792,0.5912,0.5976,0.5927,0.601,0.5883,0.5769,0.6013,0.603,0.6134,0.6494,0.6955,0.7501,0.7992,0.9233,1.0329,1.0933,1.0879,1.1058,1.1694,1.1762,1.1729,1.1584,1.1452,1.1284,1.0878,1.0835,1.0787,1.0721,1.1436,1.1605,1.1416,1.1983,1.2172,-0.3969,-0.427,-0.4369,-0.4052,-0.3942,-0.41,-0.4635,-0.4317,-0.4007,-0.4466,-0.4594,-0.4947,-0.582,-0.6108,-0.6379,-0.7119,-0.7797,-0.8156,-0.7694,-0.8539,-0.9018,-0.8627,-0.874,-0.8656,-0.8109,-0.8046,-0.7938,-0.7585,-0.7224,-0.6905,-0.674,-0.7106,-0.7096,-0.6714,-0.6669,-0.6432,-0.6014,-0.6014,-0.6022,-0.6038,-0.6038,-0.606,-0.6098,-0.6098,-0.6098,-0.6098,-0.5908,-0.6185,-0.655,-0.59,-0.5517,-0.5223,-0.4571,-0.391,-0.3243,-0.3148,-0.3148,-0.3051,-0.2946,-0.2835,-0.2724,-0.2255,-0.2251,-0.2437,-0.1893,-0.1713,-0.1526,-0.0668,-0.0191,0.0191,0.0858,0.1812,0.267,0.267,0.3527,0.4385,0.4575,0.5242,0.5884,0.5989,0.5946,0.5902,0.5834,0.5777,0.5747,0.5766,0.5752,0.5831,0.6186,0.6447,0.6797,0.7111,0.8385,0.9455,1.0121,1.0259,1.053,1.1077,1.1282,1.1261,1.1104,1.1366,1.1177,1.0628,1.0816,1.0955,1.0943,1.1416,1.1605,1.1605,1.1983,1.2172,-0.471,-0.5251,-0.5923,-0.5358,-0.4549,-0.4218,-0.5003,-0.4529,-0.3995,-0.4415,-0.4531,-0.4881,-0.5742,-0.6029,-0.6561,-0.7968,-0.8234,-0.8719,-0.9775,-0.9666,-0.9554,-0.9762,-0.9078,-0.8312,-0.748,-0.7131,-0.7032,-0.6871,-0.6926,-0.674,-0.6101,-0.6046,-0.6016,-0.6016,-0.6014,-0.6014,-0.6014,-0.6014,-0.6041,-0.6098,-0.6098,-0.6098,-0.6098,-0.6098,-0.6098,-0.6098,-0.553,-0.5595,-0.5925,-0.5031,-0.4833,-0.5078,-0.4181,-0.3817,-0.372,-0.3243,-0.3148,-0.3048,-0.2451,-0.2349,-0.2255,-0.1691,-0.1494,-0.1578,-0.2061,-0.2271,-0.2193,-0.1621,-0.0763,0.0,0.0,0.0763,0.1526,0.1526,0.267,0.391,0.448,0.4958,0.5432,0.6,0.6003,0.5943,0.6,0.5861,0.576,0.5823,0.5779,0.5741,0.5741,0.6189,0.66,0.6737,0.7513,0.8263,0.8995,0.9475,1.0035,1.0502,1.0602,1.0516,1.0042,1.0528,1.0532,1.0047,1.1008,1.1433,1.1416,1.1889,1.2172,1.2172,1.2172,1.2172,-0.5001,-0.5228,-0.5398,-0.5074,-0.4786,-0.4626,-0.4986,-0.4612,-0.424,-0.4417,-0.4471,-0.4741,-0.5307,-0.5507,-0.5876,-0.6718,-0.7357,-0.7978,-0.8588,-0.9054,-0.9304,-0.8878,-0.7986,-0.7257,-0.7074,-0.6666,-0.6215,-0.5818,-0.5831,-0.5643,-0.5147,-0.5004,-0.5167,-0.5448,-0.5787,-0.5973,-0.6014,-0.5636,-0.5664,-0.6098,-0.5718,-0.5718,-0.6098,-0.6098,-0.6098,-0.6098,-0.553,-0.5782,-0.6486,-0.5126,-0.4833,-0.5078,-0.4181,-0.3624,-0.3338,-0.3148,-0.2849,-0.2548,-0.2352,-0.2235,-0.2118,-0.1657,-0.1929,-0.2383,-0.2208,-0.2225,-0.2245,-0.2449,-0.1802,-0.1049,-0.1049,-0.0286,0.0572,0.0954,0.1621,0.2384,0.2956,0.3718,0.4367,0.4868,0.5203,0.5531,0.5746,0.5779,0.5747,0.5766,0.5752,0.5741,0.5741,0.5867,0.5999,0.6038,0.6977,0.7859,0.8439,0.8914,0.9475,1.003,1.0194,1.0399,1.0528,1.1246,1.148,1.1212,1.1963,1.2202,1.2106,1.2297,1.2254,1.2172,1.2172,1.2172,-0.467,-0.4981,-0.5167,-0.4778,-0.4612,-0.4582,-0.4709,-0.4535,-0.4292,-0.4352,-0.4412,-0.4608,-0.5097,-0.5505,-0.5944,-0.6326,-0.7188,-0.7884,-0.8161,-0.8501,-0.8575,-0.7948,-0.7168,-0.6619,-0.6497,-0.6263,-0.5908,-0.5339,-0.5339,-0.5045,-0.4361,-0.4414,-0.4475,-0.4552,-0.5078,-0.5457,-0.5699,-0.5211,-0.5143,-0.5495,-0.5195,-0.5195,-0.5495,-0.5475,-0.5488,-0.5525,-0.4938,-0.5195,0.0,-0.4538,-0.4251,-0.4606,-0.3973,-0.3605,-0.332,-0.332,-0.311,-0.2802,-0.2419,-0.2212,-0.2098,-0.1642,-0.2006,-0.255,-0.2088,-0.2203,-0.2609,-0.2908,-0.2555,-0.2098,-0.2288,-0.143,-0.0477,0.0095,0.0858,0.1621,0.2193,0.3242,0.4174,0.4386,0.5009,0.5529,0.5732,0.5861,0.5926,0.5771,0.5845,0.5918,0.5741,0.5774,0.5807,0.5828,0.6778,0.7466,0.7792,0.8594,0.9101,0.9475,0.9621,0.9898,1.0185,1.0824,1.1173,1.1105,1.1896,1.2255,1.2064,1.2213,1.2248,1.2172,1.2172,1.2172,0.0,-0.4603,-0.508,-0.4479,-0.4292,-0.4174,-0.4289,-0.4233,0.0,-0.4227,-0.4286,-0.4486,-0.4963,-0.5791,-0.6451,-0.6627,-0.7333,-0.8032,-0.8393,-0.8058,-0.7549,-0.7015,-0.6621,-0.6318,-0.5924,-0.6027,-0.5805,-0.5232,-0.5237,-0.4742,-0.3757,-0.4091,-0.4052,-0.3646,-0.4009,-0.4574,-0.5175,-0.4578,-0.4418,-0.4595,-0.4463,-0.4465,-0.4595,-0.4556,-0.4583,-0.4658,-0.4053,-0.4127,-0.4498,-0.3471,-0.3378,-0.3752,-0.3847,-0.3849,-0.3755,-0.3755,-0.3731,-0.3509,-0.2562,-0.2188,-0.2096,-0.164,-0.1822,-0.2183,-0.1621,-0.2199,-0.3001,-0.3003,-0.3025,-0.324,-0.372,-0.267,-0.143,-0.0954,0.0286,0.1525,0.2096,0.3429,0.4462,0.4508,0.5208,0.5823,0.591,0.6178,0.6296,0.5818,0.6224,0.6276,0.5831,0.5741,0.5763,0.5818,0.6737,0.7289,0.7289,0.8351,0.9003,0.8999,0.9089,0.9142,0.9142,0.9711,1.0047,1.0047,1.111,1.1594,1.1488,1.1947,1.2172,1.2172,1.2172,1.2172,-0.3605,0.0,-0.4219,-0.4101,-0.394,-0.3776,0.0,-0.367,-0.355,-0.3833,-0.3947,-0.4139,-0.4541,-0.5321,-0.5881,-0.5791,-0.6496,-0.7333,-0.7919,-0.7837,-0.7581,-0.7105,-0.6453,-0.6016,-0.5987,-0.5641,-0.5167,-0.4664,-0.432,-0.3849,-0.3252,-0.3219,-0.3381,-0.3555,-0.3348,-0.3713,-0.4574,-0.4014,-0.4218,-0.5013,-0.4261,-0.4261,-0.5013,-0.4634,-0.4733,-0.5029,-0.4463,-0.4531,-0.4958,-0.4352,-0.4161,-0.4228,-0.4261,-0.4275,-0.418,-0.3809,-0.3414,-0.3017,-0.2373,-0.2178,-0.2254,-0.2434,-0.2614,-0.2703,-0.2606,-0.2722,-0.3034,-0.343,-0.3274,-0.3117,-0.3618,-0.2957,-0.2002,-0.143,-0.0763,0.0095,0.1322,0.2262,0.3094,0.4142,0.4853,0.5381,0.57,0.585,0.5834,0.576,0.6195,0.6454,0.6365,0.6276,0.6281,0.6296,0.689,0.7289,0.7289,0.8351,0.8979,0.8909,0.9056,0.9142,0.9142,0.9711,1.0051,1.0051,1.0647,1.123,1.1584,1.1567,1.1794,1.2172,1.2172,1.2172,-0.3249,-0.3434,-0.3693,-0.3619,-0.3445,-0.3344,-0.3437,-0.3311,-0.3245,-0.3488,-0.3587,-0.3696,-0.3909,-0.4673,-0.521,-0.519,-0.5962,-0.6488,-0.6679,-0.687,-0.6735,-0.6133,-0.5782,-0.5587,-0.5554,-0.5097,-0.4632,-0.4073,-0.3907,-0.353,-0.2942,-0.2926,-0.3001,-0.3259,-0.3062,-0.325,-0.4011,-0.3357,-0.3276,-0.3859,-0.3294,-0.3294,-0.3859,-0.3751,-0.3945,-0.4163,-0.4052,-0.4043,-0.4129,-0.4318,-0.4318,-0.4132,-0.4593,-0.4687,-0.4687,-0.4228,-0.3836,-0.3438,-0.2716,-0.2346,-0.2245,-0.2245,-0.2335,-0.2515,-0.2245,-0.2524,-0.3088,-0.3871,-0.373,-0.3485,-0.3995,-0.3434,-0.2574,-0.2002,-0.1335,-0.0475,0.0565,0.1879,0.3082,0.3841,0.4737,0.5447,0.5662,0.5918,0.6007,0.5741,0.6186,0.6454,0.6186,0.6097,0.6186,0.6454,0.6938,0.7325,0.7595,0.8346,0.8897,0.893,0.9028,0.9101,0.9142,0.9519,0.9876,1.0113,1.0358,1.0816,1.1584,1.1472,1.17,1.2172,1.2456,1.255,-0.287,-0.3077,-0.3354,-0.326,-0.312,-0.3132,-0.3247,-0.3157,-0.313,-0.3145,-0.31,-0.3197,-0.3349,-0.4185,-0.4788,-0.4818,-0.5452,-0.5761,-0.5286,-0.5592,-0.5626,-0.486,-0.4914,-0.4961,-0.5005,-0.4557,-0.4115,-0.3684,-0.3598,-0.3401,-0.2911,-0.2909,-0.2898,-0.2875,-0.2874,-0.3066,-0.3456,-0.2616,-0.2255,-0.2456,-0.2255,-0.2255,-0.2456,-0.2796,-0.2992,-0.313,-0.3467,-0.3381,-0.313,-0.4016,-0.4113,-0.3774,-0.4652,-0.4998,-0.4907,-0.4456,-0.425,-0.4038,-0.3143,-0.2515,-0.1976,-0.1526,-0.1706,-0.1976,-0.1616,-0.2154,-0.3065,-0.4134,-0.4,-0.3759,-0.4365,-0.3715,-0.2862,-0.2193,-0.143,-0.057,0.0282,0.2064,0.3543,0.375,0.4823,0.5711,0.566,0.6097,0.6186,0.5741,0.6186,0.6365,0.592,0.5831,0.6007,0.6454,0.6905,0.7352,0.7799,0.8312,0.8787,0.8954,0.8991,0.9048,0.9138,0.9203,0.9474,1.0043,0.9872,1.0313,1.1367,1.1272,1.1605,1.2078,1.255,1.2833,-0.2472,-0.2504,-0.2831,-0.3611,-0.36,-0.341,-0.3433,-0.3262,-0.3033,-0.2818,-0.2787,-0.2891,-0.3355,-0.4646,-0.5424,-0.4522,-0.4944,-0.5389,-0.5414,-0.5199,-0.4941,-0.447,-0.4428,-0.4551,-0.4466,-0.4011,-0.3725,-0.3609,-0.3273,-0.3001,-0.2882,-0.2881,-0.2879,-0.2874,-0.2874,-0.2966,-0.2971,-0.2426,-0.2606,-0.3417,-0.2606,-0.2606,-0.3417,-0.3055,-0.3148,-0.3515,-0.36,-0.36,-0.3515,-0.405,-0.4052,-0.3695,-0.423,-0.4408,-0.4408,-0.3868,-0.3683,-0.359,-0.2603,-0.1975,-0.1526,-0.1436,-0.1436,-0.1616,-0.1975,-0.2424,-0.3058,-0.3643,-0.3498,-0.3255,-0.3757,-0.3223,-0.2193,-0.124,-0.0954,-0.019,0.2072,0.2519,0.2957,0.4566,0.4975,0.5211,0.5652,0.5741,0.5831,0.5741,0.6186,0.6454,0.6365,0.6365,0.6365,0.6454,0.6905,0.7263,0.7263,0.8083,0.8668,0.8771,0.8922,0.9048,0.9138,0.9081,0.9093,0.9278,0.9266,0.9543,1.0113,1.0574,1.1037,1.151,1.2078,1.2267,-0.217,-0.2134,-0.2392,-0.3189,-0.3383,-0.3456,-0.3781,-0.3801,-0.3711,-0.3656,-0.3623,-0.3732,-0.4022,-0.4802,-0.5271,-0.4849,-0.5451,-0.5593,-0.4765,-0.4743,-0.454,-0.3906,-0.3932,-0.3943,-0.3943,-0.3495,-0.3139,-0.3231,-0.3066,-0.2887,-0.2875,-0.2694,-0.2604,-0.2874,-0.2694,-0.2604,-0.2874,-0.2425,-0.2424,-0.2872,-0.2425,-0.2424,-0.2872,-0.2874,-0.3053,-0.3231,-0.35,-0.35,-0.3321,-0.4038,-0.4038,-0.3678,-0.4128,-0.4307,-0.4218,-0.3499,-0.305,-0.2783,-0.1975,-0.1436,-0.0988,-0.0988,-0.1167,-0.1436,-0.1706,-0.2334,-0.2965,-0.3161,-0.3279,-0.3405,-0.3718,-0.3179,-0.2534,-0.2064,-0.1131,0.0,0.112,0.2237,0.3343,0.4479,0.4901,0.5236,0.5657,0.5741,0.5741,0.5741,0.6186,0.6544,0.6544,0.6723,0.6994,0.7259,0.7442,0.771,0.7892,0.8339,0.8664,0.8799,0.8934,0.9048,0.9138,0.9105,0.9101,0.9142,0.9142,0.9332,0.9901,1.0469,1.0943,1.1416,1.2172,1.255,-0.1936,-0.2006,-0.2261,-0.2837,-0.3095,-0.336,-0.4034,-0.4237,-0.4336,-0.4458,-0.4425,-0.4463,-0.4556,-0.467,-0.4957,-0.5428,-0.5657,-0.5405,-0.4203,-0.4136,-0.3993,-0.3449,-0.3369,-0.3369,-0.3369,-0.3016,-0.2849,-0.2872,-0.2874,-0.2874,-0.2874,-0.2515,-0.2515,-0.2874,-0.2515,-0.2515,-0.2694,-0.2425,-0.2245,-0.2335,-0.2245,-0.2245,-0.2335,-0.2694,-0.2874,-0.2874,-0.3142,-0.3056,-0.2793,-0.3505,-0.3595,-0.3332,-0.3773,-0.3949,-0.3859,-0.305,-0.2424,-0.1975,-0.1436,-0.0898,-0.0539,-0.0539,-0.0898,-0.1257,-0.1347,-0.2066,-0.2784,-0.2874,-0.3161,-0.3459,-0.3495,-0.3234,-0.2869,-0.2591,-0.1396,-0.0187,0.0279,0.1772,0.3265,0.405,0.4306,0.4739,0.5591,0.5581,0.5578,0.5831,0.6365,0.6633,0.6633,0.6994,0.7352,0.771,0.7795,0.8067,0.8518,0.8607,0.8685,0.886,0.8938,0.9016,0.9109,0.9114,0.9122,0.9332,0.9332,0.9522,1.009,1.0564,1.1037,1.1416,1.2361,1.2739,-0.1877,-0.2172,-0.2541,-0.2892,-0.3031,-0.3303,-0.408,-0.4294,-0.433,-0.4522,-0.4591,-0.4564,-0.4572,-0.4439,-0.4834,-0.624,-0.4875,-0.3782,-0.4218,-0.3527,-0.2923,-0.2956,-0.2961,-0.2961,-0.2961,-0.2871,-0.2871,-0.2874,-0.2874,-0.2874,-0.2874,-0.2874,-0.2874,-0.2874,-0.2874,-0.2694,-0.2245,-0.2245,-0.2425,-0.2874,-0.2425,-0.2425,-0.2874,-0.2874,-0.2874,-0.2874,-0.2515,-0.2257,-0.2276,-0.2344,-0.2348,-0.2366,-0.2795,-0.2964,-0.2964,-0.2425,-0.1885,-0.1347,-0.0898,-0.0449,-0.009,-0.009,-0.0359,-0.0808,-0.1257,-0.1795,-0.2335,-0.2784,-0.2965,-0.2973,-0.2912,-0.2941,-0.2684,-0.1203,-0.1112,-0.0836,0.103,0.1119,0.1487,0.3371,0.307,0.3131,0.5379,0.5369,0.5349,0.6284,0.6815,0.7173,0.7173,0.7173,0.7173,0.7263,0.762,0.8067,0.8518,0.8607,0.8685,0.886,0.8877,0.8922,0.9016,0.9016,0.9244,0.9806,0.9806,1.009,1.0659,1.1132,1.1416,1.1416,1.1983,1.2267,-0.1883,-0.2246,-0.2574,-0.2485,-0.281,-0.3481,-0.475,-0.5071,-0.5292,-0.5986,-0.6087,-0.6105,-0.6275,-0.5809,-0.5542,-0.5619,-0.4586,-0.3669,-0.3402,-0.3063,-0.2819,-0.2868,-0.2874,-0.2874,-0.2874,-0.3142,-0.3321,-0.3321,-0.3321,-0.3231,-0.2872,-0.2603,-0.2425,-0.2425,-0.2425,-0.2515,-0.2604,-0.2604,-0.2604,-0.2425,-0.2245,-0.2335,-0.2425,-0.2425,-0.2425,-0.2425,-0.1885,-0.171,-0.1715,-0.1709,-0.189,-0.2257,-0.2698,-0.2874,-0.2874,-0.2335,-0.1885,-0.1347,-0.0898,-0.0359,0.0,0.0,-0.0359,-0.0718,-0.0898,-0.1347,-0.1706,-0.1885,-0.1975,-0.2067,-0.2345,-0.2446,-0.2271,-0.1362,-0.0821,-0.0367,0.0369,0.0924,0.1483,0.2604,0.2677,0.3021,0.4195,0.4984,0.5586,0.5923,0.6902,0.762,0.762,0.7889,0.8071,0.8071,0.8514,0.896,0.9406,0.95,0.9532,0.9604,0.9447,0.9402,0.9556,0.9848,1.0144,1.0375,1.0375,1.0437,1.0559,1.1028,1.1309,1.1309,1.1871,1.2096,-0.1911,-0.2265,-0.252,-0.2196,-0.2636,-0.3503,-0.4791,-0.5248,-0.5736,-0.6848,-0.7101,-0.7133,-0.7313,-0.6516,-0.5618,-0.5207,-0.4235,-0.3386,-0.2848,-0.2785,-0.2812,-0.2855,-0.3046,-0.3143,-0.3143,-0.359,-0.3859,-0.3859,-0.3859,-0.3678,-0.3319,-0.3052,-0.2693,-0.2424,-0.2416,-0.2326,-0.2245,-0.2238,-0.1969,-0.1526,-0.1616,-0.1795,-0.1975,-0.1975,-0.1975,-0.1885,-0.1436,-0.1169,-0.1173,-0.1169,-0.1526,-0.1975,-0.2335,-0.2515,-0.2604,-0.2156,-0.1795,-0.1526,-0.0898,-0.0359,0.009,0.0359,0.0,-0.0449,-0.0269,-0.0808,-0.1436,-0.1436,-0.1436,-0.1436,-0.1706,-0.1795,-0.1795,-0.1347,-0.0722,-0.0182,0.0,0.055,0.1291,0.2034,0.2209,0.2653,0.4013,0.4982,0.567,0.6279,0.7352,0.8157,0.8335,0.8603,0.8875,0.9054,0.9322,0.9674,0.9941,1.003,1.0045,1.0078,1.0035,1.0004,0.9987,1.0277,1.0493,1.0943,1.0686,1.0742,1.1018,1.1227,1.1506,1.1761,1.2097,1.2333,-0.1969,-0.2222,-0.2434,-0.2152,-0.2638,-0.336,-0.4021,-0.4641,-0.5456,-0.6848,-0.7199,-0.7317,-0.7488,-0.6037,-0.4921,-0.518,-0.3757,-0.2703,-0.2733,-0.2789,-0.2827,-0.2829,-0.3299,-0.3588,-0.3588,-0.4038,-0.4307,-0.4307,-0.4307,-0.4307,-0.4307,-0.4307,-0.3859,-0.2961,-0.293,-0.222,-0.0718,-0.0711,-0.0533,0.0,-0.0539,-0.0988,-0.1436,-0.1436,-0.1436,-0.1347,-0.0898,-0.0722,-0.0729,-0.0721,-0.0988,-0.1436,-0.1436,-0.1706,-0.2156,-0.1616,-0.1706,-0.2066,-0.1077,-0.0359,0.018,0.1077,0.0808,0.009,0.0538,-0.0269,-0.1347,-0.1347,-0.1347,-0.1257,-0.0808,-0.0988,-0.1257,-0.0808,-0.0718,-0.054,-0.0091,0.0,0.0457,0.1939,0.1388,0.1753,0.5204,0.5374,0.5625,0.7628,0.8335,0.8786,0.9232,0.9322,0.95,0.9946,1.0035,1.0035,1.003,1.003,1.0078,1.0183,1.064,1.069,1.0335,0.988,1.0161,1.1411,1.0728,1.0908,1.2167,1.1933,1.2216,1.2922,1.2795,1.3081,-0.2009,-0.2445,-0.2789,-0.2233,-0.2899,-0.3758,-0.4047,-0.4707,-0.5578,-0.6875,-0.6792,-0.643,-0.6347,-0.5078,-0.4079,-0.4239,-0.3324,-0.2703,-0.2733,-0.2496,-0.2345,-0.2294,-0.2746,-0.3115,-0.3137,-0.4126,-0.4753,-0.4753,-0.4753,-0.4664,-0.4307,-0.4307,-0.4038,-0.3409,-0.3757,-0.3668,-0.3231,-0.3221,-0.2863,-0.2064,-0.2512,-0.2064,-0.0898,-0.0898,-0.0898,-0.0898,-0.0449,-0.018,-0.027,-0.0539,-0.0808,-0.0898,-0.1257,-0.1526,-0.1616,-0.1436,-0.1257,-0.1077,-0.0449,0.009,0.0628,0.1615,0.1256,0.0539,0.1077,0.0449,-0.0449,-0.0449,-0.0449,-0.0269,0.0539,0.0718,0.0449,-0.009,-0.018,-0.018,0.0,0.0271,0.0633,0.1097,0.1457,0.2269,0.4007,0.4982,0.594,0.7177,0.8335,0.9254,0.9865,0.9964,1.0173,1.0695,1.0795,1.0851,1.1141,1.113,1.1114,1.1067,1.1241,1.1151,1.0891,1.1156,1.1506,1.1855,1.1684,1.1777,1.2042,1.1971,1.2205,1.2656,1.2708,1.3034,-0.2187,-0.2439,-0.2648,-0.2423,-0.3029,-0.3888,-0.4665,-0.54,-0.5978,-0.6208,-0.6323,-0.6254,-0.5724,-0.4772,-0.3963,-0.3864,-0.3157,-0.2686,-0.2716,-0.2473,-0.2411,-0.2629,-0.3171,-0.3546,-0.3673,-0.4664,-0.5291,-0.5291,-0.5291,-0.5112,-0.4845,-0.4666,-0.4397,-0.3859,-0.3932,-0.3835,-0.339,-0.3479,-0.3033,-0.2318,-0.2586,-0.214,-0.0981,-0.0986,-0.0808,-0.0449,-0.009,0.0,0.0,-0.0269,-0.0449,-0.0449,-0.0718,-0.0988,-0.1167,-0.134,-0.1342,-0.1167,-0.0536,0.0,0.0628,0.2063,0.1795,0.1077,0.1525,0.1077,0.0359,0.0539,0.0718,0.1077,0.1795,0.1974,0.1884,0.1256,0.0987,0.0897,0.0897,0.0898,0.1079,0.1268,0.2074,0.3148,0.4252,0.5493,0.6726,0.7889,0.9049,0.9979,1.0449,1.0645,1.0957,1.1339,1.1355,1.1506,1.1983,1.1977,1.1944,1.1961,1.1956,1.1842,1.1716,1.1651,1.171,1.1987,1.1828,1.1849,1.2058,1.2151,1.2483,1.2975,1.3184,1.3784,-0.2477,-0.2376,-0.2274,-0.2639,-0.3098,-0.3928,-0.5551,-0.6384,-0.6509,-0.5237,-0.602,-0.6522,-0.5264,-0.467,-0.4263,-0.3938,-0.3169,-0.2661,-0.2688,-0.2716,-0.2917,-0.3469,-0.3945,-0.4516,-0.4919,-0.5378,-0.5741,-0.5741,-0.5652,-0.5652,-0.5741,-0.5291,-0.4841,-0.448,-0.3998,-0.3359,-0.2382,-0.2385,-0.2208,-0.1588,-0.1677,-0.1588,-0.1501,-0.1337,-0.0806,0.009,0.009,0.009,0.009,0.009,0.009,0.009,0.0,-0.0269,-0.0716,-0.1151,-0.1599,-0.179,-0.0885,-0.0267,0.0538,0.2419,0.233,0.1524,0.2063,0.1525,0.0898,0.1347,0.1884,0.2421,0.3049,0.3139,0.3139,0.3228,0.278,0.2332,0.2421,0.1974,0.1795,0.2334,0.3052,0.4126,0.5562,0.6547,0.7531,0.9049,1.003,1.0605,1.0986,1.1363,1.1688,1.1911,1.1916,1.2088,1.2632,1.2621,1.2615,1.2615,1.2615,1.2621,1.2632,1.1625,1.1404,1.2075,1.1613,1.1671,1.2361,1.2598,1.3061,1.3758,1.4207,1.4959,-0.2161,-0.2323,-0.2566,-0.238,-0.3207,-0.4328,-0.51,-0.6118,-0.6784,-0.5974,-0.6023,-0.5754,-0.4322,-0.3775,-0.3395,-0.3021,-0.2771,-0.2686,-0.2691,-0.2698,-0.2882,-0.3341,-0.3899,-0.4378,-0.4865,-0.5355,-0.5741,-0.5741,-0.538,-0.5291,-0.5652,-0.5291,-0.5092,-0.5405,-0.5258,-0.4967,-0.4276,-0.4399,-0.396,-0.3055,-0.3402,-0.3054,-0.192,-0.0787,0.0,0.0532,0.0537,0.0536,0.0532,0.0532,0.0529,0.0525,0.0175,-0.0088,-0.0175,-0.0698,-0.0439,0.0089,0.035,0.0966,0.1951,0.3457,0.2836,0.1598,0.2505,0.2064,0.1347,0.1884,0.2601,0.3585,0.4749,0.5107,0.5288,0.6097,0.4751,0.3406,0.3764,0.3766,0.3676,0.3855,0.4037,0.4756,0.6541,0.6365,0.6723,0.8956,0.9134,0.9795,1.1708,1.1724,1.1988,1.3043,1.2972,1.2998,1.3181,1.309,1.3035,1.3035,1.3035,1.3078,1.3181,1.261,1.2587,1.3202,1.318,1.3245,1.3399,1.3439,1.3665,1.4088,1.4725,1.5279,-0.2336,-0.2365,-0.2466,-0.2586,-0.345,-0.4435,-0.4901,-0.623,-0.6933,-0.5618,-0.5802,-0.5663,-0.3634,-0.3489,-0.3425,-0.2774,-0.2692,-0.2777,-0.3029,-0.3029,-0.3386,-0.4299,-0.4675,-0.5158,-0.595,-0.6079,-0.6097,-0.6097,-0.538,-0.5112,-0.538,-0.4933,-0.4921,-0.5337,-0.5365,-0.5149,-0.4609,-0.4656,-0.4032,-0.2848,-0.2776,-0.2081,-0.0777,-0.0434,0.0175,0.0973,0.0533,0.0535,0.0712,0.0445,0.0355,0.0353,0.0088,0.0,-0.0088,-0.0527,-0.0265,0.0444,0.0616,0.1324,0.2314,0.3559,0.2937,0.1869,0.2404,0.2138,0.1869,0.2655,0.3723,0.4893,0.6047,0.6516,0.6898,0.7706,0.6541,0.5286,0.5378,0.5557,0.5465,0.4751,0.538,0.6186,0.6809,0.717,0.7974,0.9758,1.0026,1.06,1.2434,1.2452,1.2612,1.3266,1.3376,1.3462,1.3738,1.3676,1.3663,1.3726,1.3676,1.3701,1.3833,1.3622,1.3541,1.348,1.3615,1.3682,1.3682,1.3964,1.4303,1.4699,1.524,1.5889,-0.2514,-0.2528,-0.2552,-0.3257,-0.4056,-0.4766,-0.52,-0.653,-0.713,-0.5283,-0.5748,-0.5805,-0.3191,-0.3363,-0.3616,-0.2861,-0.2861,-0.303,-0.3375,-0.3628,-0.425,-0.5548,-0.5656,-0.6054,-0.7232,-0.6716,-0.6365,-0.6454,-0.5559,-0.5022,-0.5022,-0.4576,-0.4478,-0.4907,-0.4825,-0.4516,-0.4074,-0.3943,-0.3228,-0.1968,-0.1468,-0.0518,0.0687,-0.0173,0.0087,0.1234,0.0442,0.0356,0.0627,0.0269,0.0089,0.0089,0.0,0.0,-0.0089,-0.053,-0.0266,0.0447,0.0796,0.1597,0.2684,0.358,0.3221,0.2412,0.2575,0.2481,0.2653,0.3591,0.4922,0.6195,0.7166,0.7747,0.8246,0.8688,0.8327,0.7702,0.717,0.7345,0.7167,0.5915,0.6902,0.7706,0.6812,0.8164,0.9692,1.0476,1.1026,1.1872,1.3034,1.3136,1.3185,1.3406,1.3615,1.3881,1.4276,1.4276,1.4328,1.4532,1.4434,1.4514,1.4719,1.4752,1.4525,1.4037,1.4083,1.4046,1.4027,1.451,1.4986,1.5462,1.5938,1.6595,-0.2092,-0.2672,-0.3558,-0.4837,-0.5541,-0.6052,-0.6569,-0.7251,-0.7469,-0.6489,-0.6437,-0.5719,-0.3189,-0.3113,-0.3281,-0.2777,-0.3363,-0.3713,-0.3496,-0.4521,-0.5482,-0.6159,-0.587,-0.6259,-0.76,-0.6599,-0.6007,-0.6454,-0.5559,-0.5022,-0.5022,-0.4576,-0.4451,-0.4804,-0.414,-0.3678,-0.3512,-0.2773,-0.2079,-0.1368,-0.0942,-0.0172,0.0694,0.0174,0.0261,0.0785,0.0622,0.0624,0.0708,0.062,0.0617,0.0524,0.0175,0.0,-0.0087,-0.0523,0.0439,0.1857,0.1487,0.2544,0.4071,0.4604,0.416,0.3456,0.3841,0.4031,0.4208,0.5179,0.6165,0.7338,0.8676,0.9041,0.9228,0.9674,1.003,1.0115,0.9674,0.9224,0.8863,0.8238,0.8331,0.8242,0.7263,0.8754,1.0036,1.0124,1.064,1.1664,1.3363,1.3172,1.3311,1.4253,1.4376,1.4443,1.4577,1.4584,1.478,1.5258,1.5244,1.542,1.5891,1.6029,1.6095,1.5981,1.5767,1.5587,1.5454,1.6047,1.64,1.6494,1.6962,1.725,-0.2525,-0.3065,-0.3718,-0.4741,-0.5386,-0.5871,-0.6091,-0.6923,-0.7398,-0.6682,-0.671,-0.6335,-0.4523,-0.4099,-0.409,-0.4199,-0.414,-0.4335,-0.4957,-0.5587,-0.6222,-0.7035,-0.6754,-0.6797,-0.7673,-0.677,-0.6276,-0.6454,-0.5559,-0.5022,-0.5022,-0.4305,-0.3932,-0.416,-0.3288,-0.2653,-0.2264,-0.1662,-0.0875,-0.0087,0.0087,0.0349,0.0702,0.0177,0.0441,0.1053,0.0266,0.0178,0.0624,0.0089,0.0088,0.0263,0.0087,0.0,0.0,0.035,0.1232,0.221,0.2566,0.3551,0.4722,0.49,0.4544,0.401,0.4271,0.4446,0.4795,0.547,0.6545,0.7817,0.8972,0.9455,0.9852,1.0654,1.1188,1.1543,1.1632,1.1271,1.0758,1.0012,0.9438,0.8969,0.8934,1.0276,1.1504,1.1982,1.2526,1.3399,1.4778,1.4572,1.4653,1.5355,1.5258,1.5336,1.5689,1.5696,1.5824,1.6095,1.6022,1.6099,1.6457,1.6532,1.6532,1.645,1.6413,1.6363,1.6297,1.655,1.6868,1.7055,1.7616,1.7989,-0.3203,-0.3609,-0.4012,-0.4884,-0.5554,-0.6011,-0.6125,-0.6965,-0.762,-0.7164,-0.734,-0.7301,-0.641,-0.5416,-0.4906,-0.5268,-0.5069,-0.5202,-0.609,-0.6397,-0.6705,-0.7527,-0.7058,-0.7,-0.7618,-0.6869,-0.6365,-0.6454,-0.5649,-0.5112,-0.5022,-0.4126,-0.3585,-0.3575,-0.2412,-0.1692,-0.1414,-0.0795,0.0,0.1153,0.0885,0.0797,0.0888,0.0358,0.0536,0.0976,-0.0089,-0.0089,0.0447,-0.0266,-0.0353,0.0,0.0174,0.0174,0.0261,0.1316,0.2112,0.2819,0.3728,0.4715,0.5515,0.5515,0.5248,0.4977,0.4936,0.5198,0.555,0.603,0.7027,0.8232,0.9118,0.9885,1.0565,1.1455,1.2077,1.2432,1.2787,1.252,1.2016,1.1479,1.0704,1.0223,1.0755,1.1972,1.2995,1.3666,1.4407,1.5116,1.5794,1.5718,1.5716,1.6122,1.6004,1.6022,1.6442,1.6572,1.6632,1.68,1.6695,1.6757,1.6918,1.6971,1.6933,1.6819,1.6971,1.7032,1.6994,1.7219,1.7523,1.7989,1.8363,1.8735,-0.3779,-0.4462,-0.5009,-0.6256,-0.7019,-0.7564,-0.7752,-0.8175,-0.8611,-0.8744,-0.8707,-0.8651,-0.8461,-0.6753,-0.5357,-0.5223,-0.6013,-0.6522,-0.632,-0.6599,-0.7,-0.7235,-0.6359,-0.6183,-0.7167,-0.6365,-0.592,-0.6454,-0.6007,-0.547,-0.5022,-0.4126,-0.3573,-0.3536,-0.1768,-0.0973,-0.1326,-0.0442,0.071,0.2153,0.1154,0.0977,0.1345,0.0897,0.0449,0.009,0.0,0.0,0.0,0.0,0.0,0.0087,0.0522,0.0695,0.0782,0.2174,0.3217,0.4175,0.5046,0.6004,0.6785,0.6785,0.6785,0.6785,0.6779,0.6828,0.697,0.7494,0.8079,0.8769,0.9754,1.0649,1.1543,1.2077,1.252,1.2875,1.2875,1.252,1.2343,1.2698,1.2426,1.2243,1.2692,1.3694,1.4359,1.4306,1.5127,1.5809,1.5742,1.5727,1.5786,1.6025,1.6107,1.6271,1.6527,1.6584,1.6793,1.7195,1.718,1.7285,1.7582,1.7743,1.7832,1.7824,1.7994,1.8095,1.7932,1.8474,1.9023,1.9581,1.9581,1.9674,-0.3436,-0.4129,-0.4788,-0.6215,-0.6827,-0.7149,-0.7628,-0.8044,-0.8549,-0.8997,-0.9011,-0.8983,-0.8842,-0.7502,-0.6598,-0.7002,-0.6913,-0.6982,-0.7466,-0.7694,-0.7751,-0.7461,-0.6852,-0.6501,-0.6592,-0.6013,-0.5845,-0.6244,-0.5964,-0.5725,-0.5864,-0.4738,-0.4031,-0.4015,-0.1874,-0.0446,0.0,0.0,0.0268,0.0808,0.0447,0.0358,0.0539,0.0359,0.0359,0.0449,0.0449,0.0268,0.0,0.0,0.0174,0.0516,0.0939,0.1447,0.2128,0.3173,0.4213,0.5163,0.6064,0.6599,0.6859,0.6859,0.6859,0.6859,0.6859,0.7139,0.7523,0.8101,0.8581,0.9238,1.0189,1.101,1.181,1.3224,1.3932,1.4292,1.4646,1.3578,1.2805,1.3337,1.3718,1.4033,1.4311,1.5624,1.6471,1.6145,1.7081,1.7534,1.6855,1.6947,1.7112,1.7167,1.7057,1.7181,1.7521,1.7957,1.8152,1.8272,1.8272,1.8332,1.8451,1.8517,1.855,1.855,1.8981,1.8989,1.8559,1.8803,1.9209,1.9674,2.0037,2.013,-0.2873,-0.3725,-0.4605,-0.5743,-0.6384,-0.691,-0.7376,-0.7926,-0.8494,-0.894,-0.9197,-0.9244,-0.9081,-0.8406,-0.7969,-0.7991,-0.7566,-0.7454,-0.8106,-0.8081,-0.7956,-0.7641,-0.7035,-0.6515,-0.6255,-0.6033,-0.5963,-0.6205,-0.6021,-0.6059,-0.6393,-0.5095,-0.4038,-0.3588,-0.2063,-0.0718,0.018,0.009,0.009,0.0269,0.0269,0.0269,0.0269,0.0269,0.0449,0.0718,0.0898,0.0801,0.0439,0.0436,0.0603,0.0935,0.135,0.2107,0.313,0.4176,0.514,0.6105,0.7015,0.7382,0.7382,0.7382,0.736,0.7338,0.751,0.7772,0.8129,0.8709,0.927,1.0015,1.0745,1.1688,1.2781,1.4197,1.4903,1.5352,1.5616,1.4727,1.3958,1.4496,1.5276,1.589,1.6092,1.7266,1.8004,1.7814,1.8257,1.846,1.7728,1.7812,1.7878,1.8093,1.784,1.7937,1.855,1.8981,1.9184,1.9031,1.8989,1.9023,1.9116,1.9023,1.9023,1.9209,1.9488,1.9581,1.9395,1.9395,1.9674,2.0232,2.051,2.0696,0.0,0.0,0.0,-0.5018,-0.5981,-0.6881,-0.7147,-0.7883,-0.8508,-0.875,-0.9271,-0.9656,-0.9434,-0.941,-0.9157,-0.8065,-0.7934,-0.7995,-0.817,-0.7769,-0.7548,-0.763,-0.6772,-0.6252,-0.6252,-0.6166,-0.628,-0.6432,-0.6356,-0.6384,-0.6445,-0.5112,-0.3678,-0.2242,-0.2242,-0.1795,-0.0718,-0.0269,0.018,0.0628,0.0628,0.0718,0.0718,0.0718,0.0718,0.0808,0.1257,0.1419,0.1479,0.1479,0.1374,0.1431,0.1852,0.2712,0.3763,0.5045,0.6197,0.7122,0.7988,0.8334,0.8334,0.8334,0.8272,0.8288,0.8794,0.8964,0.9049,0.9399,1.0234,1.1112,1.1324,1.2853,1.4455,1.4903,1.5352,1.5704,1.5793,1.5793,1.5881,1.6313,1.6976,1.7631,1.8076,1.8529,1.8857,1.905,1.8769,1.8427,1.8165,1.7949,1.7983,1.8347,1.8389,1.8746,1.9384,1.9569,1.9595,1.9411,1.9106,1.9209,1.9674,1.9209,1.9209,1.9674,1.9767,1.9944,2.0408,2.0408,2.0696,2.1168,2.1168,2.1168,-0.219,0.0,0.0,0.0,0.0,0.0,-0.674,-0.7408,-0.7868,-0.8172,-0.8801,-0.928,-0.8929,-0.9193,-0.9283,-0.8774,-0.8543,-0.8471,-0.8508,-0.8185,-0.7796,-0.7544,-0.7244,-0.6975,-0.6689,-0.6353,-0.6255,-0.6567,-0.6187,-0.5992,-0.6226,-0.5692,-0.4664,-0.323,-0.3499,-0.2871,-0.1257,-0.1077,-0.0808,-0.0269,0.0,0.0359,0.0718,0.0718,0.1077,0.1795,0.1885,0.2316,0.2902,0.2551,0.2443,0.2499,0.3619,0.4659,0.5623,0.6311,0.7187,0.7988,0.8247,0.8334,0.8334,0.868,0.8831,0.8899,0.9411,0.9702,1.0008,1.0605,1.1074,1.1698,1.296,1.3746,1.4507,1.5755,1.6137,1.6401,1.7024,1.7208,1.72,1.6936,1.7848,1.876,1.8848,1.9414,1.971,1.9409,1.9722,1.967,1.8917,1.9185,1.9364,1.9197,1.9245,1.9441,1.9587,2.001,2.0196,2.015,2.001,2.0037,2.0223,2.0037,2.0037,2.0223,2.0603,2.089,2.0983,2.0594,2.0696,2.1168,2.1168,2.1168,-0.1656,-0.2198,-0.2876,-0.3572,0.0,0.0,-0.5518,-0.6138,-0.6545,-0.6842,-0.7659,-0.8333,-0.8081,-0.8521,-0.9049,-0.9154,-0.8932,-0.8716,-0.8649,-0.8373,-0.7997,-0.78,-0.7508,-0.7245,-0.6785,-0.6535,-0.6362,-0.6522,-0.612,-0.592,-0.5908,-0.5764,-0.5102,-0.3923,-0.4118,-0.35,-0.1795,-0.1167,-0.0718,-0.0359,0.0449,0.0988,0.0988,0.1257,0.1616,0.2245,0.2425,0.2863,0.3556,0.3469,0.3527,0.3738,0.4609,0.5578,0.6647,0.6909,0.7629,0.8448,0.8448,0.8448,0.8448,0.8711,0.8769,0.8913,0.9604,1.0017,1.0359,1.1231,1.2089,1.2908,1.4114,1.4727,1.5301,1.611,1.6617,1.7088,1.7547,1.8025,1.8252,1.7814,1.8576,1.9332,1.9332,1.9785,2.0163,1.999,2.0205,2.0172,1.9437,1.9735,1.9925,1.9733,1.9757,1.9921,2.0105,2.0548,2.0659,2.0566,2.0455,2.0501,2.0696,2.0501,2.0501,2.0696,2.1075,2.1168,2.1168,2.0881,2.0881,2.1168,2.1168,2.1168,-0.1075,-0.1602,0.0,-0.2023,-0.2703,0.0,-0.3919,-0.4514,-0.5006,-0.5157,-0.6172,-0.7026,-0.6873,-0.7566,-0.8374,-0.9029,-0.874,-0.8488,-0.8616,-0.8314,-0.8119,-0.8048,-0.7714,-0.7303,-0.6895,-0.6727,-0.6586,-0.6309,-0.6151,-0.5928,-0.5643,-0.5662,-0.5251,-0.4234,-0.4273,-0.3578,-0.2147,-0.0716,0.0,0.0089,0.1521,0.1968,0.1521,0.1968,0.2239,0.2331,0.2779,0.3228,0.3678,0.4218,0.4615,0.4973,0.5148,0.6051,0.7159,0.7336,0.7917,0.8607,0.8607,0.8607,0.8607,0.8697,0.8728,0.8837,0.9804,1.0274,1.0726,1.1761,1.3095,1.4336,1.4858,1.5737,1.6426,1.6301,1.7086,1.7859,1.7689,1.847,1.9117,1.8689,1.9096,1.9576,1.9576,1.9939,2.028,2.0478,2.0384,2.0177,1.9905,1.9951,2.0034,2.0226,2.0244,2.0427,2.0784,2.1055,2.1083,2.0885,2.0585,2.0696,2.1168,2.0696,2.0696,2.1168,2.1168,2.1168,2.1168,2.1168,2.1168,2.1168,2.1168,2.1168,-0.1302,-0.1394,-0.1669,-0.1853,-0.2306,0.0,-0.3408,-0.3833,-0.4182,-0.4438,-0.4985,-0.5506,-0.565,-0.6245,-0.6639,-0.6688,-0.6528,-0.7039,-0.876,-0.8648,-0.8203,-0.795,-0.7879,-0.7821,-0.7805,-0.7147,-0.665,-0.6579,-0.5957,-0.5585,-0.5643,-0.5581,-0.5153,-0.4272,-0.4193,-0.3323,-0.1575,-0.0525,0.0175,0.0612,0.1663,0.21,0.1925,0.21,0.2286,0.2748,0.319,0.365,0.4218,0.4664,0.51,0.5706,0.6862,0.7492,0.7862,0.8579,0.8769,0.8607,0.8607,0.8607,0.8697,0.9496,0.9749,0.9913,1.089,1.167,1.2489,1.37,1.4391,1.4858,1.5726,1.6349,1.6917,1.7389,1.7964,1.8418,1.8811,1.9003,1.9292,1.9563,1.9687,1.9803,1.9803,2.0022,2.0233,2.028,2.0535,2.0643,2.0589,2.0749,2.0972,2.101,2.1019,2.101,2.1102,2.1149,2.1149,2.1111,2.1047,2.1075,2.1168,2.1075,2.1075,2.1168,2.1168,2.1168,2.1168,2.1168,2.1168,2.1168,2.1168,2.1168,-0.124,-0.1149,-0.1113,-0.096,0.0,0.0,0.0,-0.2714,-0.3014,-0.3361,-0.3912,-0.4291,-0.4278,-0.4786,-0.5348,-0.559,-0.5568,-0.6063,-0.7366,-0.7465,-0.7568,-0.7778,-0.7868,-0.7819,-0.7738,-0.7085,-0.652,-0.6053,-0.5696,-0.5474,-0.5472,-0.5529,-0.5286,-0.4484,-0.4507,-0.3651,-0.1739,-0.1043,-0.0087,0.1043,0.1739,0.2261,0.2435,0.2435,0.2538,0.2829,0.3092,0.3465,0.3949,0.4216,0.5022,0.6186,0.7173,0.7799,0.8335,0.8786,0.8786,0.8607,0.8607,0.8607,0.8697,0.9406,0.9674,0.9852,1.1099,1.2296,1.3261,1.3991,1.4354,1.4703,1.5403,1.6102,1.6792,1.7235,1.8087,1.8925,1.8999,1.9315,1.965,2.0182,2.0269,2.0144,1.9779,1.993,2.0034,1.993,2.0355,2.0648,2.0544,2.0904,2.113,2.1017,2.1102,2.1168,2.1168,2.1168,2.1168,2.1168,2.1168,2.1168,2.1168,2.1168,2.1168,2.1168,2.1168,2.1168,2.1168,2.1168,2.1168,2.1168,2.1168,2.1353,0.0,0.0,-0.0863,0.0,0.0,-0.0853,0.0,0.0,0.0,-0.2355,-0.287,-0.3202,-0.2931,-0.3429,-0.401,-0.4492,-0.4658,-0.4896,-0.5489,-0.5843,-0.6422,-0.7421,-0.7445,-0.7336,-0.7351,-0.6955,-0.6259,-0.5427,-0.5468,-0.5558,-0.5519,-0.5546,-0.5332,-0.4774,-0.4815,-0.3973,-0.2333,-0.1642,-0.0518,0.1037,0.1728,0.2246,0.268,0.2766,0.2785,0.2819,0.2909,0.3194,0.3588,0.3678,0.4843,0.6544,0.6994,0.7799,0.8607,0.8697,0.8697,0.8607,0.8697,0.8697,0.8786,0.9411,0.9585,0.9852,1.1072,1.2219,1.323,1.3521,1.3881,1.4251,1.4808,1.5609,1.6362,1.6657,1.7957,1.9081,1.9004,1.9538,2.0182,2.0781,2.0781,2.0549,1.9857,1.9894,1.9951,1.9684,2.0041,2.0252,2.0121,2.058,2.0778,2.0638,2.0788,2.0983,2.1075,2.1075,2.1075,2.1168,2.1168,2.1168,2.1168,2.1168,2.1168,2.1168,2.1168,2.1168,2.1168,2.1168,2.1168,2.1168,2.1261,2.1538,0.0,0.0,0.0,0.0,-0.1403,0.0,0.0,0.0,-0.1892,-0.1958,0.0,-0.2073,-0.2105,0.0,0.0,-0.238,-0.2485,-0.2898,-0.4003,-0.4234,-0.4915,-0.6574,-0.6211,-0.6312,-0.7397,-0.7102,-0.6373,-0.5215,-0.5503,-0.5662,-0.5712,-0.5505,-0.5232,-0.4719,-0.4724,-0.4223,-0.3294,-0.1942,-0.1013,-0.0422,0.1182,0.2027,0.2111,0.2533,0.2733,0.2788,0.3225,0.3525,0.3588,0.4038,0.5112,0.6544,0.6988,0.7795,0.8607,0.9054,0.8964,0.8697,0.9054,0.9232,0.9411,1.0209,1.0565,1.0634,1.1148,1.1467,1.1724,1.2568,1.3104,1.3773,1.478,1.5425,1.5858,1.637,1.7526,1.8681,1.909,1.9892,2.0781,2.1649,2.1475,2.1032,2.0578,2.0511,2.0347,1.9883,1.9748,1.9695,1.9841,1.9716,1.9647,1.9807,1.9843,2.0046,2.0501,2.0501,2.0696,2.1168,2.1168,2.1168,2.1168,2.1168,2.1168,2.1168,2.1168,2.1168,2.1168,2.1168,2.1168,2.1168,2.1631,2.1816,0.0,0.0,0.0,0.0,0.0,0.0,-0.0736,0.0,-0.0408,0.0,0.0,0.0,0.0,0.0,0.0,0.0,-0.2426,-0.2729,-0.3273,-0.3851,-0.4802,-0.627,-0.6203,-0.6304,-0.6888,-0.688,-0.6488,-0.5804,-0.5865,-0.5899,-0.5767,-0.5696,-0.5513,-0.513,-0.5132,-0.4458,-0.3029,-0.244,-0.1346,0.0084,0.0842,0.1515,0.2018,0.2188,0.247,0.2784,0.3045,0.317,0.3231,0.3412,0.4128,0.5291,0.5736,0.6991,0.8697,0.9143,0.9143,0.9054,0.9589,0.9674,0.9763,1.0209,1.0654,1.1151,1.0878,1.1041,1.1434,1.2056,1.2178,1.2529,1.381,1.455,1.5073,1.5785,1.7104,1.8156,1.8331,1.8943,1.965,2.0598,2.1032,2.1205,2.1042,2.0781,2.0482,2.0182,2.0119,1.9947,1.9642,1.9834,1.9903,1.9608,1.9604,1.986,2.0315,2.0408,2.0594,2.1168,2.1168,2.1168,2.1168,2.1168,2.1168,2.1168,2.1168,2.1168,2.1168,2.1446,2.1446,2.1168,2.1723,2.2185,-0.3223,0.0,0.0,0.0,0.0,0.0,0.0,0.0,0.0,0.0,0.0,0.0,0.0,0.0,0.0,0.0,0.0,-0.2953,-0.3193,-0.3782,-0.4686,-0.5822,-0.6282,-0.6335,-0.6015,-0.6436,-0.6513,-0.6095,-0.6162,-0.6139,-0.6052,-0.5694,-0.5369,-0.5166,-0.4863,-0.4038,-0.2692,-0.244,-0.1515,0.0168,0.0674,0.1178,0.185,0.2103,0.2381,0.2772,0.278,0.2812,0.2861,0.2871,0.3412,0.4307,0.4843,0.6276,0.8067,0.8871,0.9228,0.9411,0.9941,1.0298,1.0387,1.0209,1.0565,1.0973,1.0247,1.0396,1.0949,1.1242,1.1356,1.1696,1.3098,1.3761,1.4285,1.5087,1.6489,1.7718,1.806,1.8593,1.9379,2.0935,2.1282,2.1465,2.1822,2.1389,2.0819,2.0478,2.0247,1.9999,1.9606,1.9707,1.9683,1.9288,1.9309,1.9573,2.013,2.0223,2.051,2.1168,2.1168,2.1168,2.1168,2.1168,2.1168,2.1168,2.1353,2.1353,2.1353,2.1723,2.1816,2.1631,2.2093,2.2647,0.0,0.0,0.0,-0.2983,0.0,0.0,0.0,0.0,-0.0395,0.0,0.0,0.0,0.0,0.0,0.0,0.0,0.0,0.0,0.0,-0.3731,-0.4077,-0.4785,-0.5952,-0.6063,-0.4504,-0.5803,-0.6429,-0.586,-0.6103,-0.6352,-0.6585,-0.5232,-0.4471,-0.4392,-0.3326,-0.2777,-0.2692,-0.1766,-0.1346,-0.1178,0.0505,0.1262,0.1346,0.2272,0.2709,0.2742,0.277,0.2801,0.2833,0.2861,0.3412,0.4307,0.4843,0.5649,0.6723,0.8153,0.8867,0.9406,1.0387,1.101,1.1366,1.0832,1.0387,0.9922,0.9374,0.9449,0.9822,0.9927,1.0841,1.194,1.272,1.3236,1.3768,1.421,1.5793,1.7455,1.8837,1.9544,2.0761,2.3966,2.2762,2.1735,2.3117,2.26,2.1649,2.0684,1.9824,1.936,1.9752,1.8923,1.8524,1.8888,1.8549,1.8642,1.9674,1.9767,2.0139,2.1168,2.1168,2.1168,2.1168,2.1168,2.1168,2.1168,2.1631,2.1908,2.1908,2.1908,2.2093,2.2544,2.3107,2.3107,0.0,0.0,-0.4309,-0.3767,0.0,0.0,0.0,0.0,0.0,0.0,0.0,0.0,0.0,0.0,0.0,0.0,0.0,0.0,0.0,-0.4251,-0.4616,-0.5081,-0.5927,-0.6195,-0.5683,-0.6186,-0.6493,-0.6417,-0.6098,-0.5863,-0.5882,-0.4703,-0.3934,-0.3697,-0.3066,-0.2422,-0.1766,-0.143,-0.1009,-0.0421,0.0505,0.101,0.1346,0.1934,0.237,0.2739,0.2748,0.2782,0.2829,0.284,0.3034,0.3412,0.4218,0.4933,0.5825,0.8149,0.913,0.9491,1.0743,1.1099,1.0921,1.0387,0.9941,0.9566,0.9643,0.9757,1.0,1.0647,1.133,1.2039,1.2744,1.323,1.3856,1.4999,1.5969,1.7016,1.8401,1.9108,1.9902,2.1638,2.1638,2.1379,2.1562,2.1562,2.1302,2.0694,2.02,1.9813,1.9597,1.9455,1.9229,1.8997,1.8823,1.9006,1.9743,2.0135,2.064,2.1159,2.1168,2.1168,2.1168,2.1538,2.1538,2.1168,2.2001,2.2083,2.1446,2.2083,2.2268,2.2185,2.3005,2.3198,-0.684,-0.6202,0.0,-0.4449,-0.3915,0.0,-0.2982,0.0,-0.2559,0.0,0.0,0.0,0.0,0.0,0.0,0.0,0.0,0.0,0.0,-0.5024,-0.54,-0.5427,-0.5898,-0.6235,-0.6264,-0.6321,-0.6447,-0.666,-0.603,-0.56,-0.554,-0.3829,-0.2903,-0.2903,-0.1872,-0.1153,-0.0836,-0.0836,-0.0587,0.0,0.0589,0.101,0.1346,0.1934,0.245,0.2722,0.2733,0.2761,0.2797,0.2819,0.2928,0.3214,0.4033,0.4576,0.5291,0.7702,0.8956,0.9758,1.101,1.1366,1.1099,1.0476,1.0298,1.0283,1.0215,1.0224,1.0442,1.1138,1.1625,1.212,1.2744,1.3496,1.438,1.544,1.6401,1.7438,1.867,1.9008,1.9451,2.0749,2.0739,2.0413,2.0327,2.0424,2.0434,2.0172,1.9937,1.9697,1.9328,1.9178,1.9105,1.8815,1.8634,1.8841,1.9635,2.0216,2.0749,2.1159,2.1168,2.1168,2.1168,2.1446,2.1538,2.1168,2.2001,2.2093,2.1446,2.2093,2.2185,2.1908,2.2544,2.2658]},{"header":{"parameterUnit":"m.s-1","parameterCategory":1,"la1":30.6,"la2":29.2853,"lo1":-89.7004,"lo2":-87.6739,"dy":0.0162,"dx":0.0183,"nx":112,"ny":82,"refTime":"2024-09-05T12:00:00:Z","depth":0,"parameterNumber":3,"parameterNumberName":"V-component_of_WINDS"},"data":[0.0,0.0,0.0,0.0,0.0,0.0,0.0,0.0,0.0,0.0,0.0,0.0,0.0,0.0,0.0,0.0,0.0,0.0,0.0,0.0,0.0,0.0,0.0,0.0,0.0,0.0,0.0,0.0,0.0,0.0,0.0,0.0,0.0,0.0,0.0,0.0,0.0,0.0,0.0,0.0,0.0,0.0,0.0,0.0,0.0,0.0,0.0,0.0,0.0,0.0,0.0,0.0,0.0,0.0,0.0,0.0,0.0,0.0,0.0,0.0,0.0,0.0,0.0,0.0,0.0,0.0,0.0,0.0,0.0,0.0,0.0,0.0,0.0,0.0,0.0,0.0,0.0,0.0,0.0,0.0,0.0,0.0,0.0,0.0,0.0,0.0,0.0,0.0,0.0,0.0,4.7289,4.9084,5.0321,5.0676,4.9861,4.9621,4.8274,4.5321,0.0,0.0,0.0,0.0,0.0,0.0,0.0,0.0,0.0,0.0,0.0,0.0,0.0,0.0,0.0,0.0,0.0,0.0,0.0,0.0,0.0,0.0,0.0,0.0,0.0,0.0,0.0,0.0,0.0,0.0,0.0,0.0,0.0,0.0,0.0,0.0,0.0,0.0,0.0,0.0,0.0,0.0,0.0,0.0,0.0,0.0,0.0,0.0,0.0,0.0,0.0,0.0,0.0,0.0,0.0,0.0,0.0,0.0,0.0,0.0,0.0,0.0,0.0,0.0,0.0,0.0,0.0,0.0,0.0,0.0,0.0,0.0,0.0,0.0,0.0,0.0,0.0,0.0,0.0,0.0,0.0,0.0,0.0,0.0,0.0,0.0,0.0,0.0,0.0,0.0,0.0,0.0,0.0,0.0,0.0,0.0,0.0,0.0,0.0,0.0,0.0,0.0,0.0,0.0,4.8493,4.9955,5.0173,4.9879,4.9064,4.8845,4.7789,4.5503,0.0,0.0,0.0,0.0,0.0,0.0,0.0,0.0,0.0,0.0,0.0,0.0,0.0,0.0,0.0,0.0,0.0,0.0,0.0,0.0,0.0,0.0,0.0,0.0,0.0,0.0,0.0,0.0,0.0,0.0,0.0,0.0,0.0,0.0,0.0,0.0,0.0,0.0,0.0,0.0,0.0,0.0,0.0,0.0,0.0,0.0,0.0,0.0,0.0,0.0,0.0,0.0,0.0,0.0,0.0,0.0,0.0,0.0,0.0,0.0,0.0,0.0,0.0,0.0,0.0,0.0,0.0,0.0,0.0,0.0,0.0,0.0,0.0,0.0,0.0,0.0,0.0,0.0,0.0,0.0,0.0,0.0,0.0,0.0,0.0,0.0,0.0,0.0,0.0,0.0,0.0,0.0,0.0,0.0,0.0,0.0,0.0,0.0,0.0,0.0,0.0,0.0,0.0,4.8699,4.9835,5.0882,5.1727,5.1711,5.0427,5.0192,4.915,4.6903,4.5513,0.0,0.0,0.0,0.0,0.0,0.0,0.0,0.0,0.0,0.0,0.0,0.0,0.0,0.0,0.0,0.0,0.0,0.0,0.0,0.0,0.0,0.0,0.0,0.0,0.0,0.0,0.0,0.0,0.0,0.0,0.0,0.0,0.0,0.0,0.0,0.0,0.0,0.0,0.0,0.0,0.0,0.0,0.0,0.0,0.0,0.0,0.0,0.0,0.0,0.0,0.0,0.0,0.0,0.0,0.0,0.0,0.0,0.0,0.0,0.0,0.0,0.0,0.0,0.0,0.0,0.0,0.0,0.0,0.0,0.0,0.0,0.0,0.0,0.0,0.0,0.0,0.0,0.0,0.0,0.0,0.0,0.0,0.0,0.0,0.0,0.0,0.0,0.0,0.0,0.0,0.0,0.0,0.0,0.0,0.0,0.0,0.0,0.0,0.0,0.0,0.0,0.0,5.0204,5.1091,5.1847,5.3063,5.3212,5.1737,5.115,5.005,4.815,4.6435,0.0,0.0,0.0,0.0,0.0,0.0,0.0,0.0,0.0,0.0,0.0,0.0,0.0,0.0,0.0,0.0,0.0,0.0,0.0,0.0,0.0,0.0,0.0,0.0,0.0,0.0,0.0,0.0,0.0,0.0,0.0,0.0,0.0,0.0,0.0,0.0,0.0,0.0,0.0,0.0,0.0,0.0,0.0,0.0,0.0,0.0,0.0,0.0,0.0,0.0,0.0,0.0,0.0,0.0,0.0,0.0,0.0,0.0,0.0,0.0,0.0,0.0,0.0,0.0,0.0,0.0,0.0,0.0,0.0,0.0,0.0,0.0,0.0,0.0,0.0,0.0,0.0,0.0,0.0,0.0,0.0,0.0,0.0,0.0,0.0,0.0,0.0,0.0,0.0,0.0,0.0,0.0,0.0,0.0,0.0,0.0,0.0,0.0,0.0,0.0,0.0,0.0,5.0831,5.2006,5.283,5.2966,5.2614,5.1772,5.0213,4.9022,4.8399,4.6737,0.0,0.0,0.0,0.0,0.0,0.0,0.0,0.0,0.0,0.0,0.0,0.0,0.0,0.0,0.0,0.0,0.0,0.0,0.0,0.0,0.0,0.0,0.0,0.0,0.0,0.0,0.0,0.0,0.0,0.0,0.0,0.0,0.0,0.0,0.0,0.0,0.0,0.0,0.0,0.0,0.0,0.0,0.0,0.0,0.0,0.0,0.0,0.0,0.0,0.0,0.0,0.0,0.0,0.0,0.0,0.0,0.0,0.0,0.0,0.0,0.0,0.0,0.0,0.0,0.0,0.0,0.0,0.0,0.0,0.0,0.0,0.0,0.0,0.0,0.0,0.0,0.0,0.0,0.0,0.0,0.0,0.0,0.0,0.0,0.0,0.0,0.0,0.0,0.0,0.0,0.0,0.0,0.0,0.0,0.0,0.0,0.0,0.0,0.0,0.0,0.0,0.0,5.0933,5.2182,0.0,5.3553,5.3498,5.2711,5.1503,5.0349,4.9271,0.0,0.0,0.0,0.0,0.0,0.0,0.0,0.0,0.0,0.0,0.0,0.0,0.0,0.0,0.0,0.0,0.0,0.0,0.0,0.0,0.0,0.0,0.0,0.0,0.0,0.0,0.0,0.0,0.0,0.0,0.0,0.0,0.0,0.0,0.0,0.0,0.0,0.0,0.0,0.0,0.0,0.0,0.0,0.0,0.0,0.0,0.0,0.0,0.0,0.0,0.0,0.0,0.0,0.0,0.0,0.0,0.0,0.0,0.0,0.0,0.0,0.0,0.0,0.0,0.0,0.0,0.0,0.0,0.0,0.0,0.0,0.0,0.0,0.0,0.0,0.0,0.0,0.0,0.0,0.0,0.0,0.0,0.0,0.0,0.0,0.0,0.0,0.0,0.0,0.0,0.0,0.0,0.0,0.0,0.0,0.0,0.0,0.0,0.0,0.0,0.0,0.0,4.9762,5.1356,5.2677,0.0,5.4071,5.4183,5.3637,5.2503,5.1217,4.9834,0.0,0.0,0.0,0.0,0.0,0.0,0.0,0.0,0.0,0.0,0.0,0.0,0.0,0.0,0.0,0.0,0.0,0.0,0.0,0.0,0.0,0.0,0.0,0.0,0.0,0.0,0.0,0.0,0.0,0.0,0.0,0.0,0.0,0.0,0.0,0.0,0.0,0.0,0.0,0.0,0.0,0.0,0.0,0.0,0.0,0.0,0.0,0.0,0.0,0.0,0.0,0.0,0.0,0.0,0.0,0.0,0.0,0.0,0.0,0.0,0.0,0.0,0.0,0.0,0.0,0.0,0.0,0.0,0.0,0.0,0.0,0.0,0.0,0.0,0.0,0.0,0.0,0.0,0.0,0.0,0.0,0.0,0.0,0.0,0.0,0.0,0.0,0.0,0.0,0.0,0.0,0.0,0.0,0.0,0.0,0.0,0.0,0.0,0.0,0.0,0.0,0.0,5.0606,5.2284,5.3607,5.4313,5.4409,5.4409,5.4409,5.2803,5.1227,0.0,0.0,0.0,0.0,0.0,0.0,0.0,0.0,0.0,0.0,0.0,0.0,0.0,0.0,0.0,0.0,0.0,0.0,0.0,0.0,0.0,0.0,0.0,0.0,0.0,0.0,0.0,0.0,0.0,0.0,0.0,0.0,0.0,0.0,0.0,0.0,0.0,0.0,0.0,0.0,0.0,0.0,0.0,0.0,0.0,0.0,0.0,0.0,0.0,0.0,0.0,0.0,0.0,0.0,0.0,0.0,0.0,0.0,0.0,0.0,0.0,0.0,0.0,0.0,0.0,0.0,0.0,0.0,0.0,0.0,0.0,0.0,0.0,0.0,0.0,0.0,0.0,0.0,0.0,0.0,0.0,0.0,0.0,0.0,0.0,0.0,0.0,0.0,0.0,0.0,0.0,0.0,0.0,0.0,0.0,0.0,0.0,0.0,0.0,0.0,0.0,0.0,0.0,5.0793,5.2799,5.4242,5.4434,5.4443,5.4409,5.4409,5.3416,5.2129,5.0591,0.0,0.0,0.0,0.0,0.0,0.0,0.0,0.0,0.0,0.0,0.0,0.0,0.0,0.0,0.0,0.0,0.0,0.0,0.0,0.0,0.0,0.0,0.0,0.0,0.0,0.0,0.0,0.0,0.0,0.0,0.0,0.0,0.0,0.0,0.0,0.0,0.0,0.0,0.0,0.0,0.0,0.0,0.0,0.0,0.0,0.0,0.0,0.0,0.0,0.0,0.0,0.0,0.0,0.0,0.0,0.0,0.0,0.0,0.0,0.0,0.0,0.0,0.0,0.0,0.0,0.0,0.0,0.0,0.0,0.0,0.0,0.0,0.0,0.0,0.0,0.0,0.0,0.0,0.0,0.0,0.0,0.0,0.0,0.0,0.0,0.0,0.0,0.0,0.0,0.0,0.0,0.0,0.0,0.0,0.0,0.0,0.0,0.0,0.0,0.0,0.0,0.0,5.1357,5.3308,5.4754,5.5007,5.5032,5.5016,5.5049,5.4547,5.3451,5.1556,0.0,0.0,0.0,0.0,0.0,0.0,0.0,0.0,0.0,0.0,0.0,0.0,0.0,0.0,0.0,0.0,0.0,0.0,0.0,0.0,0.0,0.0,0.0,0.0,0.0,0.0,0.0,0.0,0.0,0.0,0.0,0.0,0.0,0.0,0.0,0.0,0.0,0.0,0.0,0.0,0.0,0.0,0.0,0.0,0.0,0.0,0.0,0.0,0.0,0.0,0.0,0.0,0.0,0.0,0.0,0.0,0.0,0.0,0.0,0.0,0.0,0.0,0.0,0.0,0.0,0.0,0.0,0.0,0.0,0.0,0.0,0.0,0.0,0.0,0.0,0.0,0.0,0.0,0.0,0.0,0.0,0.0,0.0,0.0,0.0,0.0,0.0,0.0,0.0,0.0,0.0,0.0,0.0,0.0,0.0,0.0,0.0,0.0,0.0,0.0,0.0,0.0,5.2332,5.4004,5.5297,5.5972,5.6031,5.6026,5.6106,5.5956,5.4899,5.2754,0.0,0.0,0.0,0.0,0.0,0.0,0.0,0.0,0.0,0.0,0.0,0.0,0.0,0.0,0.0,0.0,0.0,0.0,0.0,0.0,0.0,0.0,0.0,0.0,0.0,0.0,0.0,0.0,0.0,0.0,0.0,0.0,0.0,0.0,0.0,0.0,0.0,0.0,0.0,0.0,0.0,0.0,0.0,0.0,0.0,0.0,0.0,0.0,0.0,0.0,0.0,0.0,0.0,0.0,0.0,0.0,0.0,0.0,0.0,0.0,5.151,4.8797,0.0,0.0,0.0,0.0,0.0,0.0,0.0,0.0,0.0,0.0,0.0,0.0,0.0,0.0,0.0,0.0,0.0,0.0,0.0,0.0,0.0,0.0,0.0,0.0,0.0,0.0,0.0,0.0,0.0,0.0,0.0,0.0,0.0,0.0,0.0,0.0,0.0,0.0,0.0,0.0,5.4147,5.5753,5.6841,5.6976,5.6911,5.6894,5.7008,5.6355,5.5454,5.4283,5.3437,0.0,0.0,0.0,0.0,0.0,0.0,0.0,0.0,0.0,0.0,0.0,0.0,0.0,0.0,0.0,0.0,0.0,0.0,0.0,0.0,0.0,0.0,0.0,0.0,0.0,0.0,0.0,0.0,0.0,0.0,0.0,0.0,0.0,0.0,0.0,0.0,0.0,0.0,0.0,0.0,0.0,0.0,0.0,0.0,0.0,0.0,0.0,0.0,0.0,0.0,0.0,0.0,0.0,0.0,0.0,0.0,0.0,0.0,0.0,5.4795,5.2743,0.0,0.0,0.0,0.0,0.0,0.0,0.0,0.0,0.0,0.0,0.0,0.0,0.0,0.0,0.0,0.0,0.0,0.0,0.0,0.0,0.0,0.0,0.0,0.0,0.0,0.0,0.0,0.0,0.0,0.0,0.0,0.0,0.0,0.0,0.0,0.0,0.0,0.0,0.0,0.0,5.4936,5.6487,5.7658,5.8076,5.8046,5.8046,5.8174,5.7726,5.6884,5.5624,5.4752,0.0,0.0,0.0,0.0,0.0,0.0,0.0,0.0,0.0,0.0,0.0,0.0,0.0,0.0,0.0,0.0,0.0,0.0,0.0,0.0,0.0,0.0,0.0,0.0,0.0,0.0,0.0,0.0,0.0,0.0,0.0,0.0,0.0,0.0,0.0,0.0,0.0,0.0,0.0,0.0,0.0,0.0,0.0,0.0,0.0,0.0,0.0,0.0,0.0,0.0,0.0,0.0,0.0,6.1037,6.1489,6.2193,6.2165,6.2197,6.212,5.8327,5.739,5.8389,5.5652,0.0,0.0,0.0,0.0,0.0,0.0,0.0,0.0,0.0,0.0,0.0,0.0,0.0,0.0,0.0,0.0,0.0,0.0,0.0,0.0,0.0,0.0,5.8023,5.7985,5.8961,5.8732,5.4331,0.0,0.0,0.0,0.0,0.0,0.0,0.0,0.0,0.0,0.0,0.0,5.5658,5.7158,5.8429,5.914,5.9216,5.9244,5.9352,5.9158,5.8429,5.7028,5.6002,5.5055,0.0,0.0,0.0,0.0,0.0,0.0,0.0,0.0,0.0,0.0,0.0,0.0,0.0,0.0,0.0,0.0,0.0,0.0,0.0,0.0,0.0,0.0,0.0,0.0,0.0,0.0,0.0,0.0,0.0,0.0,0.0,0.0,5.0944,5.2795,0.0,0.0,0.0,0.0,0.0,0.0,0.0,0.0,0.0,0.0,0.0,0.0,0.0,6.2538,6.4217,6.4897,6.5683,6.6543,6.7232,6.7629,6.7706,6.6979,6.7036,6.7567,6.5654,0.0,5.9654,5.9154,0.0,0.0,0.0,0.0,0.0,0.0,0.0,0.0,0.0,0.0,0.0,0.0,0.0,0.0,0.0,0.0,0.0,0.0,0.0,0.0,0.0,0.0,6.2425,6.2388,6.2566,6.2374,6.0879,5.8119,5.5709,5.4955,5.4879,0.0,0.0,0.0,0.0,0.0,0.0,0.0,5.7365,5.8918,6.0012,6.0127,6.0127,6.0155,6.0313,5.9624,5.9035,5.8682,5.7853,5.711,5.6614,5.5859,0.0,0.0,0.0,0.0,0.0,0.0,0.0,0.0,0.0,0.0,0.0,0.0,0.0,0.0,0.0,0.0,0.0,0.0,0.0,0.0,0.0,0.0,0.0,0.0,0.0,0.0,0.0,0.0,0.0,5.1601,5.3436,5.4262,5.4498,5.4343,0.0,0.0,0.0,0.0,0.0,0.0,0.0,0.0,0.0,6.426,6.5002,6.6204,6.8016,6.7847,6.816,6.9001,6.8897,6.9101,6.9537,6.9188,6.9227,6.9508,6.8864,6.7268,6.4954,6.3404,6.2051,6.0812,0.0,0.0,0.0,0.0,5.7271,5.8325,5.7901,5.8582,5.955,5.9188,0.0,0.0,0.0,0.0,0.0,0.0,0.0,6.1109,6.1439,6.3449,6.5244,6.4731,6.5077,6.5254,6.4397,6.258,6.0406,5.7992,5.7927,5.7864,5.6587,0.0,0.0,0.0,0.0,5.8419,5.8704,5.9779,6.052,6.052,6.052,6.0533,6.0597,6.0265,5.9805,5.9203,5.8781,5.8196,5.7392,5.6958,5.6327,0.0,0.0,0.0,0.0,0.0,0.0,0.0,0.0,0.0,0.0,0.0,0.0,0.0,0.0,0.0,0.0,0.0,0.0,0.0,0.0,0.0,0.0,0.0,0.0,0.0,0.0,0.0,0.0,5.4365,5.5906,5.5906,5.6893,5.7035,0.0,0.0,0.0,0.0,0.0,0.0,6.2815,6.4387,6.6004,6.7564,6.8543,6.9547,7.0657,7.044,7.0369,7.0532,7.0136,7.0296,7.0834,7.0904,7.1021,7.124,7.127,7.0945,7.0191,6.7282,6.5553,6.4626,6.3293,6.2655,6.2325,6.102,6.1512,6.2766,6.2175,6.2909,6.396,6.3447,6.2891,6.2308,6.165,0.0,0.0,0.0,0.0,6.4642,6.4794,6.6241,6.7483,6.6817,6.7436,6.7884,6.6819,6.6255,6.4872,6.121,6.0851,6.0711,5.9307,0.0,0.0,0.0,0.0,5.9826,5.955,6.0207,6.0722,6.0722,6.0722,6.0722,6.0722,6.0722,6.0416,5.9677,5.9588,5.915,5.8286,5.8152,5.7642,5.6715,0.0,0.0,0.0,0.0,0.0,0.0,0.0,0.0,0.0,0.0,0.0,0.0,0.0,0.0,0.0,0.0,0.0,0.0,0.0,0.0,0.0,0.0,0.0,0.0,0.0,0.0,0.0,0.0,0.0,5.8583,6.0125,0.0,0.0,0.0,0.0,6.1325,6.3758,6.5592,6.6475,6.8124,6.9436,7.0371,7.1989,7.2477,7.1733,7.3334,7.3295,7.1728,7.2516,7.2874,7.2832,7.2878,7.3262,7.4006,7.4017,7.397,7.3695,7.0235,6.8243,6.7414,6.7329,6.6738,6.5953,6.5837,6.6448,6.7286,6.737,6.7928,6.8566,6.8613,6.7393,6.5923,6.5731,6.4556,0.0,0.0,6.4781,6.5594,6.6384,6.7965,6.9351,6.9241,7.0036,7.0324,6.8642,6.895,6.8514,6.5013,6.368,6.2872,6.2038,0.0,6.132,5.9627,6.0165,6.0446,5.9627,6.0242,6.0781,6.0781,6.0781,6.0781,6.0781,6.0781,6.0722,6.0546,6.0546,6.0376,6.0,5.9969,5.945,5.8329,5.8237,0.0,0.0,0.0,0.0,0.0,0.0,0.0,0.0,0.0,0.0,0.0,0.0,0.0,0.0,0.0,0.0,0.0,0.0,0.0,0.0,0.0,0.0,0.0,0.0,0.0,0.0,0.0,0.0,6.1292,6.2432,0.0,6.2834,6.4064,6.4899,6.4953,6.739,6.9231,7.0043,7.1168,7.221,7.309,7.3646,7.4049,7.4311,7.4377,7.4377,7.4311,7.4611,7.5015,7.5528,7.5528,7.5656,7.5922,7.5285,7.4724,7.4086,7.288,7.1788,7.0959,7.0951,7.0699,7.031,6.9758,7.0078,7.0679,6.9679,6.9855,7.0409,6.9895,6.8917,6.8016,6.8425,6.8093,6.7651,6.8398,6.868,6.8993,6.9926,7.0695,7.1385,7.203,7.2482,7.2635,7.1993,7.1672,7.1107,6.9861,6.7574,6.5789,6.5445,6.4508,6.3561,6.287,6.2589,6.232,6.2012,6.2204,6.2397,6.2397,6.2397,6.2397,6.2397,6.236,6.208,6.1531,6.1953,6.186,6.1158,6.1567,6.1401,6.0402,5.9712,5.8549,0.0,0.0,0.0,0.0,0.0,0.0,0.0,0.0,0.0,0.0,0.0,0.0,0.0,0.0,0.0,0.0,0.0,0.0,0.0,0.0,0.0,0.0,0.0,0.0,0.0,6.0921,6.2891,6.3219,6.5055,6.6174,6.5971,6.7723,6.8905,6.8979,7.086,7.2232,7.2744,7.3327,7.4059,7.4903,7.519,7.559,7.6152,7.617,7.6159,7.6159,7.646,7.6825,7.7339,7.7358,7.7345,7.7304,7.7032,7.6349,7.5533,7.5502,7.515,7.4467,7.3558,7.32,7.3044,7.2181,7.222,7.254,7.1472,7.1454,7.1775,7.1184,7.0467,6.9934,7.0697,7.0811,7.0886,7.1673,7.1717,7.1697,7.239,7.2643,7.2879,7.3498,7.3921,7.4137,7.3843,7.3522,7.3188,7.2918,7.0551,6.8393,6.7754,6.674,6.5676,6.4756,6.4128,6.3628,6.3346,6.3308,6.3308,6.3308,6.3308,6.3308,6.3308,6.3014,6.2592,6.2029,6.2426,6.2259,6.1349,6.2041,6.2008,6.11,6.0608,5.9846,5.8851,0.0,0.0,0.0,0.0,0.0,0.0,0.0,0.0,0.0,0.0,0.0,0.0,0.0,0.0,0.0,0.0,0.0,0.0,0.0,0.0,0.0,0.0,0.0,6.0491,6.3336,6.5182,6.4524,6.8032,7.0297,6.9659,7.1792,7.3283,7.3395,7.4216,7.4647,7.4609,7.4648,7.5036,7.5889,7.6729,7.7176,7.716,7.8793,7.8764,7.7087,7.7952,7.8351,7.8287,7.8347,7.8342,7.8326,7.921,7.9065,7.8139,7.8139,7.8092,7.7775,7.5205,7.415,7.3985,7.321,7.2956,7.2988,7.3027,7.2923,7.284,7.2871,7.2279,7.1717,7.253,7.2656,7.2696,7.342,7.3522,7.3413,7.3451,7.3599,7.3729,7.3703,7.4359,7.4821,7.3947,7.4448,7.4794,7.4034,7.2479,7.072,6.8949,6.8629,6.7756,6.5217,6.482,0.0,6.3666,6.3551,6.3538,6.3512,6.35,6.35,6.3462,6.2781,6.2296,6.2183,6.2043,6.1671,6.0853,6.1515,6.1447,6.0537,6.1066,6.1438,6.1605,0.0,0.0,0.0,0.0,0.0,0.0,0.0,0.0,0.0,0.0,0.0,0.0,0.0,0.0,0.0,0.0,0.0,0.0,0.0,0.0,0.0,6.3175,6.4965,6.4957,6.5762,6.7218,6.9518,7.0828,7.2178,7.389,7.4085,7.4677,7.5976,7.6289,7.668,7.7304,7.7929,7.8359,7.8554,7.878,7.8922,7.8911,7.937,7.9349,7.8893,7.9786,8.0177,8.015,8.0197,8.0197,8.0146,7.9778,7.9432,7.911,7.907,7.9026,7.88,7.6782,7.5982,7.5935,7.5702,7.5255,7.4808,7.5429,7.4865,7.3903,7.4518,7.413,7.3488,7.3598,7.3635,7.3633,7.3762,7.37,7.3704,7.4422,7.459,7.4758,7.5463,7.5809,7.5948,7.5705,7.5859,7.5948,7.5716,7.5279,7.4405,7.2633,7.181,7.1142,7.0374,6.9669,0.0,6.8912,6.886,6.859,6.8013,6.8475,6.8321,6.7077,6.7359,6.7051,6.5795,6.6282,6.6473,6.6202,6.6367,6.603,6.5044,6.5176,6.497,0.0,0.0,0.0,0.0,0.0,0.0,0.0,0.0,0.0,0.0,0.0,0.0,0.0,0.0,0.0,0.0,0.0,0.0,0.0,0.0,0.0,0.0,6.6046,6.8202,6.9302,6.9135,6.9763,7.2216,7.3387,7.4655,7.6248,7.656,7.7109,7.8119,7.8195,7.8543,7.9399,7.9936,8.0324,8.0643,8.1049,8.121,8.121,8.1586,8.1764,8.1766,8.2299,8.2531,8.2539,8.2539,8.2344,8.1954,8.1474,8.102,8.0588,8.0213,8.0,7.9796,0.0,0.0,0.0,0.0,7.6594,7.6419,7.6253,7.5797,7.5262,7.5408,7.4874,7.427,7.4527,7.4829,7.5177,7.5485,7.5686,7.5978,7.6614,7.6734,7.671,7.6958,7.7008,7.6908,7.6521,7.6421,7.6397,7.6397,7.6397,0.0,7.5074,7.3852,7.2773,7.1979,7.1389,7.1056,7.1056,7.0992,7.076,7.0298,7.0643,7.0514,6.9552,6.959,0.0,0.0,0.0,6.8831,6.8789,6.8482,0.0,0.0,0.0,0.0,0.0,0.0,0.0,0.0,6.6315,6.5687,0.0,0.0,0.0,0.0,0.0,0.0,0.0,0.0,0.0,0.0,0.0,0.0,0.0,0.0,0.0,0.0,6.8619,7.0741,7.3371,7.3008,7.2815,7.3623,7.5651,7.7182,7.7573,7.8864,7.9838,8.0124,8.0032,8.0367,8.1286,8.1338,0.0,0.0,0.0,8.3617,8.3635,8.4408,8.4804,8.4804,8.4795,8.4786,8.4827,8.4825,8.4396,8.3656,8.3739,8.3257,8.2436,8.1668,8.126,8.1038,7.9787,7.9364,7.9204,7.7607,7.7437,7.7836,7.6445,0.0,0.0,7.6056,7.5249,7.4783,7.556,7.6244,7.6943,7.7796,7.8497,7.8971,7.9094,7.9106,7.8912,7.8191,7.7976,7.7739,7.6964,7.6765,7.6692,7.668,7.6641,7.6564,7.6564,7.519,7.3558,7.1953,7.167,7.1709,7.1709,7.1647,7.157,7.1454,7.1582,0.0,7.122,7.0706,7.0321,7.0129,7.0099,7.0071,6.9956,6.9505,6.9875,7.118,7.1375,7.2467,7.4571,7.4618,7.5386,7.6685,7.0506,6.825,0.0,0.0,0.0,0.0,0.0,0.0,0.0,0.0,0.0,0.0,0.0,0.0,0.0,0.0,0.0,6.8581,7.0863,7.3381,7.6014,7.6193,7.6169,7.6328,7.6797,7.7888,7.999,7.9879,8.054,8.2604,8.2127,8.2396,8.3952,8.3939,8.3948,8.4104,8.4295,8.4405,8.4395,8.4619,8.4756,8.4796,8.4803,0.0,8.4879,8.4879,8.48,8.4645,8.4648,8.4529,8.4285,8.4137,8.3956,8.3533,8.0536,7.9398,7.9359,7.9001,7.8928,7.8979,7.8712,7.8695,7.8659,7.7813,7.7386,7.7308,7.7464,7.761,0.0,7.8796,7.9068,7.9135,7.9184,7.9153,7.9044,7.8899,7.885,7.8811,7.8618,7.8607,7.8585,7.858,7.8026,7.75,7.7454,7.6591,7.5767,7.5446,7.5321,7.5284,7.5284,7.526,7.4912,7.4218,7.5347,7.5292,7.3264,7.4134,7.4207,7.286,7.3346,7.3409,7.2755,7.4405,7.4826,7.3791,7.5604,7.6473,7.6244,7.6914,7.7449,7.7717,7.5674,7.5167,0.0,0.0,0.0,0.0,0.0,0.0,0.0,0.0,0.0,0.0,0.0,6.4989,6.5418,0.0,6.9816,7.1054,7.3465,7.5594,7.6927,7.7848,7.8398,7.8394,7.878,7.9701,8.141,8.1598,8.2288,8.3966,8.3688,8.4028,8.5286,8.5286,8.5251,8.5214,8.5641,8.563,8.5221,8.5698,8.5981,8.6038,8.6101,8.611,8.6151,8.6157,8.5924,8.5495,8.5073,8.4882,8.4803,8.4353,8.4111,8.3883,8.2091,8.1399,8.1298,8.0815,8.0634,8.0491,7.9636,7.9618,7.9795,7.894,7.8629,7.8629,7.8629,7.8979,7.9358,7.9806,8.0204,8.0495,8.0495,8.0474,8.0348,7.9941,7.9815,7.9678,7.9251,7.9114,7.9121,7.9094,7.8734,7.8452,7.8344,7.7983,7.7403,7.6514,7.6722,7.7007,7.7007,7.6945,7.6907,7.6907,7.7227,7.7095,7.6181,7.6789,7.6899,7.6053,7.6361,7.6438,7.6015,7.7085,7.7467,7.7035,7.8126,7.8688,7.8596,7.9474,7.9895,7.9895,7.9856,7.9076,0.0,0.0,0.0,0.0,0.0,0.0,0.0,6.4283,6.552,6.5673,6.7227,6.8702,6.9245,7.0639,7.2258,7.3924,7.5831,7.7294,7.7804,7.9219,8.0266,8.0419,8.0905,8.1613,8.2596,8.3318,8.4033,8.4863,8.4941,8.5345,8.6334,8.6257,8.6226,8.6316,8.6839,8.673,8.6077,8.6809,8.7222,8.7286,8.733,8.7401,8.7384,8.7397,8.701,8.6309,8.5686,8.5383,8.5312,8.4559,8.426,8.4267,8.4186,8.3915,8.3462,8.2715,8.2223,8.174,8.05,8.0405,8.0697,7.9834,7.9562,7.9562,7.9562,8.0028,8.0679,8.0951,8.1524,8.2106,8.2261,8.23,8.2116,8.13,8.1048,8.0786,7.9893,7.966,7.9657,7.9631,7.9504,7.9365,7.9257,7.9129,7.8537,7.7132,7.7481,7.7945,7.7945,7.7896,7.8142,7.8838,7.8387,7.8243,7.8801,7.8652,7.8477,7.8477,7.8477,7.8477,7.8477,7.8592,7.8919,7.9489,7.9748,8.0195,8.0735,8.1614,8.2034,8.2034,8.2684,8.1461,5.6463,5.7314,5.9251,6.1734,6.302,6.4536,0.0,6.9267,7.0204,7.0972,7.3065,7.457,7.3891,7.457,7.5797,7.7531,7.7399,7.7923,8.0234,8.1363,8.2203,8.2983,8.2464,8.2708,8.4272,8.4455,8.4825,8.5687,8.5758,8.6498,8.8126,8.7464,8.7417,8.8188,8.7414,8.7007,8.6933,8.7058,8.7145,8.7222,8.7298,8.7341,8.7386,8.739,8.7358,8.7258,8.7155,8.7133,8.7107,8.6991,8.6979,8.6957,8.6975,8.5951,8.4506,8.4363,8.3306,8.2061,8.2637,8.2379,8.1597,8.0736,8.0455,8.0455,8.0455,8.0533,8.0921,8.2388,8.2893,8.3126,8.3903,8.4097,8.3903,8.3019,8.2825,8.2592,8.1767,8.1611,8.1553,8.1494,8.0873,8.0299,8.0179,7.9575,7.9021,7.8769,7.8796,7.8834,7.8834,7.8873,7.8861,7.8977,7.9495,7.9789,7.9765,7.8983,7.8477,7.8477,7.8477,7.8477,7.8477,7.9169,7.9533,7.9489,8.0879,8.1631,8.1652,8.2455,8.2875,8.2875,8.2951,8.2798,6.0606,6.2106,6.3908,6.6044,6.7621,6.9163,7.1167,7.2661,7.3752,7.4137,7.5855,7.7182,7.6825,7.7078,7.7716,7.8971,7.9294,7.9922,8.1522,8.2441,8.3458,8.4802,8.459,8.465,8.535,8.5789,8.6187,8.6536,8.7058,8.7409,8.7625,8.7806,8.8048,8.8437,8.8014,8.7794,8.7785,8.7314,8.7121,8.7135,8.7215,8.7264,8.7355,8.7355,8.7096,8.6648,8.6639,8.6657,8.6666,8.6678,8.6679,8.6634,8.662,8.5855,8.4767,8.4685,8.352,8.2061,8.2427,8.2287,8.1881,8.1481,8.1346,8.1346,8.1358,8.1349,8.163,8.2823,8.3143,8.3376,8.4232,8.4465,8.4378,8.3961,8.3874,8.3757,8.3446,8.3369,8.3194,8.2678,8.2241,8.1833,8.1204,8.081,8.0555,8.052,8.0058,7.9685,7.9685,7.9685,7.9685,7.9685,8.0357,8.0765,8.0709,8.0284,8.0015,8.0015,8.0015,8.0015,8.0015,8.0331,8.0459,8.0339,8.1389,8.1969,8.199,8.3218,8.383,8.3943,8.4402,8.4614,6.3748,6.5539,6.7164,6.9159,7.1121,7.2881,7.4017,7.5431,7.6602,7.6836,7.7898,7.8842,7.9083,7.8939,7.91,8.0234,8.0936,8.1632,8.2531,8.3549,8.4633,8.5873,8.6131,8.6234,8.6218,8.6972,8.7405,8.7369,8.798,8.83,8.8069,8.8287,8.8623,8.909,8.8662,8.8412,8.8321,8.7492,8.7089,8.7098,8.7167,8.7222,8.7292,8.7307,8.7009,8.6441,8.6477,8.6452,8.6457,8.6513,8.6482,8.6445,8.6441,8.5924,8.5163,8.5118,8.3922,8.2435,8.2652,8.2396,8.2038,8.2232,8.2293,8.2284,8.2297,8.2444,8.2832,8.3684,8.3926,8.412,8.4985,8.5201,8.5105,8.4835,8.4777,8.469,8.4456,8.4418,8.4214,8.3591,8.3465,8.325,8.2538,8.2367,8.2243,8.1999,8.1591,8.1117,8.0614,8.0575,8.0575,8.0575,8.1001,8.1305,8.1291,8.1199,8.1124,8.1093,8.1323,8.1323,8.1093,8.1554,8.1638,8.1272,8.2242,8.2765,8.2804,8.4133,8.4822,8.4934,8.5547,8.5815,6.4688,6.6007,6.7325,6.9919,7.2459,7.48,7.6568,7.7669,7.8564,7.9426,7.9621,7.9901,8.0776,8.0233,8.0234,8.1951,8.2173,8.2472,8.3448,8.4927,8.5927,8.5978,8.6622,8.7033,8.6989,8.7758,8.8263,8.8263,8.8302,8.9041,9.0674,8.9324,8.9247,9.0883,8.9325,8.8453,8.8412,8.7474,8.7046,8.7089,8.7097,8.716,8.7303,8.7355,8.7377,8.7377,8.7362,8.7378,8.7353,8.7366,8.7378,8.7344,8.7344,8.6831,8.6066,8.6077,8.4918,8.3469,8.4234,8.3414,8.2153,8.2972,8.3275,8.3275,8.3267,8.3851,8.4676,8.5494,8.5727,8.5922,8.6778,8.6977,8.6747,8.593,8.5699,8.5428,8.4573,8.4418,8.4379,8.4369,8.4369,8.432,8.4231,8.4178,8.384,8.3006,8.3488,8.336,8.1697,8.1465,8.1465,8.1465,8.144,8.136,8.1291,8.1258,8.1169,8.1093,8.1823,8.19,8.1131,8.267,8.3099,8.2155,8.3769,8.46,8.4512,8.5355,8.5777,8.5777,8.5777,8.5815,6.5889,6.8138,7.0424,7.1952,7.4261,7.6497,7.7673,7.8657,7.9358,7.9631,7.9717,7.9606,7.9335,7.9021,7.9205,8.0404,8.148,8.2709,8.4181,8.582,8.683,8.6799,8.7503,8.7695,8.7058,8.7808,8.8293,8.8293,8.8799,8.9353,9.0013,9.008,9.0366,9.0961,8.9878,8.9286,8.9278,8.7861,8.7152,8.7168,8.716,8.7195,8.7228,8.7309,8.7336,8.7355,8.7377,8.7401,8.7417,8.7392,8.7403,8.741,8.7418,8.7226,8.6874,8.6321,8.5724,8.5077,8.4142,8.3399,8.2881,8.2525,8.2847,8.3314,8.3283,8.3898,8.4762,8.565,8.5852,8.6086,8.6935,8.716,8.7066,8.6722,8.6601,8.6486,8.6175,8.6117,8.5933,8.5389,8.5272,8.5068,8.4466,8.4277,8.4099,8.3759,8.2947,8.2355,8.2355,8.1852,8.1736,8.2316,8.229,8.2482,8.2996,8.2907,8.2886,8.2877,8.3041,8.3048,8.2825,8.3317,8.3439,8.3138,8.4148,8.4746,8.4818,8.5556,8.594,8.5992,8.5992,8.5992,6.7156,6.9679,7.2126,7.3367,7.5414,7.7338,7.8191,7.8821,7.9253,7.9252,7.8983,7.8593,7.8043,7.7948,7.8432,7.9896,8.1555,8.3254,8.4966,8.6418,8.7286,8.7215,8.7916,8.8162,8.7525,8.7983,8.8302,8.8302,8.9313,8.9993,9.0023,9.0587,9.0945,9.1014,9.0143,8.9567,8.9255,8.7892,8.7191,8.7191,8.7188,8.7215,8.7228,8.7264,8.7292,8.7355,8.7377,8.7397,8.7407,8.7417,8.7387,8.7394,8.7407,8.7413,8.7338,8.6757,8.656,8.6362,8.4867,8.3974,8.338,8.307,8.3357,8.3812,8.3803,8.4606,8.5665,8.6193,8.6356,8.6473,8.7057,8.7199,8.7184,8.716,8.7081,8.7046,8.7046,8.701,8.6817,8.6273,8.6137,8.5972,8.5398,8.4915,8.4723,8.4959,8.3515,8.2625,8.3206,8.278,8.2625,8.3206,8.3244,8.3411,8.3848,8.3799,8.3755,8.3813,8.3988,8.3996,8.3764,8.4265,8.4372,8.4103,8.483,8.5236,8.5373,8.5863,8.6247,8.6605,8.6297,8.628,6.8452,7.0678,7.2431,7.4089,7.5826,7.7325,7.8198,7.8358,7.8359,7.832,7.7655,7.7023,7.6917,7.6968,7.7844,8.0285,8.2167,8.395,8.5737,8.6808,8.7403,8.7326,8.8033,8.8503,8.838,8.8371,8.8341,8.8302,8.9818,9.0711,9.0701,9.0868,9.0956,9.0954,9.015,8.9317,8.8539,8.7651,8.7191,8.7199,8.7195,8.7228,8.7303,8.7286,8.7355,8.7417,8.7397,8.7404,8.7404,8.7404,8.7417,8.7389,8.7392,8.7399,8.7408,8.7415,8.7417,8.7264,8.6461,8.5032,8.3735,8.4477,8.4727,8.4756,8.4779,8.5929,8.7209,8.7209,8.7209,8.7209,8.7209,8.7181,8.7191,8.7191,8.716,8.7097,8.7097,8.7055,8.698,8.7019,8.7021,8.6972,8.6909,8.6099,8.5732,8.6507,8.5256,8.4211,8.4173,8.4134,8.4134,8.4173,8.4173,8.4108,8.4041,8.3972,8.3929,8.3944,8.4666,8.4728,8.3968,8.5383,8.5837,8.5082,8.5758,8.6143,8.62,8.62,8.6647,8.7417,8.6569,8.6599,6.9748,7.2057,7.3945,7.4384,7.5804,7.7339,7.8202,7.7929,7.7498,7.745,7.6737,7.5748,7.4438,7.5209,7.6492,7.7789,8.0479,8.326,8.5675,8.7813,8.915,8.9076,8.983,9.0059,8.9265,8.9206,8.8963,8.8341,8.9235,8.9765,8.9627,9.0877,9.1327,9.0594,8.9798,8.9348,8.9157,8.7794,8.7191,8.7273,8.7215,8.7228,8.7298,8.7309,8.7336,8.7417,8.7382,8.7393,8.7404,8.7404,8.7407,8.7414,8.7387,8.7394,8.7399,8.7408,8.7414,8.738,8.7148,8.6363,8.5368,8.4909,8.5188,8.5663,8.5712,8.6412,8.7215,8.7241,8.7228,8.7209,8.7209,8.7202,8.7195,8.7195,8.7206,8.7176,8.7176,8.7105,8.7064,8.7028,8.7021,8.6951,8.6843,8.6615,8.649,8.6661,8.6249,8.572,8.5062,8.4482,8.4327,8.4946,8.4985,8.5243,8.5848,8.5857,8.5843,8.5898,8.5965,8.596,8.5815,8.6069,8.6138,8.6045,8.6123,8.6238,8.6354,8.6354,8.647,8.6662,8.637,8.63,7.0199,7.2544,7.4508,7.4551,7.5579,7.6601,7.6718,7.6363,7.5846,7.5011,7.5074,7.4701,7.2959,7.4324,7.6237,7.7841,8.0344,8.3137,8.6118,8.7754,8.863,8.8609,8.9674,9.0215,8.9586,8.9517,8.9458,8.9359,8.9458,8.9249,8.8699,9.0351,9.0713,8.9396,8.9305,8.8994,8.8389,8.7207,8.6858,8.7281,8.6857,8.689,8.7298,8.7315,8.7341,8.7417,8.7386,8.7397,8.7404,8.7404,8.7404,8.7407,8.7417,8.7381,8.7384,8.7399,8.7405,8.741,8.7414,8.7069,8.6521,8.5643,8.5696,8.6059,8.6094,8.6639,8.7259,8.7276,8.7264,8.7247,8.7234,8.7234,8.7228,8.7215,8.7195,8.7213,8.7213,8.7184,8.7105,8.7064,8.6991,8.6923,8.686,8.6804,8.6797,8.6761,8.6725,8.6494,8.5965,8.5501,8.5372,8.5836,8.5875,8.6068,8.6571,8.6542,8.6528,8.6596,8.65,8.6472,8.6542,8.6404,8.636,8.6443,8.6354,8.6354,8.6443,8.6443,8.6636,8.7007,8.6508,8.6447,7.021,7.2438,7.4362,7.4405,7.4999,7.5312,7.445,7.4243,7.3796,7.2141,7.3137,7.3813,7.2209,7.3987,7.6471,7.878,8.0682,8.3104,8.654,8.7117,8.7259,8.7495,8.8818,8.97,8.977,8.9498,8.9719,9.0647,8.9758,8.8833,8.8049,8.9639,8.9833,8.8193,8.8774,8.8399,8.6922,8.6299,8.6373,8.7107,8.6379,8.6446,8.7303,8.7286,8.7312,8.7373,8.7393,8.7397,8.7397,8.7401,8.7404,8.7404,8.7404,8.7404,8.7407,8.7384,8.7389,8.7394,8.7403,8.7411,8.7263,8.6521,8.6274,8.6257,8.6269,8.6749,8.7307,8.7307,8.7302,8.7297,8.7309,8.7303,8.7298,8.7222,8.7215,8.7215,8.7209,8.722,8.7176,8.7105,8.6989,8.6885,8.6758,8.6676,8.6599,8.6522,8.6588,8.6603,8.6568,8.6597,8.6623,8.661,8.661,8.661,8.661,8.6556,8.6542,8.6596,8.6556,8.6542,8.6596,8.6556,8.6553,8.6669,8.652,8.6535,8.6683,8.6567,8.6915,8.761,8.679,8.674,7.0429,7.207,7.3513,7.3515,7.3626,7.3537,7.2639,7.2432,7.2141,7.1054,7.2236,7.31,7.2028,7.3906,7.5988,7.7149,7.9345,8.2108,8.5641,8.6709,8.7658,8.909,8.9476,8.9848,9.0537,8.9323,8.9157,9.0662,8.8691,8.758,8.7912,8.9615,9.0119,8.901,8.8429,8.7442,8.603,8.5909,8.596,8.621,8.6083,8.6462,8.7298,8.7303,8.732,8.7307,8.7312,8.7312,8.7316,8.7377,8.7382,8.7386,8.7401,8.7404,8.7407,8.7411,8.7381,8.7392,8.7394,8.7403,8.7374,8.7224,8.7186,8.717,8.7169,8.7219,8.7295,8.7373,8.7355,8.7302,8.7297,8.7292,8.7286,8.7298,8.7292,8.7286,8.7215,8.722,8.7184,8.7176,8.7105,8.6813,8.603,8.5913,8.5641,8.4932,8.5395,8.5812,8.5882,8.6332,8.6675,8.661,8.661,8.661,8.661,8.6596,8.6596,8.661,8.6596,8.6596,8.661,8.6596,8.6931,8.7627,8.6917,8.6958,8.772,8.6971,8.67,8.6868,8.6619,8.6549,6.9296,7.0661,7.2065,7.2497,7.2296,7.1739,7.0831,7.0668,7.0375,6.9432,7.1009,7.2233,7.1309,7.3237,7.5248,7.6084,7.7929,8.0551,8.4037,8.5253,8.6427,8.814,8.868,8.9061,8.9478,8.9157,8.9274,9.0051,8.9002,8.8406,8.8607,8.8983,8.9203,8.9241,8.8057,8.6943,8.5857,8.5423,8.5504,8.5976,8.5531,8.6017,8.7234,8.7292,8.7309,8.7281,8.7297,8.7302,8.7302,8.7316,8.7369,8.7417,8.739,8.7397,8.7404,8.7404,8.7411,8.742,8.742,8.7389,8.7401,8.7407,8.7418,8.7382,8.7416,8.7364,8.7339,8.7401,8.7386,8.7334,8.7365,8.736,8.7355,8.7325,8.7309,8.7298,8.7241,8.7209,8.7064,8.6675,8.6529,8.6171,8.5274,8.511,8.4946,8.4501,8.4785,8.5029,8.5,8.5706,8.6305,8.6636,8.6662,8.6649,8.661,8.661,8.661,8.661,8.661,8.6623,8.6662,8.6662,8.6868,8.7332,8.6906,8.6919,8.7381,8.6894,8.6687,8.6713,8.6569,8.65,6.8078,6.9132,7.0341,7.12,7.0767,6.99,6.9018,6.8973,6.8844,6.7933,6.967,7.117,7.0602,7.2303,7.4204,7.5408,7.6832,7.9026,8.2496,8.3742,8.4924,8.6605,8.7543,8.808,8.8284,8.8711,8.9216,8.976,8.9799,8.968,8.9399,8.8306,8.8139,8.9088,8.7749,8.6669,8.5923,8.5298,8.5326,8.6005,8.5326,8.5765,8.7209,8.7241,8.7292,8.7292,8.7276,8.7281,8.7281,8.7292,8.7346,8.7365,8.7373,8.739,8.7401,8.7404,8.7404,8.7404,8.7404,8.7414,8.7387,8.7387,8.7403,8.7418,8.7382,8.7419,8.7413,8.7389,8.7417,8.7414,8.739,8.7386,8.7377,8.7316,8.7331,8.7309,8.7303,8.728,8.702,8.639,8.6091,8.5641,8.4738,8.4404,8.4194,8.3992,8.4108,8.4232,8.4163,8.4913,8.5698,8.6409,8.6633,8.6713,8.6636,8.6623,8.6623,8.661,8.661,8.6713,8.6984,8.6996,8.711,8.7352,8.7158,8.708,8.708,8.6802,8.67,8.6713,8.6583,8.6528,6.7695,6.8192,6.8444,6.9338,6.8958,6.8096,6.7161,6.7594,6.795,6.7027,6.8252,6.9741,7.0369,7.129,7.2748,7.5119,7.6229,7.8034,8.1554,8.2716,8.3911,8.5706,8.6632,8.7439,8.8215,8.7632,8.8215,9.0587,9.0781,9.0422,8.9634,8.8002,8.7515,8.8455,8.7578,8.6693,8.5916,8.59,8.5916,8.6011,8.5916,8.6329,8.7209,8.7215,8.7215,8.7215,8.7215,8.7215,8.7222,8.7253,8.7303,8.7315,8.736,8.7417,8.7382,8.7401,8.7404,8.7404,8.7404,8.7407,8.7407,8.7407,8.7392,8.7411,8.7417,8.738,8.7382,8.7413,8.7407,8.7401,8.7414,8.7404,8.7401,8.7382,8.7355,8.7292,8.7303,8.7298,8.7247,8.7137,8.6507,8.5676,8.4745,8.3987,8.3215,8.2362,8.29,8.3399,8.3392,8.4107,8.4922,8.5719,8.64,8.6773,8.6713,8.67,8.6675,8.661,8.661,8.6984,8.7848,8.7936,8.8321,8.9058,8.836,8.7972,8.7972,8.7075,8.6649,8.6713,8.6636,8.6596,6.5351,6.5652,6.5995,6.7372,6.6744,6.5796,6.5879,6.581,6.5784,6.5874,6.6873,6.7982,6.8806,7.0045,7.1308,7.2267,7.3493,7.5405,7.8458,7.9977,8.1805,8.4686,8.5738,8.6574,8.7438,8.768,8.8467,9.005,8.9221,8.8732,8.8926,8.8239,8.8014,8.8445,8.7596,8.6763,8.5962,8.5987,8.5993,8.5981,8.5993,8.6416,8.7209,8.7209,8.7209,8.7209,8.7209,8.7195,8.7213,8.7215,8.7241,8.7303,8.7341,8.7373,8.7397,8.7404,8.7404,8.7404,8.7404,8.7056,8.6627,8.6636,8.6603,8.6728,8.7254,8.7413,8.7416,8.7382,8.7381,8.7417,8.7401,8.7384,8.7404,8.7397,8.7369,8.7297,8.7286,8.7259,8.6916,8.589,8.5455,8.4754,8.3338,8.2838,8.2494,8.2124,8.2357,8.2546,8.2518,8.3696,8.4668,8.4937,8.5165,8.5668,8.6696,8.627,8.6168,8.6636,8.7139,8.7617,8.7991,8.848,8.8699,8.8592,8.8243,8.7856,8.7313,8.6867,8.6687,8.6713,8.6636,8.661,6.3744,6.4076,6.45,6.6243,6.5624,6.4714,6.5265,6.4778,6.4367,6.4885,6.5699,6.6574,6.7366,6.8949,7.0258,7.0697,7.1922,7.373,7.641,7.7971,7.9922,8.2951,8.4039,8.5029,8.6182,8.7561,8.8512,8.8935,8.8103,8.7736,8.8102,8.7838,8.7721,8.7751,8.7167,8.6558,8.6001,8.6001,8.6118,8.6351,8.6351,8.6663,8.7209,8.7209,8.7209,8.7209,8.7222,8.7085,8.6863,8.7105,8.7091,8.6952,8.7224,8.7373,8.7401,8.7404,8.7404,8.7368,8.7098,8.6594,8.609,8.6103,8.5947,8.5903,8.6776,8.721,8.7408,8.7419,8.7382,8.7382,8.7417,8.7403,8.7381,8.7381,8.735,8.7312,8.7302,8.7264,8.6871,8.565,8.5027,8.4403,8.3429,8.2611,8.2182,8.2455,8.226,8.2098,8.2033,8.307,8.4022,8.4467,8.4193,8.4629,8.6323,8.5874,8.5762,8.6323,8.7163,8.7757,8.8052,8.857,8.8634,8.815,8.8088,8.7638,8.6773,8.6713,8.6687,8.6687,8.6636,8.661,6.338,6.4043,6.4455,6.6229,6.6093,6.545,6.5395,6.4764,6.4172,6.4145,6.4803,6.5678,6.6471,6.8054,6.9731,7.1314,7.2267,7.3665,7.6172,7.7328,7.8522,8.0228,8.1252,8.2551,8.4435,8.6974,8.8118,8.7308,8.8009,8.8102,8.7248,8.6468,8.604,8.604,8.6001,8.6001,8.6001,8.6001,8.639,8.7209,8.7209,8.7209,8.7209,8.7209,8.7209,8.7209,8.7286,8.6812,8.6085,8.6925,8.6779,8.61,8.7048,8.7417,8.7382,8.7401,8.7404,8.729,8.641,8.6101,8.6103,8.6116,8.5573,8.5063,8.5874,8.6728,8.7394,8.7407,8.7418,8.7383,8.7383,8.7418,8.7408,8.7408,8.7381,8.7373,8.7307,8.732,8.7253,8.7176,8.5845,8.4988,8.5806,8.3819,8.2377,8.3273,8.265,8.2104,8.2104,8.2071,8.2706,8.4419,8.3765,8.3891,8.5583,8.5649,8.5585,8.5529,8.6344,8.722,8.814,8.8123,8.8162,8.8179,8.8064,8.7577,8.6713,8.6649,8.661,8.661,8.661,8.661,6.0183,6.0517,6.0933,6.2725,6.2551,6.225,6.3359,6.2995,6.2591,6.3166,6.3945,6.4748,6.5606,6.7157,6.889,7.0579,7.1497,7.2846,7.5372,7.6497,7.7884,8.0252,8.2937,8.5082,8.6273,8.7128,8.7514,8.7306,8.7501,8.7553,8.727,8.6457,8.6017,8.5999,8.5429,8.5416,8.6001,8.5987,8.6416,8.7209,8.7234,8.7234,8.7209,8.7209,8.7209,8.7209,8.7286,8.676,8.6006,8.6919,8.6779,8.61,8.7048,8.7386,8.7397,8.7404,8.7023,8.6486,8.6218,8.5361,8.4387,8.4398,8.4196,8.3989,8.4307,8.4971,8.5752,8.6332,8.6934,8.7415,8.7415,8.7382,8.7381,8.7416,8.7407,8.7389,8.7372,8.7343,8.6961,8.5721,8.5075,8.4389,8.3474,8.265,8.2182,8.2455,8.226,8.2104,8.2104,8.2604,8.3182,8.3728,8.3968,8.4518,8.5679,8.5709,8.5649,8.5547,8.6943,8.7863,8.8123,8.9176,8.9462,8.8905,8.9359,8.8932,8.7526,8.7499,8.719,8.661,8.661,8.661,5.8525,5.9166,5.9816,6.1573,6.1154,6.0765,6.244,6.1943,6.1373,6.2231,6.3088,6.3896,6.4761,6.6256,6.7943,6.9674,7.0611,7.1991,7.4515,7.5342,7.6749,7.98,8.2972,8.529,8.6161,8.6845,8.7222,8.7298,8.7298,8.7159,8.6843,8.6019,8.539,8.5073,8.4535,8.4668,8.5513,8.5192,8.5627,8.674,8.6485,8.6485,8.674,8.6428,8.6623,8.7208,8.6969,8.6485,0.0,8.66,8.6536,8.6088,8.6667,8.6917,8.6929,8.6929,8.635,8.5579,8.5278,8.4463,8.3606,8.3616,8.3569,8.3476,8.3216,8.4112,8.539,8.5966,8.672,8.7397,8.7392,8.741,8.7381,8.7383,8.7417,8.7407,8.7394,8.7362,8.6892,8.5473,8.493,8.435,8.3279,8.2526,8.2169,8.2533,8.2293,8.2052,8.2104,8.2572,8.3039,8.3351,8.3789,8.4279,8.4799,8.5349,8.569,8.5649,8.6969,8.7724,8.7692,8.8953,8.9382,8.884,8.9604,8.9319,8.7926,8.759,8.7151,8.661,8.661,8.661,0.0,5.9314,6.0333,6.2104,6.1373,6.0638,6.2313,6.1495,0.0,6.1417,6.2274,6.3161,6.3948,6.5369,6.6995,6.8822,6.9772,7.1189,7.3664,7.433,7.5797,7.9182,8.1842,8.3785,8.4715,8.6196,8.7111,8.7108,8.7186,8.6863,8.6051,8.5175,8.4356,8.3514,8.3458,8.3781,8.4607,8.3859,8.4298,8.5893,8.5156,8.5195,8.5893,8.5151,8.5659,8.7063,8.635,8.5916,8.582,8.5945,8.5988,8.5934,8.5968,8.6007,8.6012,8.6012,8.5465,8.4615,8.3867,8.3565,8.3528,8.3499,8.3496,8.337,8.2562,8.3994,8.5924,8.6002,8.6627,8.7323,8.7382,8.7381,8.741,8.7416,8.7382,8.7369,8.7318,8.7276,8.6956,8.6015,8.5153,8.4604,8.452,8.313,8.2298,8.3195,8.2539,8.2026,8.2098,8.2104,8.2416,8.3195,8.3282,8.3314,8.3314,8.4785,8.5661,8.5622,8.6477,8.6982,8.6982,8.7785,8.8179,8.8179,8.8878,8.8817,8.8003,8.7075,8.661,8.661,8.661,8.661,5.5939,0.0,5.7619,5.8646,5.9127,5.9607,0.0,6.1101,6.1343,6.156,6.2297,6.3146,6.394,6.4899,6.6381,6.878,6.9855,7.1264,7.3795,7.6985,7.964,8.1213,8.3148,8.4708,8.5611,8.6065,8.6017,8.5419,8.6024,8.6007,8.5133,8.4274,8.3721,8.3518,8.2901,8.2964,8.3781,8.3575,8.3996,8.5008,8.4854,8.4854,8.5008,8.4873,8.4985,8.5281,8.5156,8.4683,8.4072,8.481,8.4702,8.4191,8.4854,8.5127,8.5092,8.511,8.454,8.3774,8.3638,8.3174,8.2625,8.262,8.2615,8.2573,8.2341,8.3158,8.4242,8.4931,8.5719,8.6545,8.7229,8.7411,8.7399,8.741,8.7418,8.7226,8.6552,8.6376,8.5921,8.4312,8.3844,8.3498,8.2812,8.237,8.2137,8.2377,8.2149,8.2012,8.2019,8.2026,8.2104,8.2298,8.2917,8.3314,8.3314,8.4785,8.5428,8.4767,8.6166,8.6982,8.6982,8.7785,8.8218,8.8218,8.8306,8.8273,8.7991,8.7126,8.6662,8.661,8.661,8.661,5.5099,5.6145,5.7303,5.813,5.8414,5.8889,6.0527,6.0652,6.0655,6.1424,6.1966,6.2664,6.3904,6.4793,6.6201,6.8828,6.9902,7.1464,7.4467,7.7548,7.999,8.1331,8.2689,8.3837,8.474,8.4847,8.4834,8.4785,8.5223,8.5122,8.4245,8.3777,8.3344,8.2944,8.2521,8.2709,8.3497,8.3135,8.3373,8.4169,8.3841,8.3841,8.4169,8.3822,8.4048,8.4741,8.4356,8.4161,8.4039,8.4147,8.4147,8.4117,8.4132,8.4166,8.4166,8.4191,8.3662,8.2897,8.2963,8.2701,8.2313,8.2313,8.231,8.2305,8.2313,8.2618,8.3224,8.4442,8.5426,8.6297,8.7135,8.7393,8.7384,8.7399,8.7411,8.7147,8.6287,8.6112,8.5569,8.3779,8.342,8.3103,8.2266,8.2052,8.2046,8.2104,8.2033,8.2012,8.2033,8.2039,8.2033,8.2012,8.2404,8.2684,8.2659,8.3804,8.4651,8.4962,8.5894,8.6593,8.6982,8.7806,8.8395,8.8761,8.834,8.8088,8.7991,8.7139,8.6675,8.661,8.6569,8.6556,5.4768,5.6361,5.795,5.8542,5.8315,5.8549,6.0694,6.023,5.9723,6.1286,6.1719,6.2301,6.3897,6.4943,6.639,6.8894,7.0257,7.2192,7.5596,7.7533,7.9214,8.0909,8.1805,8.2585,8.3326,8.3469,8.3766,8.4373,8.4533,8.4228,8.3347,8.3308,8.2996,8.2332,8.2293,8.2638,8.3327,8.2654,8.2664,8.3362,8.2664,8.2664,8.3362,8.2648,8.3071,8.4356,8.36,8.3721,8.4356,8.3614,8.3727,8.4329,8.3542,8.3209,8.3215,8.3279,8.2821,8.2205,8.2284,8.2305,8.232,8.229,8.2287,8.232,8.2289,8.2276,8.2599,8.4156,8.5218,8.609,8.6922,8.7265,8.7414,8.7394,8.741,8.7146,8.6288,8.5991,8.5434,8.3783,8.3337,8.2968,8.2227,8.2039,8.2033,8.2104,8.2033,8.2019,8.2091,8.2098,8.2046,8.2012,8.2014,8.1975,8.1934,8.2551,8.3602,8.5195,8.5544,8.6088,8.6943,8.7564,8.8282,8.9005,8.8356,8.7952,8.7822,8.7086,8.6687,8.6623,8.6556,8.6514,5.3928,5.5959,5.7626,5.6995,5.7818,5.8925,5.9315,5.9755,6.0392,6.1459,6.2281,6.3059,6.4014,6.5421,6.7046,6.8992,7.1822,7.4728,7.7428,7.9322,8.0786,8.187,8.2772,8.3352,8.3474,8.3497,8.3237,8.2655,8.3295,8.3344,8.2528,8.2489,8.245,8.2293,8.2293,8.2368,8.2485,8.2347,8.2341,8.239,8.2341,8.2341,8.239,8.2326,8.2401,8.2581,8.246,8.246,8.2581,8.2439,8.2478,8.2573,8.243,8.2382,8.2382,8.2409,8.23,8.2226,8.2263,8.2281,8.229,8.2292,8.2292,8.2289,8.2281,8.2269,8.2404,8.3436,8.4341,8.5211,8.6051,8.6854,8.7394,8.7413,8.7416,8.7148,8.6303,8.551,8.4675,8.3625,8.2819,8.2257,8.211,8.2104,8.2098,8.2104,8.2033,8.2012,8.2019,8.2019,8.2019,8.2012,8.2014,8.1983,8.1983,8.2064,8.2475,8.3446,8.4884,8.6088,8.6943,8.6399,8.6515,8.736,8.7244,8.7135,8.7071,8.6898,8.6761,8.67,8.6623,8.6596,5.3745,5.5858,5.7685,5.7255,5.8457,5.9705,5.9685,5.9997,6.0668,6.2002,6.259,6.3288,6.4601,6.6585,6.89,7.1594,7.3352,7.5261,7.7901,7.8959,7.9949,8.1312,8.1859,8.2093,8.2093,8.2113,8.2166,8.2241,8.2638,8.2684,8.2332,8.2299,8.2302,8.2293,8.2299,8.2302,8.2293,8.2308,8.2269,8.2254,8.2308,8.2269,8.2254,8.2293,8.2287,8.2241,8.223,8.223,8.2237,8.2205,8.2205,8.2183,8.2201,8.2192,8.2196,8.2191,8.2209,8.2257,8.2281,8.2292,8.2299,8.2299,8.2296,8.2292,8.2287,8.2271,8.2329,8.2752,8.3451,8.4306,8.5153,8.5683,8.6017,8.5991,8.636,8.6445,8.5578,8.5439,8.509,8.3708,8.3098,8.2647,8.2188,8.2104,8.2104,8.2104,8.2033,8.2005,8.2005,8.199,8.2007,8.1945,8.1967,8.1943,8.1964,8.192,8.2436,8.3718,8.5,8.6088,8.6943,8.6632,8.6593,8.6982,8.6982,8.6961,8.6899,8.6832,8.6773,8.6713,8.661,8.6556,5.3754,5.5706,5.7534,5.7743,5.9059,6.0336,6.053,6.0594,6.1057,6.2771,6.3283,6.3828,6.5153,6.7847,7.0881,7.4137,7.5021,7.6097,7.8559,7.8915,7.9509,8.102,8.1219,8.1219,8.1219,8.1272,8.1591,8.2254,8.2293,8.2293,8.2293,8.2305,8.2305,8.2293,8.2305,8.2305,8.2299,8.2308,8.2313,8.231,8.2313,8.2313,8.231,8.2299,8.2293,8.2293,8.2245,8.2365,8.257,8.2347,8.2343,8.2511,8.2296,8.221,8.2214,8.2209,8.2269,8.2281,8.2292,8.23,8.2303,8.2303,8.23,8.2295,8.2293,8.2318,8.2296,8.2293,8.2752,8.3405,8.4263,8.4665,8.4795,8.4804,8.5301,8.5703,8.5195,8.5489,8.5484,8.4317,8.3913,8.3459,8.2545,8.2389,8.235,8.2098,8.2019,8.1998,8.1998,8.2007,8.1975,8.1943,8.1895,8.1908,8.1902,8.1892,8.2631,8.4301,8.5039,8.5777,8.6671,8.671,8.6787,8.6961,8.6961,8.6941,8.6877,8.682,8.6761,8.6713,8.6583,8.6528,5.3756,5.527,5.6779,5.7584,5.9063,6.0496,6.1231,6.1412,6.1919,6.3668,6.4642,6.527,6.5387,6.888,7.2534,7.5093,7.6955,7.8737,8.0475,8.0782,8.1158,8.2095,8.2212,8.2212,8.2212,8.2215,8.2215,8.2293,8.2293,8.2293,8.2293,8.2293,8.2293,8.2293,8.2293,8.2299,8.2313,8.2313,8.2308,8.2293,8.2308,8.2308,8.2293,8.2293,8.2293,8.2293,8.2305,8.2742,8.3445,8.2623,8.2779,8.3404,8.2609,8.229,8.229,8.2308,8.2283,8.2293,8.23,8.2303,8.2304,8.2304,8.2304,8.2301,8.2295,8.2285,8.231,8.2296,8.2329,8.2563,8.3386,8.4206,8.4801,8.4796,8.4914,8.5152,8.5853,8.5461,8.5182,8.5793,8.5257,8.4395,8.3459,8.3304,8.2992,8.2143,8.2022,8.1991,8.1991,8.1991,8.1991,8.1983,8.1951,8.1908,8.1902,8.1892,8.2631,8.4301,8.4456,8.4884,8.5777,8.5777,8.6146,8.6909,8.6909,8.6877,8.6809,8.6749,8.6713,8.6713,8.6636,8.6596,5.3912,5.5619,5.752,5.8384,5.9856,6.1307,6.2084,6.2686,6.3687,6.594,6.6244,6.6439,6.7482,6.9915,7.2444,7.4515,7.6347,7.8156,7.9927,8.0176,8.0732,8.2137,8.2293,8.2293,8.2293,8.2245,8.2237,8.2237,8.2237,8.2241,8.2254,8.2263,8.2308,8.2308,8.2308,8.2305,8.2302,8.2302,8.2302,8.2308,8.2313,8.231,8.2308,8.2308,8.2308,8.2308,8.2283,8.2482,8.2755,8.2443,8.2478,8.2742,8.2417,8.2293,8.2293,8.231,8.2283,8.2293,8.23,8.2304,8.2304,8.2304,8.2304,8.2301,8.23,8.2293,8.2287,8.2283,8.2281,8.2357,8.2662,8.3011,8.325,8.3231,8.3668,8.4179,8.4491,8.4721,8.4987,8.5233,8.4606,8.3891,8.3527,8.2975,8.2467,8.213,8.1975,8.1951,8.1951,8.1926,8.1947,8.1947,8.1863,8.1815,8.1765,8.1794,8.2065,8.2686,8.3726,8.4989,8.6387,8.6433,8.6516,8.6843,8.6843,8.656,8.5995,8.5936,8.5899,8.5899,8.5823,8.6068,5.4732,5.6087,5.7718,5.9178,6.0372,6.1697,6.353,6.4004,6.4746,6.7269,6.7557,6.7868,6.9578,7.0912,7.2399,7.4466,7.6054,7.7543,7.9089,7.9756,8.0537,8.1747,8.2092,8.2284,8.2284,8.2226,8.2214,8.2214,8.2214,8.2183,8.2198,8.2248,8.226,8.2269,8.1995,8.1998,8.2313,8.204,8.2046,8.229,8.2289,8.2285,8.2281,8.2281,8.2281,8.2283,8.2292,8.2452,8.2687,8.2413,8.229,8.2281,8.231,8.2305,8.2302,8.2315,8.2285,8.229,8.23,8.2304,8.2304,8.2304,8.2304,8.2303,8.2265,8.2261,8.2292,8.2292,8.2292,8.2292,8.2287,8.2285,8.2285,8.2293,8.277,8.3242,8.3554,8.4061,8.456,8.4741,8.4346,8.3825,8.3536,8.2936,8.2383,8.2065,8.1975,8.1899,8.1881,8.1854,8.1864,8.1844,8.1814,8.1734,8.1702,8.1691,8.1807,8.2079,8.3225,8.4527,8.5984,8.6029,8.6239,8.6773,8.6254,8.5933,8.5858,8.528,8.5242,8.572,8.5397,8.5719,5.6372,5.6558,5.7175,5.9766,6.0411,6.1549,6.5736,6.5343,6.481,6.7269,6.849,6.9616,7.1248,7.1699,7.2646,7.5251,7.647,7.7414,7.8272,7.9873,8.0966,8.1005,8.1691,8.2187,8.2187,8.2205,8.2192,8.2192,8.2192,8.2192,8.2192,8.2192,8.2214,8.2212,8.1353,8.1376,8.2301,8.1442,8.1443,8.2304,8.2303,8.2299,8.2292,8.2292,8.2292,8.2293,8.23,8.277,8.3512,8.2653,8.2299,8.2292,8.2292,8.2287,8.2315,8.2289,8.2287,8.2318,8.2297,8.2304,8.2304,8.2297,8.2301,8.2304,8.2225,8.2265,8.2293,8.2293,8.2293,8.2295,8.2301,8.2299,8.2295,8.2301,8.2301,8.2537,8.3398,8.3594,8.3827,8.4626,8.4832,8.4552,8.3588,8.3382,8.3052,8.2029,8.1881,8.1873,8.1824,8.1814,8.1794,8.1741,8.173,8.173,8.1691,8.1691,8.2079,8.2932,8.2914,8.3301,8.4172,8.4266,8.5059,8.6674,8.5068,8.5006,8.6571,8.4908,8.4907,8.6461,8.5611,8.5608,5.5784,5.7448,5.9427,6.0193,6.1768,6.3717,6.6165,6.6278,6.625,6.7541,6.8963,6.9978,6.9908,7.1499,7.3246,7.4645,7.6138,7.7414,7.8272,7.8867,7.9614,8.0866,8.1164,8.1542,8.2127,8.2162,8.2128,8.2128,8.2128,8.2133,8.2192,8.2192,8.2205,8.2195,8.1945,8.1949,8.2241,8.1968,8.1981,8.224,8.2227,8.224,8.23,8.23,8.23,8.23,8.2303,8.2461,8.2656,8.242,8.2301,8.23,8.2295,8.229,8.2289,8.2292,8.2295,8.2297,8.2303,8.2304,8.2302,8.225,8.2256,8.2303,8.2297,8.2264,8.2303,8.2303,8.2303,8.2304,8.2303,8.2301,8.2303,8.2304,8.2304,8.2382,8.2617,8.2695,8.2927,8.3782,8.3464,8.3172,8.3419,8.2936,8.2364,8.203,8.1881,8.2018,8.2577,8.2643,8.2854,8.334,8.3406,8.3123,8.2533,8.2455,8.2339,8.1991,8.1928,8.261,8.4142,8.4737,8.5242,8.5707,8.5849,8.5836,8.5681,8.5178,8.4829,8.4684,8.5032,8.5299,5.7263,5.8816,6.0645,6.1671,6.3052,6.4727,6.6712,6.7675,6.8333,6.9214,7.0498,7.1485,7.1725,7.2812,7.4074,7.5291,7.6106,7.6906,7.7765,7.8164,7.8908,8.0308,8.0719,8.1212,8.2066,8.2133,8.2095,8.2095,8.2095,8.2106,8.2162,8.2172,8.2187,8.2214,8.1859,8.1707,8.1726,8.1723,8.174,8.1725,8.1717,8.173,8.1791,8.2142,8.2301,8.2303,8.2304,8.2304,8.2304,8.2304,8.2303,8.2303,8.2301,8.2299,8.2257,8.1903,8.1981,8.2257,8.1912,8.1992,8.2302,8.22,8.2246,8.2297,8.2251,8.2297,8.2304,8.2303,8.2262,8.2258,8.2246,8.2242,8.2244,8.2256,8.226,8.2261,8.2261,8.23,8.2454,8.2998,8.263,8.2401,8.286,8.2434,8.2029,8.1926,8.1805,8.2012,8.2859,8.2952,8.3227,8.4004,8.412,8.3863,8.3283,8.3244,8.3012,8.2497,8.2458,8.2948,8.4031,8.4237,8.4663,8.5294,8.5514,8.5669,8.5797,8.5113,8.4789,8.4913,8.5039,8.522,5.9714,6.0461,6.1286,6.3617,6.4496,6.539,6.7702,6.9473,7.0834,7.1527,7.2445,7.3618,7.5285,7.5011,7.5074,7.6735,7.6418,7.6203,7.6984,7.7765,7.8618,7.9455,8.0294,8.1085,8.1883,8.205,8.2104,8.2104,8.211,8.211,8.2104,8.2095,8.2084,8.2065,8.1386,8.0985,8.0863,8.0941,8.0946,8.0883,8.0881,8.0883,8.0923,8.1708,8.2105,8.2187,8.2265,8.2265,8.2187,8.2187,8.2148,8.207,8.207,8.207,8.1989,8.1164,8.1429,8.2051,8.1167,8.1445,8.2186,8.2113,8.2115,8.2173,8.22,8.2251,8.23,8.2293,8.2244,8.2191,8.217,8.2166,8.2166,8.2163,8.2179,8.2193,8.2191,8.2242,8.2285,8.2271,8.2248,8.2162,8.2116,8.2044,8.1959,8.1805,8.1691,8.1934,8.275,8.2818,8.3167,8.4082,8.4121,8.4017,8.3898,8.3821,8.3782,8.3782,8.3782,8.3821,8.3898,8.3373,8.3798,8.5243,8.4637,8.5062,8.6583,8.493,8.486,8.6253,8.5468,8.5379,5.8241,6.0815,6.3542,6.4135,6.6759,6.9514,7.0715,7.1732,7.2103,7.096,7.2484,7.4152,7.468,7.5179,7.5861,7.6894,7.6942,7.6906,7.7062,7.7257,7.7681,7.8483,7.9357,8.0193,8.0987,8.17,8.2104,8.2104,8.2089,8.2095,8.211,8.2095,8.1795,8.1109,8.1588,8.1215,7.9925,8.0583,8.0606,7.9981,7.9927,7.9942,7.9977,8.0152,8.0625,8.1326,8.199,8.1912,8.1287,8.1287,8.0897,8.0272,8.0273,8.0273,8.0234,8.0036,8.0545,8.1133,8.0272,8.0541,8.1265,8.1215,8.12,8.139,8.1993,8.224,8.2293,8.2244,8.2185,8.2109,8.205,8.2028,8.2056,8.2039,8.2089,8.2117,8.2101,8.214,8.2144,8.2136,8.2166,8.2167,8.1966,8.2019,8.199,8.1776,8.1757,8.1995,8.2651,8.2767,8.3321,8.4744,8.4281,8.3842,8.3813,8.3235,8.2887,8.2887,8.2887,8.3157,8.3813,8.4375,8.4853,8.5154,8.5632,8.6057,8.6428,8.6066,8.5675,8.5329,8.5697,8.556,5.9446,6.1908,6.4562,6.5808,6.8702,7.1229,7.1199,7.2114,7.2835,7.2399,7.3717,7.5099,7.5655,7.6092,7.6525,7.702,7.7101,7.7098,7.7089,7.7089,7.7543,7.875,7.9276,8.0029,8.1267,8.1805,8.2039,8.2039,8.2089,8.2106,8.2089,8.2117,8.1922,8.1427,8.1855,8.1282,7.9632,8.0451,8.0289,7.9089,7.9483,7.9465,7.9098,7.9491,8.0195,8.1049,8.1482,8.1678,8.1637,8.1639,8.1366,8.0937,8.0937,8.0937,8.0898,8.0467,8.0859,8.1483,8.0622,8.0887,8.1569,8.1524,8.1549,8.158,8.1605,8.1652,8.158,8.1089,8.1204,8.1455,8.1377,8.1654,8.1936,8.1904,8.1966,8.2017,8.205,8.2038,8.2005,8.2089,8.2089,8.2033,8.1944,8.1952,8.1878,8.1685,8.1652,8.1895,8.2585,8.27,8.315,8.4354,8.4455,8.4402,8.4357,8.3972,8.3894,8.428,8.3972,8.4126,8.4935,8.5405,8.5497,8.5111,8.596,8.6384,8.6384,8.6339,8.6046,8.5543,8.5885,8.5727,6.0612,6.2605,6.495,6.7812,7.0078,7.1521,7.1021,7.1931,7.3208,7.4383,7.5132,7.5872,7.6926,7.7036,7.7024,7.7095,7.7095,7.7128,7.7309,7.7298,7.7853,7.9337,7.9643,8.028,8.1633,8.1912,8.2019,8.2012,8.2077,8.2112,8.2112,8.2177,8.2026,8.1689,8.1811,8.1085,7.9388,8.0255,7.9935,7.8413,7.9127,7.9178,7.8669,7.9375,8.0078,8.0772,8.1092,8.1562,8.2068,8.207,8.1992,8.1836,8.1836,8.1836,8.1758,8.1053,8.1328,8.1952,8.109,8.1312,8.1987,8.1992,8.1968,8.1878,8.1365,8.1212,8.105,8.0232,8.0474,8.0974,8.0894,8.139,8.189,8.1805,8.1804,8.1865,8.1952,8.1898,8.1913,8.2013,8.1975,8.1904,8.1983,8.1977,8.1889,8.1635,8.1681,8.1878,8.2294,8.2357,8.2666,8.3461,8.4179,8.465,8.4743,8.4743,8.5051,8.569,8.5113,8.502,8.5658,8.5851,8.5652,8.5021,8.5884,8.6246,8.6131,8.613,8.6088,8.6043,8.5996,8.5872,5.8087,6.1192,6.5176,6.9167,7.0407,7.0953,7.2358,7.2804,7.3371,7.5111,7.5468,7.5839,7.6887,7.7085,7.7078,7.7098,7.7036,7.7294,7.8125,7.8111,7.8402,7.9371,8.0176,8.0656,8.0776,8.1569,8.2046,8.2012,8.2077,8.2112,8.2112,8.2177,8.1519,7.9973,8.0675,8.0228,7.8476,7.9405,7.9387,7.8386,7.851,7.8906,7.9528,7.9648,7.9765,7.9957,8.1482,8.1755,8.1169,8.1169,8.074,8.0037,8.0039,8.0039,8.0039,7.992,8.0428,8.1033,8.0181,8.0389,8.107,8.108,8.1065,8.1176,8.1824,8.2049,8.2001,8.175,8.176,8.182,8.1689,8.1728,8.1786,8.1734,8.1691,8.1641,8.1734,8.1747,8.1747,8.1813,8.1842,8.1852,8.1983,8.2427,8.2477,8.1719,8.2205,8.2342,8.149,8.1441,8.1735,8.2409,8.2586,8.2971,8.374,8.3779,8.3824,8.3857,8.378,8.3709,8.37,8.4429,8.4775,8.4677,8.5591,8.5664,8.4933,8.5539,8.587,8.5852,8.576,8.5743,5.9321,6.2386,6.548,6.7803,6.9401,7.0655,7.142,7.1894,7.2671,7.4505,7.4817,7.5241,7.6702,7.6609,7.6453,7.6917,7.7389,7.7848,7.8241,7.8669,7.9052,7.9415,8.0224,8.073,8.0612,8.1477,8.2026,8.2012,8.2077,8.2112,8.2112,8.2153,8.1859,8.1065,8.1418,8.105,7.9811,8.0178,8.019,7.9844,7.9844,8.0077,8.0426,8.0937,8.0897,8.0462,8.1249,8.164,8.1677,8.1211,8.0781,8.039,7.9883,7.9687,7.9765,8.0233,8.0654,8.1024,8.1092,8.1329,8.1582,8.1572,8.1592,8.162,8.149,8.1441,8.1304,8.0752,8.0907,8.1187,8.1107,8.1406,8.1713,8.1612,8.1541,8.1491,8.1478,8.149,8.1717,8.2284,8.2037,8.1893,8.2408,8.2212,8.1852,8.1388,8.1978,8.2275,8.1721,8.2115,8.2577,8.2847,8.3341,8.3764,8.4136,8.4174,8.4349,8.4775,8.4391,8.4297,8.4665,8.5049,8.5049,8.4627,8.543,8.5678,8.5332,8.5642,8.5779,8.5742,8.5628,8.5551,5.9875,6.2356,6.4445,6.5717,6.7741,6.9584,7.0006,7.0712,7.1745,7.3558,7.3698,7.4133,7.6137,7.6253,7.6131,7.6537,7.7334,7.8069,7.8475,7.9077,7.964,7.9998,8.0668,8.1026,8.097,8.1586,8.2019,8.2012,8.2071,8.2106,8.2112,8.2162,8.2109,8.1875,8.1878,8.1623,8.1003,8.0933,8.1054,8.132,8.1128,8.1129,8.1362,8.1991,8.1951,8.1322,8.1328,8.1562,8.1913,8.1288,8.0858,8.0625,7.9961,7.9687,7.9765,8.0419,8.0636,8.0732,8.1321,8.1465,8.1415,8.1415,8.1432,8.1371,8.0708,8.0653,8.0629,7.9968,8.0318,8.0871,8.0815,8.1237,8.1624,8.1504,8.1414,8.136,8.1305,8.1347,8.162,8.2328,8.1999,8.1785,8.2387,8.1942,8.147,8.1122,8.1708,8.2057,8.173,8.2301,8.2779,8.294,8.3798,8.4391,8.4588,8.4762,8.5069,8.5434,8.4897,8.4726,8.5052,8.532,8.5129,8.4554,8.532,8.5627,8.5435,8.559,8.5648,8.5551,8.5471,8.5391,5.765,5.9168,6.1084,6.3521,6.5406,6.7035,6.8705,6.9718,7.0767,7.2521,7.2211,7.2415,7.4993,7.6225,7.661,7.5875,7.6404,7.746,7.9201,7.9414,8.0007,8.1672,8.1941,8.1994,8.1913,8.2019,8.2091,8.2012,8.2046,8.2083,8.2112,8.2162,8.1836,8.0977,8.1035,8.1049,8.1005,8.1014,8.1403,8.2237,8.1398,8.1439,8.2215,8.2261,8.2264,8.2226,8.2226,8.1797,8.1054,8.1015,8.0508,7.9765,7.9725,7.9684,7.9683,7.9697,7.9661,7.9656,7.9645,7.9618,7.9555,7.9555,7.9555,7.9555,7.9477,8.0061,8.0676,8.059,8.1122,8.1718,8.1646,8.1573,8.1491,8.1414,8.1347,8.1291,8.1291,8.1347,8.1374,8.1319,8.1322,8.131,8.128,8.1831,8.1955,8.1131,8.1618,8.1807,8.0984,8.0907,8.1214,8.1964,8.2863,8.3707,8.4532,8.5317,8.5396,8.4518,8.4442,8.4021,8.3162,8.3926,8.4346,8.4308,8.5111,8.5129,8.4365,8.5088,8.5367,8.5241,8.5241,8.5219,5.7201,5.8135,5.9182,6.1719,6.3619,6.5274,6.695,6.7963,6.9004,7.0719,7.0835,7.1233,7.3336,7.4506,7.5415,7.6202,7.7073,7.7851,7.8434,7.9001,7.9584,8.024,8.0333,8.0362,8.0394,8.091,8.1039,8.0461,8.1461,8.187,8.1312,8.1855,8.2049,8.1737,8.1775,8.1795,8.1836,8.1836,8.1992,8.2301,8.1991,8.1991,8.2303,8.2304,8.2304,8.2303,8.2303,8.1796,8.0976,8.039,7.9648,7.8826,7.8236,7.7994,7.8018,7.8569,7.8754,7.8776,7.926,7.9414,7.9392,7.9392,7.9392,7.9392,7.9392,7.9602,7.9959,8.0452,8.0795,8.1077,8.1514,8.1565,8.1453,8.1196,8.1077,8.1054,8.0991,8.1137,8.1421,8.189,8.1431,8.1139,8.1685,8.1325,8.0958,8.0705,8.1231,8.1614,8.1478,8.2376,8.318,8.3448,8.4307,8.492,8.5169,8.5398,8.5397,8.5051,8.5051,8.4879,8.4533,8.4838,8.4991,8.4991,8.5176,8.5214,8.5029,8.5256,8.5325,8.5219,8.5094,8.5073,5.5981,5.6831,5.7707,5.9646,6.1388,6.3099,6.4737,6.5735,6.6766,6.8481,6.9275,7.0214,7.2008,7.3073,7.4261,7.6026,7.6816,7.7415,7.7939,7.853,7.9014,7.9359,7.9415,7.946,7.9481,8.0007,8.0247,7.9955,8.1026,8.1533,8.1233,8.1834,8.2205,8.2187,8.22,8.2223,8.2304,8.2304,8.2304,8.2304,8.2304,8.2304,8.2304,8.2304,8.2303,8.2301,8.23,8.1636,8.0506,7.992,7.9021,7.7924,7.7332,7.7237,7.7515,7.8052,7.8425,7.867,7.9182,7.9384,7.9384,7.9384,7.9151,7.8917,7.8901,7.8915,7.8997,7.9524,7.9815,8.0119,8.093,8.1234,8.1267,8.1031,8.0904,8.086,8.0809,8.0937,8.1231,8.1692,8.1431,8.1274,8.1831,8.1232,8.0792,8.1193,8.1095,8.1169,8.1652,8.2473,8.3218,8.3771,8.4385,8.4843,8.4991,8.5176,8.5211,8.4965,8.5214,8.5367,8.5346,8.5367,8.5367,8.5325,8.5262,8.5241,8.5283,8.5283,8.5219,8.5089,8.5022,8.4977,0.0,0.0,0.0,5.7359,5.8759,6.039,6.2129,6.3064,6.4086,6.5906,6.757,6.9252,7.1056,7.2084,7.3258,7.5154,7.5482,7.6065,7.7736,7.8012,7.8387,7.9243,7.9399,7.9442,7.9442,7.9448,7.9792,8.0603,8.0766,8.1116,8.1895,8.2106,8.2183,8.2196,8.2196,8.2246,8.2301,8.2304,8.2304,8.2302,8.2302,8.2301,8.2301,8.2301,8.2301,8.2301,8.2295,8.1316,7.9752,7.9752,7.8738,7.7174,7.7165,7.7648,7.8347,7.8275,7.8741,7.9408,7.9325,7.929,7.929,7.929,7.8707,7.8037,7.7943,7.7923,7.7914,7.7951,7.8397,7.9067,7.9944,8.0583,8.0946,8.0904,8.086,8.0792,8.0775,8.0775,8.0758,8.0632,8.1173,8.1633,8.1536,8.1474,8.1679,8.2517,8.1299,8.0616,8.1516,8.0964,8.1116,8.2756,8.2947,8.3267,8.3963,8.4762,8.4877,8.4077,8.4868,8.5325,8.5219,8.5325,8.5325,8.5219,8.5198,8.5116,8.5006,8.5006,8.4977,8.4901,8.4901,8.4901,5.2806,0.0,0.0,0.0,0.0,0.0,6.0328,6.0879,6.1845,6.4799,6.5741,6.7095,7.0806,7.1639,7.2336,7.4131,7.4983,7.5817,7.6913,7.7066,7.7421,7.8348,7.7906,7.7774,7.8426,7.8532,7.8383,7.8005,7.9721,8.0637,8.0227,8.1403,8.2133,8.2202,8.2191,8.2215,8.2295,8.2297,8.2301,8.2304,8.2304,8.2304,8.2301,8.2301,8.2297,8.2285,8.2283,8.1647,8.0573,8.0624,7.9963,7.8984,7.894,7.9003,7.9175,7.9084,7.9166,7.9325,7.9299,7.929,7.929,7.9253,7.9039,7.8874,7.8776,7.8307,7.7993,7.9215,7.8796,7.8271,7.9576,7.9999,8.0222,8.0583,8.0667,8.0614,8.0525,8.0525,8.0487,8.0543,8.0506,8.0459,8.0438,8.0866,8.1317,8.163,8.1756,8.193,8.2347,8.2686,8.3046,8.3565,8.4196,8.4631,8.4839,8.498,8.4937,8.4747,8.498,8.5094,8.5051,8.5094,8.5094,8.5051,8.4999,8.4969,8.4947,8.4961,8.4977,8.4901,8.4901,8.4901,5.2317,5.3001,5.3751,5.5432,0.0,0.0,5.8647,5.9017,5.976,6.2478,6.3524,6.4936,6.8273,6.9401,7.0515,7.2589,7.3404,7.4334,7.5915,7.6457,7.689,7.746,7.7096,7.7003,7.7555,7.7616,7.7591,7.746,7.8864,7.9663,7.9507,8.1163,8.1951,8.1663,8.2006,8.223,8.2285,8.2296,8.2301,8.2304,8.2303,8.2299,8.2299,8.2295,8.2289,8.2313,8.2308,8.1981,8.1446,8.1489,8.0782,7.9639,7.9632,7.9766,7.9998,7.9975,8.0145,8.0377,8.0377,8.0377,8.0377,8.0349,8.0068,7.9777,7.9657,7.874,7.8026,7.9286,7.9121,7.8714,7.9538,7.9944,8.0114,8.0075,8.033,8.0391,7.9973,8.0066,8.0255,8.0354,8.0461,8.0524,8.0524,8.0856,8.1246,8.1691,8.1799,8.2049,8.2547,8.2998,8.3395,8.3802,8.4318,8.46,8.4556,8.4772,8.4825,8.4446,8.4794,8.4984,8.4977,8.4984,8.4984,8.4977,8.4924,8.4901,8.4901,8.4932,8.4932,8.4901,8.4901,8.4901,5.1864,5.2436,0.0,5.4533,5.5012,0.0,5.6935,5.7362,5.7948,5.9699,6.1291,6.289,6.4714,6.6406,6.8199,7.036,7.1184,7.2395,7.4896,7.5913,7.6445,7.657,7.6605,7.6723,7.6879,7.6894,7.7219,7.7987,7.8157,7.8605,7.9448,8.0974,8.1471,8.0787,8.1529,8.1953,8.2003,8.2028,8.1992,8.1992,8.2017,8.2007,8.2017,8.2007,8.2079,8.2154,8.214,8.2163,8.2183,8.2196,8.1275,7.9884,7.9873,8.0241,8.0816,8.08,8.1295,8.1892,8.1892,8.1892,8.1892,8.1883,8.133,8.0689,8.0577,7.9377,7.8174,7.8696,7.9317,7.9777,7.9681,8.003,8.029,7.9678,7.9952,8.0143,7.9381,7.9604,8.0013,8.0154,8.0701,8.1149,8.1149,8.11,8.1338,8.2134,8.1755,8.1685,8.2516,8.2706,8.3047,8.3845,8.3921,8.3876,8.3748,8.4446,8.456,8.3764,8.4521,8.4977,8.4901,8.4977,8.4977,8.4901,8.4901,8.4901,8.4901,8.4901,8.4901,8.4901,8.4901,8.4901,4.9709,5.1114,5.2747,5.3053,5.417,0.0,5.4738,5.5688,5.7113,5.8856,5.9988,6.1394,6.3774,6.5602,6.6662,6.6422,6.9381,7.2275,7.4014,7.446,7.4904,7.5638,7.5763,7.6005,7.6674,7.6856,7.6979,7.7142,7.7858,7.863,7.9448,7.9805,7.9951,7.9847,8.0007,8.0126,8.0219,8.0193,8.0195,8.0193,8.0217,8.0207,8.0211,8.0207,8.0592,8.1242,8.1187,8.1559,8.2196,8.2133,8.1912,8.1597,8.1508,8.1531,8.1653,8.1621,8.1718,8.1892,8.1892,8.1892,8.1883,8.1755,8.1607,8.1469,8.1344,8.0486,7.9414,7.8699,7.9092,7.9681,7.9514,7.9468,7.9589,8.0087,8.02,8.0177,7.9885,7.992,7.9971,7.9946,8.0076,8.0168,8.0168,8.0678,8.1148,8.1338,8.2361,8.318,8.3354,8.3999,8.4507,8.4658,8.4696,8.4658,8.4635,8.4825,8.4825,8.4673,8.481,8.4924,8.4901,8.4924,8.4924,8.4901,8.4901,8.4901,8.4901,8.4901,8.4901,8.4901,8.4901,8.4901,4.9398,5.0143,5.1003,5.1788,0.0,0.0,0.0,5.5246,5.6326,5.8067,5.8698,5.9494,6.1179,6.2551,6.3525,6.3896,6.6133,6.8443,7.0083,7.2546,7.4342,7.4792,7.4861,7.518,7.6013,7.6195,7.6441,7.691,7.7799,7.8285,7.8246,7.9065,7.9316,7.8974,7.9364,7.9643,7.9707,7.968,7.9687,7.968,7.9707,7.9694,7.9689,7.9689,8.0194,8.1005,8.0956,8.141,8.221,8.2157,8.2112,8.2033,8.1991,8.1934,8.1881,8.1873,8.1873,8.1892,8.1892,8.1892,8.1883,8.1765,8.1734,8.1713,8.1553,8.1065,8.0319,7.8846,7.9377,8.0306,8.0174,8.0037,7.9855,7.98,7.9932,7.9979,7.9519,7.9685,7.9924,7.9832,7.981,7.9681,7.9329,7.9936,8.0352,7.9936,8.1641,8.2816,8.2399,8.3839,8.4749,8.4294,8.4635,8.4901,8.4901,8.4901,8.4901,8.4901,8.4901,8.4901,8.4901,8.4901,8.4901,8.4901,8.4901,8.4901,8.4901,8.4901,8.4901,8.4901,8.4901,8.4854,0.0,0.0,4.9445,0.0,0.0,5.2141,0.0,0.0,0.0,5.6787,5.7154,5.7489,5.8364,5.9237,6.0179,6.1359,6.2679,6.3993,6.5199,6.9403,7.2489,7.2904,7.3137,7.3659,7.4639,7.4794,7.5326,7.6409,7.6993,7.7065,7.652,7.8084,7.8726,7.8057,7.872,7.9119,7.9184,7.9202,7.9217,7.9212,7.92,7.9187,7.9212,7.9209,7.9756,8.0732,8.0768,8.1304,8.2187,8.2183,8.2123,8.2005,8.2007,8.1934,8.1892,8.1883,8.1883,8.1892,8.1883,8.1883,8.1873,8.1804,8.1745,8.1713,8.1359,8.1155,8.068,7.9206,7.9738,8.0823,8.0882,8.0771,8.0423,7.9644,7.9761,7.9861,7.9157,7.9469,7.9832,7.9638,7.9638,7.9456,7.8907,7.9421,7.9648,7.895,8.0753,8.1989,8.1458,8.3316,8.4514,8.3945,8.4552,8.4947,8.4924,8.4924,8.4924,8.4901,8.4901,8.4901,8.4901,8.4901,8.4901,8.4901,8.4901,8.4901,8.4901,8.4901,8.4901,8.4901,8.4878,8.4808,0.0,0.0,0.0,0.0,5.1426,0.0,0.0,0.0,5.4186,5.4379,0.0,5.586,5.6719,0.0,0.0,5.7372,5.9909,6.1729,6.108,6.3531,6.6146,6.8278,6.9253,7.0381,7.1886,7.2112,7.2847,7.4583,7.4053,7.4002,7.4664,7.6325,7.7245,7.716,7.7238,7.7346,7.7391,7.7397,7.7415,7.7381,7.7413,7.7395,7.7393,7.738,7.8272,7.9834,7.9857,8.0743,8.2187,8.2205,8.2106,8.2005,8.1929,8.1895,8.1892,8.1844,8.1854,8.1883,8.1844,8.1824,8.1804,8.1669,8.1624,8.1457,8.06,8.0318,8.0242,7.9916,7.9909,8.0153,8.0728,8.0767,8.0643,8.0461,8.0297,8.0116,7.9899,7.9784,7.9638,7.9406,7.9453,7.9532,7.9569,7.9668,7.975,7.9746,8.0705,8.1642,8.225,8.3324,8.4263,8.4948,8.51,8.5132,8.4984,8.4984,8.4977,8.4901,8.4901,8.4901,8.4901,8.4901,8.4901,8.4901,8.4901,8.4901,8.4901,8.4901,8.4901,8.4901,8.4784,8.4737,0.0,0.0,0.0,0.0,0.0,0.0,5.1909,0.0,5.3397,0.0,0.0,0.0,0.0,0.0,0.0,0.0,5.698,5.8139,5.8776,5.9759,6.1884,6.5874,6.6704,6.7793,6.9935,7.0642,7.1464,7.2737,7.2497,7.2926,7.4308,7.5528,7.6442,7.6978,7.7017,7.7019,7.7089,7.711,7.7137,7.7148,7.7144,7.7133,7.7083,7.7117,7.8047,7.9717,7.9707,8.068,8.2241,8.2273,8.2201,8.2095,8.2026,8.1968,8.1883,8.1834,8.1834,8.1844,8.1783,8.1734,8.1723,8.1669,8.1612,8.127,7.9927,7.9826,8.0086,7.9481,7.97,8.0238,8.09,8.0968,8.0833,8.0737,8.0468,8.0237,8.0197,8.0055,7.9924,7.9645,7.9532,7.9485,7.9569,7.9638,7.9554,7.9106,8.0694,8.1903,8.1816,8.3416,8.4524,8.4513,8.4915,8.5176,8.5028,8.5006,8.4961,8.4901,8.4901,8.4901,8.4901,8.4901,8.4901,8.4901,8.4901,8.4901,8.4901,8.4831,8.4831,8.4901,8.476,8.4641,4.8369,0.0,0.0,0.0,0.0,0.0,0.0,0.0,0.0,0.0,0.0,0.0,0.0,0.0,0.0,0.0,0.0,5.5194,5.6237,5.6749,5.8719,6.3366,6.4499,6.5789,6.7898,6.8409,6.9225,7.0557,7.0434,7.1063,7.2835,7.4431,7.5591,7.627,7.676,7.7043,7.7101,7.711,7.7133,7.7187,7.7184,7.7139,7.7087,7.7081,7.7932,7.9366,7.96,8.0537,8.1942,8.2215,8.2273,8.2192,8.2123,8.2026,8.1908,8.1825,8.1786,8.1804,8.1702,8.1658,8.1646,8.1669,8.1624,8.1294,7.9853,7.9637,7.9799,7.9364,7.9545,8.0048,8.0979,8.1146,8.1016,8.091,8.0596,8.0335,8.0219,8.0137,7.995,7.9517,7.9425,7.9416,7.9359,7.9477,7.9426,7.8829,8.046,8.1729,8.1664,8.3286,8.4415,8.4386,8.4902,8.5202,8.5073,8.5051,8.5022,8.4901,8.4901,8.4901,8.4901,8.4901,8.4901,8.4901,8.4854,8.4854,8.4854,8.476,8.4737,8.4784,8.4665,8.4518,0.0,0.0,0.0,4.8776,0.0,0.0,0.0,0.0,5.1678,0.0,0.0,0.0,0.0,0.0,0.0,0.0,0.0,0.0,0.0,5.4208,5.6533,5.9965,6.253,6.4442,6.5431,6.4701,6.527,6.7833,6.7223,6.7514,6.9179,7.2546,7.4436,7.448,7.6177,7.7098,7.7101,7.7089,7.7097,7.71,7.7108,7.7099,7.7097,7.7115,7.757,7.8507,7.9326,8.0224,8.1122,8.1942,8.2273,8.2192,8.2123,8.2071,8.199,8.186,8.1786,8.1765,8.1646,8.1565,8.1516,8.1589,8.1646,8.1547,8.0707,7.9833,7.9277,8.0129,7.9656,7.9301,8.0881,8.1273,8.1184,8.1108,8.0775,8.0392,7.9999,7.987,7.9562,7.8697,7.9054,7.9383,7.8991,7.9141,7.9406,7.9623,7.9881,8.0638,8.2271,8.2787,8.3557,8.5197,8.5431,8.5411,8.5219,8.5198,8.5111,8.4901,8.4901,8.4901,8.4901,8.4901,8.4901,8.4901,8.4784,8.4713,8.4713,8.4713,8.4665,8.4505,8.4394,8.4394,0.0,0.0,4.8049,4.9231,0.0,0.0,0.0,0.0,0.0,0.0,0.0,0.0,0.0,0.0,0.0,0.0,0.0,0.0,0.0,5.4013,5.5551,5.6647,5.951,6.1525,6.1849,6.2114,6.3104,6.5153,6.5576,6.701,6.987,7.176,7.3527,7.5261,7.5915,7.6524,7.7089,7.7096,7.7103,7.7186,7.7186,7.7142,7.7097,7.7085,7.7581,7.8429,7.8702,7.9678,8.1005,8.1317,8.1779,8.2273,8.2196,8.2117,8.202,8.1822,8.1718,8.1716,8.16,8.1553,8.1577,8.1646,8.1702,8.1589,8.0715,8.019,8.0002,8.0195,7.9983,7.9958,8.1035,8.1234,8.1169,8.0926,8.0741,8.0486,8.0101,7.9975,7.9822,7.9369,7.9369,7.9439,7.943,7.943,7.95,7.966,8.0271,8.097,8.1626,8.2222,8.2876,8.3531,8.361,8.3569,8.3438,8.3867,8.4347,8.4863,8.4901,8.4901,8.4901,8.4808,8.4808,8.4901,8.4689,8.4627,8.4831,8.4627,8.4579,8.4641,8.4381,8.4004,5.0673,4.9614,0.0,4.9605,4.9063,0.0,4.9637,0.0,5.0951,0.0,0.0,0.0,0.0,0.0,0.0,0.0,0.0,0.0,0.0,5.3397,5.4224,5.4496,5.7314,5.9322,5.9593,6.0137,6.1342,6.3362,6.4092,6.566,6.8487,7.013,7.1894,7.3888,7.4586,7.5499,7.6675,7.6675,7.6834,7.7187,7.7185,7.7142,7.7097,7.7085,7.7422,7.796,7.8272,7.9053,8.0107,8.0732,8.1314,8.1812,8.2088,8.2177,8.2095,8.1865,8.1776,8.1685,8.1565,8.1516,8.1553,8.1635,8.1658,8.1541,8.0999,8.0368,7.9985,8.0522,8.0177,7.9906,8.1035,8.1191,8.1038,8.0843,8.0614,8.0316,7.9678,7.9557,7.9491,7.9162,7.9124,7.9289,7.9674,7.969,7.9728,7.9794,8.0336,8.0878,8.1288,8.1845,8.2344,8.2731,8.2772,8.2845,8.2982,8.3405,8.3999,8.4863,8.4901,8.4901,8.4901,8.4831,8.4808,8.4901,8.4689,8.4665,8.4831,8.4665,8.4641,8.4713,8.4505,8.3828]}]]